[[{"header":{"parameterUnit":"m.s-1","parameterCategory":1,"la1":30.6,"la2":28.766,"lo1":-90.7593,"lo2":-88.6598,"dy":0.0162,"dx":0.0183,"nx":116,"ny":114,"refTime":"2024-05-19T06:00:00:Z","depth":0,"parameterNumber":2,"parameterNumberName":"U-component_of_WINDS"},"data":[0.0,0.0,0.0,0.0,0.0,0.0,0.0,0.0,0.0,0.0,0.0,0.0,0.0,0.0,0.0,0.0,0.0,0.0,0.0,0.0,0.0,0.0,0.0,0.0,0.0,0.0,0.0,0.0,0.0,0.0,0.0,0.0,0.0,0.0,0.0,0.0,0.0,0.0,0.0,0.0,0.0,0.0,0.0,0.0,0.0,0.0,0.0,0.0,0.0,0.0,0.0,0.0,0.0,0.0,0.0,0.0,0.0,0.0,0.0,0.0,0.0,0.0,0.0,0.0,0.0,0.0,0.0,0.0,0.0,0.0,0.0,0.0,0.0,0.0,0.0,0.0,0.0,0.0,0.0,0.0,0.0,0.0,0.0,0.0,0.0,0.0,0.0,0.0,0.0,0.0,0.0,0.0,0.0,0.0,0.0,0.0,0.0,0.0,0.0,0.0,0.0,0.0,0.0,0.0,0.0,0.0,0.0,0.0,0.0,0.0,0.0,0.0,0.0,0.0,0.0,0.0,0.0,0.0,0.0,0.0,0.0,0.0,0.0,0.0,0.0,0.0,0.0,0.0,0.0,0.0,0.0,0.0,0.0,0.0,0.0,0.0,0.0,0.0,0.0,0.0,0.0,0.0,0.0,0.0,0.0,0.0,0.0,0.0,0.0,0.0,0.0,0.0,0.0,0.0,0.0,0.0,0.0,0.0,0.0,0.0,0.0,0.0,0.0,0.0,0.0,0.0,0.0,0.0,0.0,0.0,0.0,0.0,0.0,0.0,0.0,0.0,0.0,0.0,0.0,0.0,0.0,0.0,0.0,0.0,0.0,0.0,0.0,0.0,0.0,0.0,0.0,0.0,0.0,0.0,0.0,0.0,0.0,0.0,0.0,0.0,0.0,0.0,0.0,0.0,0.0,0.0,0.0,0.0,0.0,0.0,0.0,0.0,0.0,0.0,0.0,0.0,0.0,0.0,0.0,0.0,0.0,0.0,0.0,0.0,0.0,0.0,0.0,0.0,0.0,0.0,0.0,0.0,0.0,0.0,0.0,0.0,0.0,0.0,0.0,0.0,0.0,0.0,0.0,0.0,0.0,0.0,0.0,0.0,0.0,0.0,0.0,0.0,0.0,0.0,0.0,0.0,0.0,0.0,0.0,0.0,0.0,0.0,0.0,0.0,0.0,0.0,0.0,0.0,0.0,0.0,0.0,0.0,0.0,0.0,0.0,0.0,0.0,0.0,0.0,0.0,0.0,0.0,0.0,0.0,0.0,0.0,0.0,0.0,0.0,0.0,0.0,0.0,0.0,0.0,0.0,0.0,0.0,0.0,0.0,0.0,0.0,0.0,0.0,0.0,0.0,0.0,0.0,0.0,0.0,0.0,0.0,0.0,0.0,0.0,0.0,0.0,0.0,0.0,0.0,0.0,0.0,0.0,0.0,0.0,0.0,0.0,0.0,0.0,0.0,0.0,0.0,0.0,0.0,0.0,0.0,0.0,0.0,0.0,0.0,0.0,0.0,0.0,0.0,0.0,0.0,0.0,0.0,0.0,0.0,0.0,0.0,0.0,0.0,0.0,0.0,0.0,0.0,0.0,0.0,0.0,0.0,0.0,0.0,0.0,0.0,0.0,0.0,0.0,0.0,0.0,0.0,0.0,0.0,0.0,0.0,0.0,0.0,0.0,0.0,0.0,0.0,0.0,0.0,0.0,0.0,0.0,0.0,0.0,0.0,0.0,0.0,0.0,0.0,0.0,0.0,0.0,0.0,0.0,0.0,0.0,0.0,0.0,0.0,0.0,0.0,0.0,0.0,0.0,0.0,0.0,0.0,0.0,0.0,0.0,0.0,0.0,0.0,0.0,0.0,0.0,0.0,0.0,0.0,0.0,0.0,0.0,0.0,0.0,0.0,0.0,0.0,0.0,0.0,0.0,0.0,0.0,0.0,0.0,0.0,0.0,0.0,0.0,0.0,0.0,0.0,0.0,0.0,0.0,0.0,0.0,0.0,0.0,0.0,0.0,0.0,0.0,0.0,0.0,0.0,0.0,0.0,0.0,0.0,0.0,0.0,0.0,0.0,0.0,0.0,0.0,0.0,0.0,0.0,0.0,0.0,0.0,0.0,0.0,0.0,0.0,0.0,0.0,0.0,0.0,0.0,0.0,0.0,0.0,0.0,0.0,0.0,0.0,0.0,0.0,0.0,0.0,0.0,0.0,0.0,0.0,0.0,0.0,0.0,0.0,0.0,0.0,0.0,0.0,0.0,0.0,0.0,0.0,0.0,0.0,0.0,0.0,0.0,0.0,0.0,0.0,0.0,0.0,0.0,0.0,0.0,0.0,0.0,0.0,0.0,0.0,0.0,0.0,0.0,0.0,0.0,0.0,0.0,0.0,0.0,0.0,0.0,0.0,0.0,0.0,0.0,0.0,0.0,0.0,0.0,0.0,0.0,0.0,0.0,0.0,0.0,0.0,0.0,0.0,0.0,0.0,0.0,0.0,0.0,0.0,0.0,0.0,0.0,0.0,0.0,0.0,0.0,0.0,0.0,0.0,0.0,0.0,0.0,0.0,0.0,0.0,0.0,0.0,0.0,0.0,0.0,0.0,0.0,0.0,0.0,0.0,0.0,0.0,0.0,0.0,0.0,0.0,0.0,0.0,0.0,0.0,0.0,0.0,0.0,0.0,0.0,0.0,0.0,0.0,0.0,0.0,0.0,0.0,0.0,0.0,0.0,0.0,0.0,0.0,0.0,0.0,0.0,0.0,0.0,0.0,0.0,0.0,0.0,0.0,0.0,0.0,0.0,0.0,0.0,0.0,0.0,0.0,0.0,0.0,0.0,0.0,0.0,0.0,0.0,0.0,0.0,0.0,0.0,0.0,0.0,0.0,0.0,0.0,0.0,0.0,0.0,0.0,0.0,0.0,0.0,0.0,0.0,0.0,0.0,0.0,0.0,0.0,0.0,0.0,0.0,0.0,0.0,0.0,0.0,0.0,0.0,0.0,0.0,0.0,0.0,0.0,0.0,0.0,0.0,0.0,0.0,0.0,0.0,0.0,0.0,0.0,0.0,0.0,0.0,0.0,0.0,0.0,0.0,0.0,0.0,0.0,0.0,0.0,0.0,0.0,0.0,0.0,0.0,0.0,0.0,0.0,0.0,0.0,0.0,0.0,0.0,0.0,0.0,0.0,0.0,0.0,0.0,0.0,0.0,0.0,0.0,0.0,0.0,0.0,0.0,0.0,0.0,0.0,0.0,0.0,0.0,0.0,0.0,0.0,0.0,0.0,0.0,0.0,0.0,0.0,0.0,0.0,0.0,0.0,0.0,0.0,0.0,0.0,0.0,0.0,0.0,0.0,0.0,0.0,0.0,0.0,0.0,0.0,0.0,0.0,0.0,0.0,0.0,0.0,0.0,0.0,0.0,0.0,0.0,0.0,0.0,0.0,0.0,0.0,0.0,0.0,0.0,0.0,0.0,0.0,0.0,0.0,0.0,0.0,0.0,0.0,0.0,0.0,0.0,0.0,0.0,0.0,0.0,0.0,0.0,0.0,0.0,0.0,0.0,0.0,0.0,0.0,0.0,0.0,0.0,0.0,0.0,0.0,0.0,0.0,0.0,0.0,0.0,0.0,0.0,0.0,0.0,0.0,0.0,0.0,0.0,0.0,0.0,0.0,0.0,0.0,0.0,0.0,0.0,0.0,0.0,0.0,0.0,0.0,0.0,0.0,0.0,0.0,0.0,0.0,0.0,0.0,0.0,0.0,0.0,0.0,0.0,0.0,0.0,0.0,0.0,0.0,0.0,0.0,0.0,0.0,0.0,0.0,0.0,0.0,0.0,0.0,0.0,0.0,0.0,0.0,0.0,0.0,0.0,0.0,0.0,0.0,0.0,0.0,0.0,0.0,0.0,0.0,0.0,0.0,0.0,0.0,0.0,0.0,0.0,0.0,0.0,0.0,0.0,0.0,0.0,0.0,0.0,0.0,0.0,0.0,0.0,0.0,0.0,0.0,0.0,0.0,0.0,0.0,0.0,0.0,0.0,0.0,0.0,0.0,0.0,0.0,0.0,0.0,0.0,0.0,0.0,0.0,0.0,0.0,0.0,0.0,0.0,0.0,0.0,0.0,0.0,0.0,0.0,0.0,0.0,0.0,0.0,0.0,0.0,0.0,0.0,0.0,0.0,0.0,0.0,0.0,0.0,0.0,0.0,0.0,0.0,0.0,0.0,0.0,0.0,0.0,0.0,0.0,0.0,0.0,0.0,0.0,0.0,0.0,0.0,0.0,0.0,0.0,0.0,0.0,0.0,0.0,0.0,0.0,0.0,0.0,0.0,0.0,0.0,0.0,0.0,0.0,0.0,0.0,0.0,0.0,0.0,0.0,0.0,0.0,0.0,0.0,0.0,0.0,0.0,0.0,0.0,0.0,0.0,0.0,0.0,0.0,0.0,0.0,0.0,0.0,0.0,0.0,0.0,0.0,0.0,0.0,0.0,0.0,0.0,0.0,0.0,0.0,0.0,0.0,0.0,0.0,0.0,0.0,0.0,0.0,0.0,0.0,0.0,0.0,0.0,0.0,0.0,0.0,0.0,0.0,0.0,0.0,0.0,0.0,0.0,0.0,0.0,0.0,0.0,0.0,0.0,0.0,0.0,0.0,0.0,0.0,0.0,0.0,0.0,0.0,0.0,0.0,0.0,0.0,0.0,0.0,0.0,0.0,0.0,0.0,0.0,0.0,0.0,0.0,0.0,0.0,0.0,0.0,0.0,0.0,0.0,0.0,0.0,0.0,0.0,0.0,0.0,0.0,0.0,0.0,0.0,0.0,0.0,0.0,0.0,0.0,0.0,0.0,0.0,0.0,0.0,0.0,0.0,0.0,0.0,0.0,0.0,0.0,0.0,0.0,0.0,0.0,0.0,0.0,0.0,0.0,0.0,0.0,0.0,0.0,0.0,0.0,0.0,0.0,0.0,0.0,0.0,0.0,0.0,0.0,0.0,0.0,0.0,0.0,0.0,0.0,0.0,0.0,0.0,0.0,0.0,0.0,0.0,0.0,0.0,0.0,0.0,0.0,0.0,0.0,0.0,0.0,0.0,0.0,0.0,0.0,0.0,0.0,0.0,0.0,0.0,0.0,0.0,0.0,0.0,0.0,0.0,0.0,0.0,0.0,0.0,0.0,0.0,0.0,0.0,0.0,0.0,0.0,0.0,0.0,0.0,0.0,0.0,0.0,0.0,0.0,0.0,0.0,0.0,0.0,0.0,0.0,0.0,0.0,0.0,0.0,0.0,0.0,0.0,0.0,0.0,0.0,0.0,0.0,0.0,0.0,0.0,0.0,0.0,0.0,0.0,0.0,0.0,0.0,0.0,0.0,0.0,0.0,0.0,0.0,0.0,0.0,0.0,0.0,0.0,0.0,0.0,0.0,0.0,0.0,0.0,0.0,0.0,0.0,0.0,0.0,0.0,0.0,0.0,0.0,0.0,0.0,0.0,0.0,0.0,0.0,0.0,0.0,0.0,0.0,0.0,0.0,0.0,0.0,0.0,0.0,0.0,0.0,0.0,0.0,0.0,0.0,0.0,0.0,0.0,0.0,0.0,0.0,0.0,0.0,0.0,0.0,0.0,0.0,0.0,0.0,0.0,0.0,0.0,0.0,0.0,0.0,0.0,0.0,0.0,0.0,0.0,0.0,0.0,0.0,0.0,0.0,0.0,0.0,0.0,0.0,0.0,0.0,0.0,0.0,0.0,0.0,0.0,0.0,0.0,0.0,0.0,0.0,0.0,0.0,0.0,0.0,0.0,0.0,0.0,0.0,0.0,0.0,0.0,0.0,0.0,0.0,0.0,0.0,0.0,0.0,0.0,0.0,0.0,0.0,0.0,0.0,0.0,0.0,0.0,0.0,0.0,0.0,0.0,0.0,0.0,0.0,0.0,0.0,0.0,0.0,0.0,0.0,0.0,0.0,0.0,0.0,0.0,0.0,0.0,0.0,0.0,0.0,0.0,0.0,0.0,0.0,0.0,0.0,0.0,0.0,0.0,0.0,0.0,0.0,0.0,0.0,0.0,0.0,0.0,0.0,0.0,0.0,0.0,0.0,0.0,0.0,0.0,0.0,-1.059,0.0,0.0,0.0,0.0,0.0,0.0,0.0,0.0,0.0,0.0,0.0,0.0,0.0,0.0,0.0,0.0,0.0,0.0,0.0,0.0,0.0,0.0,0.0,0.0,-1.0462,-1.0558,-1.0133,-1.0481,-1.0558,-1.0133,0.0,0.0,0.0,0.0,0.0,-1.0094,-1.0094,-1.0519,-1.1351,-1.1793,-1.2639,-1.383,-1.2917,-1.2252,-1.1798,0.0,0.0,0.0,0.0,0.0,0.0,0.0,0.0,0.0,0.0,0.0,0.0,0.0,0.0,0.0,0.0,0.0,0.0,0.0,0.0,0.0,0.0,0.0,0.0,0.0,0.0,0.0,0.0,0.0,0.0,0.0,0.0,0.0,0.0,0.0,0.0,0.0,0.0,0.0,0.0,0.0,0.0,0.0,0.0,0.0,0.0,0.0,0.0,0.0,0.0,0.0,0.0,0.0,0.0,0.0,0.0,0.0,0.0,0.0,0.0,0.0,0.0,0.0,0.0,0.0,0.0,0.0,0.0,0.0,0.0,0.0,-1.1376,0.0,0.0,0.0,0.0,0.0,0.0,0.0,0.0,0.0,0.0,0.0,0.0,0.0,0.0,0.0,0.0,0.0,0.0,0.0,0.0,0.0,-1.0164,-1.0316,-1.0972,-1.1239,-1.0806,-1.1291,-1.1312,-1.0596,-1.0404,0.0,0.0,0.0,-1.0094,-1.0094,-1.0404,-1.1254,-1.2702,-1.3299,-1.4874,-1.735,-1.6481,-1.5785,-1.5167,-1.3701,0.0,0.0,0.0,0.0,0.0,0.0,0.0,0.0,0.0,0.0,0.0,0.0,0.0,0.0,0.0,0.0,0.0,0.0,0.0,0.0,0.0,0.0,0.0,0.0,0.0,0.0,0.0,0.0,0.0,0.0,0.0,0.0,0.0,0.0,0.0,0.0,0.0,0.0,0.0,0.0,0.0,0.0,0.0,0.0,0.0,0.0,0.0,0.0,0.0,0.0,0.0,0.0,0.0,0.0,0.0,0.0,0.0,0.0,0.0,0.0,0.0,0.0,0.0,-1.5697,-1.6086,-1.5845,-1.6011,-1.6419,-1.689,-1.4757,-1.363,-1.3229,-1.2346,0.0,0.0,0.0,0.0,0.0,0.0,0.0,0.0,0.0,0.0,0.0,0.0,0.0,0.0,0.0,0.0,0.0,0.0,0.0,-1.0457,-1.1142,-1.1333,-1.1937,-1.3286,-1.2868,-1.2488,-1.2353,-1.1658,0.0,0.0,-1.0094,-1.0094,-1.0094,-1.1581,-1.2469,-1.2702,-1.5624,-1.8334,-2.0812,-2.0,-1.9942,-2.0327,-1.6545,-1.5171,-1.5587,0.0,0.0,0.0,0.0,0.0,0.0,0.0,0.0,0.0,0.0,0.0,0.0,0.0,0.0,0.0,0.0,0.0,0.0,0.0,0.0,0.0,0.0,0.0,0.0,0.0,0.0,0.0,0.0,0.0,0.0,0.0,0.0,0.0,0.0,0.0,0.0,0.0,0.0,0.0,0.0,0.0,-1.0875,-1.1691,0.0,0.0,0.0,0.0,0.0,0.0,0.0,0.0,0.0,0.0,0.0,0.0,0.0,-1.4717,-1.4796,-1.6747,-1.7401,-1.6798,-1.8892,-1.9241,-1.8021,-1.8778,-1.923,-1.9416,-1.8961,0.0,-1.4748,-1.3865,0.0,0.0,0.0,0.0,0.0,0.0,0.0,0.0,0.0,0.0,0.0,0.0,0.0,0.0,0.0,0.0,0.0,0.0,0.0,0.0,0.0,-1.2983,-1.3841,-1.4618,-1.4777,-1.443,-1.3498,-1.2603,-1.1754,-1.0914,-1.0845,-1.0829,-1.0829,-1.25,-1.4327,-1.6231,-1.9158,-2.1393,-2.2932,-2.21,-2.2139,-2.2855,-2.0519,-1.8593,-1.7013,-1.5383,0.0,0.0,0.0,0.0,0.0,0.0,0.0,0.0,0.0,0.0,0.0,0.0,0.0,0.0,0.0,0.0,0.0,0.0,0.0,0.0,0.0,0.0,0.0,0.0,0.0,0.0,0.0,0.0,0.0,0.0,0.0,0.0,0.0,0.0,0.0,0.0,0.0,0.0,0.0,-1.1063,-1.1709,-1.2058,-1.2191,-1.2076,0.0,0.0,0.0,0.0,0.0,0.0,0.0,0.0,0.0,-1.6026,-1.7251,-1.787,-1.7799,-1.9069,-1.9604,-1.9418,-2.0714,-2.1032,-2.0488,-2.0789,-2.1216,-2.1648,-2.0629,-1.9692,-1.8716,-1.6703,-1.5465,-1.4708,0.0,0.0,0.0,0.0,-1.3419,-1.3414,0.0,0.0,0.0,0.0,0.0,0.0,0.0,0.0,0.0,0.0,0.0,0.0,-1.3345,-1.4923,-1.5998,-1.6245,-1.6831,-1.6577,-1.5082,-1.397,-1.3,-1.2187,-1.1878,-1.1826,-1.2041,-1.4115,-1.6977,-2.0611,-2.2504,-2.4009,-2.5048,-2.4182,-2.4125,-2.4702,-2.3836,-2.1912,-1.9238,-1.7705,-1.6057,0.0,0.0,0.0,0.0,0.0,0.0,0.0,0.0,0.0,0.0,0.0,0.0,0.0,0.0,0.0,0.0,0.0,0.0,0.0,0.0,0.0,0.0,0.0,0.0,0.0,0.0,0.0,0.0,0.0,0.0,0.0,0.0,0.0,0.0,0.0,0.0,0.0,0.0,-1.2388,-1.3013,-1.3013,-1.3917,-1.4046,0.0,0.0,0.0,0.0,0.0,0.0,-1.6812,-1.7446,-1.7993,-1.8476,-1.9844,-2.0507,-2.041,-2.1029,-2.146,-2.1679,-2.207,-2.2318,-2.241,-2.2341,-2.2653,-2.3134,-2.1873,-2.1657,-2.1966,-1.9132,-1.7673,-1.708,-1.5749,-1.5256,-1.5358,-1.5791,-1.5666,-1.5374,0.0,0.0,0.0,0.0,0.0,0.0,0.0,0.0,0.0,0.0,0.0,-1.3387,-1.5078,-1.6753,-1.8068,-1.8833,-1.8998,-1.8671,0.0,0.0,-1.4788,-1.3903,-1.3073,-1.2998,-1.3767,-1.7045,-2.0796,-2.4981,-2.5115,-2.6038,-2.7684,-2.6813,-2.6428,-2.6447,-2.5558,-2.4659,-2.3552,-2.0269,-1.9239,-1.945,0.0,0.0,0.0,0.0,0.0,0.0,0.0,0.0,0.0,0.0,0.0,0.0,0.0,0.0,0.0,0.0,0.0,0.0,0.0,0.0,0.0,0.0,0.0,0.0,0.0,0.0,0.0,0.0,0.0,0.0,0.0,0.0,0.0,0.0,0.0,0.0,0.0,0.0,0.0,-1.5515,-1.6903,0.0,0.0,0.0,0.0,-1.6725,-1.7465,-1.8543,-1.999,-2.0109,-2.0289,-2.0625,-2.1398,-2.1814,-2.1803,-2.2459,-2.2935,-2.3177,-2.323,-2.3218,-2.323,-2.3365,-2.3429,-2.3482,-2.3393,-2.3306,-2.3018,-2.0315,-1.9302,-1.9363,-1.8583,-1.8408,-1.8538,-1.8396,-1.8589,-1.8914,0.0,0.0,0.0,0.0,0.0,-1.0305,-1.0304,-1.0285,-1.0383,-1.0715,-1.2441,-1.4308,-1.6055,-1.8193,-2.0085,-2.1558,-2.119,-2.0508,-1.963,-1.7456,-1.6044,-1.5691,-1.5321,-1.629,-1.8731,-2.0527,-2.2716,-2.5308,-2.5865,-2.6736,-2.7895,-2.7582,-2.7448,-2.7409,-2.7101,-2.6505,-2.5524,-2.2658,-2.0957,-1.9976,-1.7302,-1.535,0.0,0.0,0.0,0.0,0.0,0.0,0.0,0.0,0.0,0.0,0.0,0.0,0.0,0.0,0.0,0.0,0.0,0.0,0.0,0.0,0.0,0.0,0.0,0.0,0.0,0.0,0.0,0.0,0.0,0.0,0.0,0.0,0.0,0.0,0.0,0.0,0.0,-1.7957,-1.8977,0.0,-1.7711,-1.8585,-1.9219,-1.9219,-2.0005,-2.0934,-2.1972,-2.2045,-2.2205,-2.2586,-2.2868,-2.2892,-2.2668,-2.2813,-2.2995,-2.318,-2.3008,-2.297,-2.3045,-2.299,-2.2995,-2.2995,-2.2995,-2.3008,-2.2975,-2.2019,-2.1394,-2.1002,-2.0265,-2.0079,-2.0192,-2.004,-2.0146,-2.0291,0.0,0.0,0.0,0.0,-1.0259,-1.0305,-1.0306,-1.0308,-1.0602,-1.1478,-1.3305,-1.5431,-1.7762,-1.9983,-2.1784,-2.2992,-2.2563,-2.1879,-2.1021,-1.8842,-1.7548,-1.7474,-1.7677,-1.922,-2.2316,-2.3216,-2.462,-2.6577,-2.7159,-2.789,-2.8736,-2.8429,-2.8299,-2.8299,-2.803,-2.7582,-2.6909,-2.4928,-2.3096,-2.1353,-1.9586,-1.7996,-1.6457,0.0,0.0,0.0,0.0,0.0,0.0,0.0,0.0,0.0,0.0,0.0,0.0,0.0,0.0,0.0,0.0,0.0,0.0,0.0,0.0,0.0,0.0,0.0,0.0,0.0,0.0,0.0,0.0,0.0,0.0,0.0,0.0,0.0,0.0,0.0,-1.9436,-1.9675,-2.0914,-2.1208,-1.984,-2.0933,-2.1648,-2.1355,-2.2134,-2.2832,-2.3382,-2.3391,-2.3487,-2.3664,-2.3671,-2.3518,-2.3188,-2.3089,-2.3082,-2.3168,-2.2944,-2.2881,-2.2952,-2.2881,-2.2842,-2.2842,-2.2842,-2.2868,-2.2906,-2.2906,-2.2618,-2.2127,-2.1785,-2.1661,-2.1654,-2.1586,-2.1459,-2.1264,0.0,0.0,0.0,-1.0207,-1.0259,-1.0307,-1.0292,-1.0292,-1.1209,-1.3725,-1.4838,-1.6712,-2.0184,-2.2057,-2.3072,-2.3091,-2.3072,-2.272,-2.1958,-2.028,-1.9297,-1.9278,-2.0038,-2.1617,-2.4129,-2.4966,-2.6601,-2.9107,-2.9107,-2.9544,-3.0385,-2.9544,-2.9146,-2.9107,-2.8338,-2.7953,-2.7876,-2.7044,-2.5736,-2.4067,-2.223,-2.0952,-1.9977,0.0,0.0,0.0,0.0,0.0,0.0,0.0,0.0,0.0,0.0,0.0,0.0,0.0,0.0,0.0,0.0,0.0,0.0,0.0,0.0,0.0,0.0,0.0,0.0,0.0,0.0,0.0,0.0,0.0,0.0,0.0,0.0,0.0,-1.8225,-2.0307,-2.1537,-2.0713,-2.274,-2.3254,-2.0859,-2.2795,-2.3878,-2.3098,-2.3768,-2.419,-2.419,-2.419,-2.4084,-2.3806,-2.3795,-2.366,-2.3392,-2.3313,-2.3277,-2.3277,-2.3156,-2.3095,-2.3095,-2.3095,-2.3095,-2.3095,-2.3095,-2.302,-2.2906,-2.2906,-2.2829,-2.2751,-2.3144,-2.3175,-2.2993,-2.3022,-2.259,-2.1998,0.0,0.0,-1.0203,-1.0207,-1.0213,-1.0239,-1.0287,-1.0308,-1.101,-1.2963,-1.4506,-1.6497,-1.9344,-2.1197,-2.2466,-2.3052,-2.2564,-2.2134,-2.1919,0.0,-1.9812,-2.0968,-2.2878,-2.4543,-2.587,-2.6755,-2.7813,-2.9107,-2.9107,-2.9544,-3.0385,-3.0154,-3.0038,-3.0019,-2.9808,-2.9352,-2.8742,-2.8511,-2.7818,-2.6645,-2.4298,-2.2786,-2.1713,0.0,0.0,0.0,0.0,0.0,0.0,0.0,0.0,0.0,0.0,0.0,0.0,0.0,0.0,0.0,0.0,0.0,0.0,0.0,0.0,0.0,0.0,0.0,0.0,0.0,0.0,0.0,0.0,0.0,0.0,0.0,0.0,-2.0784,-2.0784,-2.1877,-2.2795,-2.3144,-2.3786,-2.3933,-2.3254,-2.3804,-2.4116,-2.3896,-2.4061,-2.419,-2.419,-2.419,-2.4084,-2.3806,-2.3599,-2.3398,-2.3182,-2.2977,-2.285,-2.285,-2.2829,-2.2816,-2.2816,-2.2816,-2.2816,-2.2816,-2.2816,-2.2838,-2.2906,-2.2906,-2.2944,-2.2995,-2.299,-2.3045,-2.3089,-2.3175,-2.2973,-2.2611,0.0,-1.02,-1.0192,-1.0203,-1.0207,-1.0212,-1.0243,-1.0599,-1.1595,-1.3661,-1.5109,-1.7082,-2.0065,-2.1275,-2.2193,-2.3033,-2.2368,-2.19,-2.19,-2.0933,-2.1048,-2.2633,-2.44,-2.6073,-2.7601,-2.8145,-2.8819,-2.964,-2.964,-2.991,-3.0404,-3.0404,-3.0404,-3.0404,-3.0404,-3.0115,-2.9621,-2.9261,-2.8838,-2.8217,-2.5959,-2.4752,-2.4074,-2.2329,-2.1053,-2.003,-1.858,-1.7892,-1.7553,-1.6645,0.0,0.0,0.0,0.0,0.0,0.0,0.0,0.0,0.0,0.0,0.0,0.0,0.0,0.0,0.0,0.0,0.0,0.0,0.0,0.0,0.0,0.0,0.0,0.0,-2.1143,-2.2409,-2.2767,-2.3217,-2.3676,-2.4135,-2.419,-2.419,-2.419,-2.4511,-2.4695,-2.4695,-2.5016,-2.5217,-2.5217,-2.4887,-2.4636,-2.4478,-2.418,-2.3772,-2.3224,-2.3287,-2.3128,-2.2699,-2.2699,-2.2699,-2.2699,-2.2699,-2.2699,0.0,-2.2699,-2.2751,-2.2816,-2.2816,-2.2868,0.0,0.0,0.0,0.0,0.0,-2.2777,-2.2527,0.0,-1.0199,-1.0191,-1.0193,-1.0199,-1.0204,-1.0196,-1.091,-1.2396,-1.5059,0.0,-1.788,-2.1373,-2.1705,-2.1978,-2.274,-2.2173,-2.1781,0.0,0.0,0.0,-2.4184,-2.5262,-2.6843,-2.905,-2.9204,-2.9621,-3.0404,-3.0404,-3.0404,-3.0404,-3.0404,-3.0404,-3.0404,-3.0404,-3.0404,-3.0346,-2.9563,-2.9242,-2.9096,-2.7266,-2.6552,-2.6365,-2.4612,-2.3473,-2.2671,-2.1594,-2.0301,-1.9014,-1.8092,0.0,0.0,0.0,0.0,0.0,0.0,0.0,0.0,0.0,0.0,0.0,0.0,0.0,0.0,0.0,0.0,0.0,0.0,0.0,0.0,0.0,0.0,0.0,0.0,-2.274,-2.3547,-2.4355,-2.4465,-2.4392,-2.4226,-2.4281,-2.4337,-2.4337,-2.5062,-2.554,-2.554,-2.619,-2.6602,-2.6602,0.0,0.0,0.0,0.0,-2.4547,-2.3613,-2.4061,-2.3802,-2.2819,-2.2819,-2.2785,-2.2699,-2.2699,-2.2699,-2.2699,-2.2699,-2.2699,-2.2699,-2.2699,-2.2699,-2.2725,-2.2982,-2.2977,-2.2803,-2.2573,-2.2371,-2.2209,0.0,-1.0206,-1.0197,-1.0207,-1.0192,-1.0192,-1.021,-1.0349,-1.1654,-1.4979,-1.5548,-1.6976,-2.0476,-2.0847,-2.0905,-2.1062,-2.0945,-2.1131,0.0,0.0,-2.4158,-2.512,-2.7234,-2.8604,-2.9088,-2.9794,-3.0231,-3.0404,-3.0404,-3.0404,-3.0404,-3.0404,-3.0404,-3.0404,-3.0404,-3.0404,-3.0385,-3.0212,-3.0154,-2.9994,-2.8109,-2.6963,-2.6237,-2.5171,-2.4534,-2.4099,-2.3291,-2.3075,-2.3043,-2.2224,-2.1411,-2.0569,-1.9775,0.0,0.0,0.0,0.0,0.0,0.0,0.0,0.0,0.0,0.0,0.0,0.0,0.0,0.0,0.0,0.0,0.0,0.0,0.0,0.0,-2.3446,-2.442,-2.5227,-2.6025,-2.6135,-2.5658,-2.4355,-2.4768,-2.5172,-2.5172,-2.5897,-2.6374,-2.6374,-2.6521,-2.6602,-2.6602,-2.6447,-2.626,-2.605,-2.5769,-2.5405,-2.4936,-2.4872,-2.4427,-2.3595,0.0,0.0,-2.2699,-2.2699,-2.2699,-2.2699,-2.2699,-2.2699,-2.2699,-2.2699,-2.2699,-2.2712,-2.2881,-2.2977,-2.3028,-2.2973,-2.2935,-2.2846,-1.0206,-1.0193,-1.0204,-1.0193,-1.0197,-1.0194,-1.0205,-1.0563,-1.1789,-1.4362,-1.5102,-1.6383,-1.896,-1.9281,-1.9305,-1.9305,-1.9667,0.0,0.0,-2.3256,-2.4699,-2.5947,-2.7988,-2.93,-2.9737,-3.0173,-3.0404,-3.0404,-3.0404,-3.0404,-3.0404,-3.0404,-3.0404,-3.0404,-3.0404,-3.0404,-3.0404,-3.0404,-3.0349,-3.0126,-2.8712,-2.759,-2.6612,-2.5408,-2.4851,-2.464,-2.4204,-2.4206,-2.4279,-2.3423,-2.2869,-2.2405,-2.1607,-1.9974,-1.8016,0.0,0.0,0.0,0.0,0.0,0.0,0.0,0.0,0.0,0.0,0.0,0.0,0.0,0.0,-1.985,0.0,0.0,-2.3584,-2.5203,-2.5782,-2.6187,-2.6591,-2.6633,-2.63,-2.5493,-2.575,-2.5988,-2.5988,-2.6722,-2.72,-2.72,-2.7574,-2.7794,-2.7794,-2.742,-2.7145,-2.6993,-2.6742,-2.6331,-2.5752,-2.577,-2.5404,-2.4603,-2.4455,-2.4215,-2.3836,-2.3836,-2.3629,-2.325,-2.325,-2.3043,-2.2699,-2.2699,-2.2699,-2.2712,-2.2777,-2.2881,-2.302,-2.3082,-2.302,-2.285,-1.0173,-1.0187,-1.017,-1.0177,-1.0187,-1.0205,-1.0188,-1.0781,-1.1845,-1.3537,-1.4415,-1.5589,-1.7464,-1.7558,-1.7566,0.0,0.0,0.0,0.0,-2.3366,-2.5106,-2.678,-2.8467,-2.9679,-3.0385,-3.0404,-3.0404,-3.0404,-3.0404,-3.0404,-3.0404,-3.0404,-3.0404,-3.0404,-3.0404,-3.0404,-3.0404,-3.0361,-3.0248,-2.9999,-2.8871,-2.7919,-2.7031,-2.5431,-2.4772,-2.47,-2.4629,-2.4425,-2.4133,-2.3596,-2.3312,-2.3107,-2.2621,-2.1469,-1.9973,-1.8302,-1.725,0.0,0.0,0.0,0.0,0.0,0.0,0.0,0.0,0.0,-1.9235,-2.0338,-2.1094,-2.2201,-2.4312,-2.4745,-2.5262,-2.6718,-2.6938,-2.6982,-2.713,-2.7114,-2.706,-2.706,-2.6943,-2.6833,-2.6833,-2.7567,-2.8026,-2.8026,-2.862,-2.9005,-2.9005,-2.8393,-2.8003,-2.7958,-2.7677,-2.7211,-2.6507,-2.6649,-2.6331,-2.5526,-2.5325,-2.5143,-2.5005,-2.5005,-2.466,-2.4026,-2.4026,-2.3698,-2.3129,-2.2974,-2.2905,-2.2905,-2.275,-2.2764,-2.2863,-2.2965,-2.2863,-2.2642,0.0,-1.0119,-1.0104,-1.0117,-1.0169,-1.0177,-1.0111,-1.0238,-1.0945,-1.2625,-1.2944,-1.3983,-1.6553,-1.6147,-1.5996,0.0,0.0,0.0,-2.1582,-2.3936,-2.6008,-2.7684,-2.9371,-3.0308,-3.0404,-3.0404,-3.0404,-3.0404,-3.0404,-3.0404,-3.0404,-3.0404,-3.0404,-3.0404,-3.0404,-3.0404,-3.0398,-3.0202,-3.0122,-2.9935,-2.811,-2.7303,-2.7006,-2.5215,-2.4498,-2.4455,-2.4566,-2.3979,-2.3269,-2.3943,-2.3702,-2.3221,-2.3922,-2.3521,-2.2479,-2.0864,0.0,-1.8822,-1.7145,-1.6811,-1.7312,-1.8803,-1.8673,-1.9087,0.0,0.0,-2.2111,-2.4358,-2.4884,-2.5272,-2.6316,-2.6519,-2.6806,-2.7701,-2.7796,-2.8021,-2.8721,-2.8775,-2.873,-2.873,-2.8099,-2.7658,-2.7658,-2.8393,-2.8877,-2.8877,-2.895,-2.9005,-2.9005,-2.8913,-2.8765,-2.8512,-2.8177,-2.786,-2.7539,-2.7339,-2.6826,-2.6016,-2.6003,-2.5628,-2.5005,-2.5005,-2.4954,-2.4867,-2.4867,-2.4833,-2.4695,-2.3974,-2.3681,-2.3612,-2.2957,-2.2712,-2.2725,-2.2664,-2.2638,-2.2558,0.0,-1.01,-1.0096,-1.0102,-1.0119,-1.0122,-1.0098,-1.0111,-1.0571,-1.1781,-1.1981,-1.2611,-1.4192,-1.453,-1.4992,-1.5874,0.0,0.0,-2.1497,-2.3535,-2.562,-2.7799,-2.9025,-2.989,-3.0385,-3.0404,-3.0404,-3.0404,-3.0404,-3.0404,-3.0404,-3.0404,-3.0404,-3.0404,-3.0404,-3.0323,-3.0209,-3.0136,-2.9981,-2.9696,-2.8409,-2.7555,-2.6878,-2.566,-2.4585,-2.3697,-2.3722,-2.3413,0.0,0.0,-2.2642,-2.2481,-2.2885,-2.2454,-2.1588,-2.0437,-2.0203,0.0,-2.0585,-2.066,0.0,0.0,-2.2152,-2.2924,-2.4134,-2.4588,-2.5033,-2.6048,-2.626,-2.65,-2.7342,-2.7528,-2.7826,0.0,-2.8709,-2.8758,-2.9119,-2.8662,-2.8301,-2.8301,-2.7585,-2.7475,-2.84,-2.8803,-2.9005,-2.9005,-2.9005,-2.9005,-2.9005,-2.9005,-2.8959,-2.8846,-2.8551,-2.8339,-2.8219,-2.776,-2.7367,-2.7036,-2.6874,-2.6644,-2.6333,-2.6333,-2.6074,-2.5626,-2.5195,-2.5005,-2.4971,-2.4629,-2.4215,-2.3767,-2.3457,-2.3078,-2.2685,-2.2538,-2.2484,-2.2429,0.0,-1.01,-1.0094,-1.0094,-1.0094,-1.0094,-1.0094,-1.0094,-1.0327,-1.0964,-1.1077,-1.1334,-1.1942,-1.324,-1.4237,-1.4642,0.0,0.0,0.0,-2.2917,-2.501,-2.7082,-2.8203,-2.9159,-3.0019,-3.0038,-3.0154,-3.0404,-3.0404,-3.0404,-3.0404,-3.0404,-3.0404,-3.0404,-3.0404,-3.0292,-3.0089,-2.9818,-2.9542,-2.9176,-2.808,-2.7214,-2.6442,-2.542,-2.4251,-2.3186,-2.3154,-2.2668,0.0,0.0,-2.1353,-2.1264,-2.1544,-2.1408,-2.1023,-2.0437,-2.0827,-2.1662,-2.2609,0.0,0.0,-2.3564,-2.4631,-2.5597,-2.518,-2.5987,-2.6829,-2.6837,-2.6827,-2.7012,-2.7586,-2.7913,-2.8285,-2.8857,-2.9092,-2.9189,-2.9167,-2.8379,-2.7798,-2.7798,-2.709,-2.7134,-2.8528,-2.8675,-2.8767,-2.8987,-2.9005,-2.9005,-2.9005,-2.9005,-2.897,-2.8893,-2.8614,-2.843,-2.8352,-2.7847,-2.7585,-2.7585,-2.739,-2.7299,-2.7299,-2.7299,-2.6971,-2.6402,-2.5868,-2.5626,-2.5626,-2.5402,-2.4956,-2.4388,-2.3974,-2.3474,-2.2948,-2.2542,-2.2349,-2.2248,0.0,0.0,-1.0094,-1.0094,-1.0094,-1.0094,-1.0094,-1.0094,-1.0113,-1.0133,-1.0135,-1.0173,-1.0272,-1.25,-1.3702,0.0,0.0,0.0,-1.9113,-2.2277,-2.449,-2.5346,-2.7024,-2.8319,-2.9127,-2.9146,-2.9544,-3.0404,-3.0404,-3.0404,-3.0404,-3.0404,-3.0404,-3.0404,-3.0404,-3.0292,-3.0044,-2.9137,-2.8631,-2.8275,-2.6496,-2.5764,-2.555,-2.3898,-2.3242,-2.3206,-2.3206,0.0,0.0,0.0,-2.0112,-1.9619,-2.0462,-2.1303,0.0,-2.1933,-2.2497,0.0,0.0,0.0,-2.4462,-2.4462,-2.5094,-2.5912,-2.6646,-2.6869,-2.6907,-2.6907,-2.6907,-2.6907,-2.6925,-2.7575,-2.8094,-2.8042,-2.8685,-2.9167,-2.91,-2.8346,-2.7798,-2.7798,-2.709,-2.6924,0.0,-2.7842,-2.8154,-2.895,-2.9005,-2.9005,-2.9005,-2.9005,-2.8881,-2.8614,-2.8295,-2.7978,-2.7745,-2.7434,-2.7297,-2.7297,-2.7297,-2.7299,-2.7299,-2.7299,-2.7297,-2.7247,-2.723,-2.723,-2.7161,-2.6385,-2.6042,-2.587,-2.4388,-2.3802,-2.3653,-2.2746,-2.2248,-2.1984,0.0,0.0,0.0,-1.0094,-1.0094,-1.0094,-1.0094,-1.0094,-1.0094,-1.0094,-1.0596,0.0,0.0,0.0,0.0,0.0,0.0,0.0,-1.8946,-2.0635,-2.2447,-2.4413,-2.5582,-2.6563,-2.7428,-2.8011,-2.8453,-2.8736,-2.8736,-2.8736,-2.8736,-2.8736,-2.8736,-2.8736,-2.8736,-2.8587,-2.8289,-2.7964,-2.7983,-2.8007,-2.5791,-2.5224,-2.5513,-2.3845,-2.2179,-2.0808,0.0,0.0,0.0,0.0,-1.8349,-1.8656,-1.8959,0.0,0.0,-2.1699,-2.2182,-2.2701,0.0,0.0,-2.5429,-2.5968,-2.6702,-2.7352,-2.7631,-2.7706,-2.7706,-2.7706,-2.726,-2.6907,-2.6907,-2.7072,-2.7395,-2.7921,-2.8181,-2.8522,-2.9034,-2.8346,-2.7603,-2.7071,-2.6759,0.0,0.0,0.0,0.0,-2.8932,-2.9005,-2.9005,-2.9005,-2.8834,-2.8694,-2.8601,-2.8093,-2.78,-2.7701,-2.7436,-2.7299,-2.7299,-2.7299,-2.7299,-2.7299,-2.7299,-2.7299,-2.7299,-2.7299,-2.7299,-2.7282,-2.7006,-2.6575,-2.6042,-2.5525,-2.4698,-2.3753,-2.3443,-2.2765,-2.1969,0.0,0.0,0.0,0.0,0.0,0.0,0.0,0.0,0.0,0.0,0.0,0.0,0.0,0.0,0.0,0.0,0.0,0.0,0.0,0.0,-2.1023,-2.2663,-2.3505,-2.45,-2.5678,-2.5952,-2.637,-2.6967,-2.6967,-2.6967,-2.6967,-2.6967,-2.6967,-2.6967,-2.6967,-2.6818,-2.6557,-2.6219,-2.6203,-2.6264,-2.4378,-2.3915,-2.4185,-2.252,-2.0893,0.0,0.0,0.0,0.0,-1.6875,0.0,0.0,0.0,0.0,0.0,-2.2126,-2.2858,-2.3665,-2.5271,-2.5912,-2.6312,-2.713,-2.7724,-2.8096,-2.8096,-2.8096,-2.7947,-2.7352,-2.6832,-2.6368,-2.6098,-2.6228,-2.6625,-2.7439,-2.7775,-2.822,-2.9012,-2.8397,-2.7636,-2.7129,-2.6788,0.0,0.0,0.0,0.0,-2.8932,-2.9005,-2.9005,-2.9005,-2.8743,-2.8551,-2.843,-2.7957,-2.7642,-2.7554,-2.7392,-2.7299,-2.7299,-2.7299,-2.7299,-2.7299,-2.7299,-2.7299,-2.7299,-2.7299,-2.7299,-2.7299,-2.7299,-2.7006,-2.6506,-2.6197,-2.5491,-2.456,-2.4008,-2.3227,-2.2367,0.0,0.0,0.0,0.0,0.0,0.0,0.0,0.0,0.0,0.0,0.0,0.0,0.0,0.0,0.0,0.0,0.0,0.0,0.0,0.0,0.0,-2.0173,-2.0981,-2.2216,-2.3879,-2.3182,-2.3581,-2.5173,-2.5173,-2.5173,-2.5173,-2.5173,-2.5173,-2.5173,-2.5173,-2.5102,-2.4909,-2.3999,-2.3527,-2.3259,-2.2281,-2.1885,-2.1699,-2.0055,0.0,0.0,0.0,0.0,0.0,0.0,0.0,0.0,0.0,0.0,0.0,0.0,0.0,-2.5671,-2.5745,-2.6349,-2.7167,-2.7966,-2.8133,-2.8096,-2.8096,-2.804,-2.7538,-2.5968,-2.5596,-2.5336,0.0,0.0,-2.5745,-2.6596,-2.7399,-2.8228,-2.9078,-2.8489,-2.7937,0.0,0.0,0.0,0.0,0.0,0.0,-2.895,0.0,-2.8994,-2.8982,-2.8731,-2.843,-2.8088,-2.7829,-2.7554,-2.7297,-2.7299,-2.7299,-2.7299,-2.7299,-2.7299,-2.7299,-2.7299,-2.7299,-2.7299,-2.7299,-2.7299,-2.7299,-2.7299,-2.7299,-2.7213,-2.6471,-2.6128,-2.5921,-2.4405,-2.3582,-2.308,0.0,0.0,0.0,0.0,0.0,0.0,0.0,0.0,0.0,0.0,0.0,0.0,0.0,0.0,0.0,0.0,0.0,0.0,0.0,0.0,0.0,0.0,0.0,-2.0808,-2.1254,-2.2274,0.0,0.0,0.0,-2.3447,-2.3447,-2.3447,-2.3447,-2.3447,-2.3447,-2.3367,-2.3223,-2.2885,-2.2633,-2.2367,0.0,-2.0214,-2.0084,0.0,0.0,0.0,0.0,0.0,0.0,0.0,0.0,0.0,0.0,0.0,-2.2423,0.0,0.0,-2.5076,-2.6275,-2.7185,-2.8003,-2.8858,-2.8579,-2.8096,-2.8096,-2.7167,-2.6042,-2.502,-2.4296,-2.3582,0.0,0.0,0.0,-2.5604,-2.6507,0.0,-2.8938,-2.8935,0.0,0.0,0.0,-2.8235,-2.7842,-2.8338,0.0,0.0,-2.9005,-2.8905,-2.8718,-2.8399,-2.8106,-2.7815,-2.7539,-2.7376,-2.7299,-2.7299,-2.7299,-2.7299,-2.7299,-2.7299,-2.7299,-2.7299,-2.7299,-2.7299,-2.7299,-2.7299,-2.7299,-2.7299,-2.7299,-2.7282,-2.7075,-2.6626,-2.599,-2.504,-2.4074,-2.308,0.0,0.0,0.0,0.0,0.0,0.0,0.0,0.0,0.0,0.0,0.0,0.0,0.0,0.0,0.0,0.0,0.0,0.0,0.0,0.0,0.0,0.0,0.0,-1.8792,-1.9158,-2.0085,0.0,0.0,0.0,0.0,0.0,-2.0537,-2.0525,-2.0525,-2.0491,-2.0437,-2.034,-2.0229,0.0,0.0,0.0,0.0,0.0,0.0,0.0,0.0,0.0,0.0,0.0,0.0,0.0,-2.0315,-2.2007,-2.2784,-2.3256,-2.4055,0.0,-2.5838,-2.7092,-2.804,-2.8783,-2.9266,-2.8746,-2.7929,-2.7204,-2.608,-2.4853,-2.3655,-2.3007,0.0,0.0,0.0,0.0,0.0,0.0,0.0,-2.8447,-2.8924,-2.8975,0.0,-2.9088,0.0,-2.8888,-2.9262,-2.9537,0.0,-2.9094,-2.8755,-2.8601,-2.8174,-2.7855,-2.7698,-2.7452,-2.7299,-2.7299,-2.7299,-2.7299,-2.7299,-2.7299,-2.7299,-2.7299,-2.7299,-2.7299,-2.7299,0.0,-2.7299,-2.7299,-2.7299,-2.7299,-2.7299,-2.7299,-2.7023,-2.654,-2.5781,-2.4912,-2.4004,0.0,0.0,0.0,0.0,0.0,0.0,0.0,0.0,0.0,0.0,0.0,0.0,0.0,0.0,0.0,0.0,0.0,0.0,0.0,0.0,0.0,0.0,0.0,-1.6833,0.0,0.0,0.0,0.0,0.0,0.0,0.0,0.0,0.0,0.0,0.0,0.0,0.0,0.0,0.0,0.0,0.0,0.0,0.0,0.0,0.0,0.0,0.0,0.0,0.0,0.0,-2.0997,-2.1316,-2.2887,-2.3888,-2.4667,-2.5466,-2.6275,-2.7074,-2.7873,-2.8746,-2.9359,-2.9248,-2.8579,-2.752,-2.5912,-2.4834,-2.3692,-2.2041,0.0,-2.1643,-2.1532,0.0,-2.3309,-2.4185,0.0,-2.6958,-2.7874,-2.8601,-2.9056,-2.91,-2.9749,-3.021,-3.021,-3.021,-3.021,-3.021,-2.921,-2.8576,-2.8538,-2.8,-2.7686,-2.7642,-2.7421,-2.7299,-2.7299,-2.7299,-2.7299,-2.7299,-2.7299,-2.7299,-2.7299,-2.7299,-2.7299,-2.7299,-2.7299,0.0,-2.7299,-2.7299,-2.7299,-2.7299,-2.7299,-2.7299,-2.7195,-2.6356,-2.57,-2.5045,0.0,0.0,0.0,0.0,0.0,0.0,0.0,0.0,0.0,0.0,-1.4055,-1.3747,0.0,0.0,0.0,0.0,0.0,0.0,0.0,0.0,0.0,0.0,0.0,0.0,0.0,0.0,0.0,0.0,0.0,0.0,0.0,0.0,0.0,0.0,0.0,0.0,0.0,0.0,0.0,0.0,0.0,0.0,0.0,0.0,0.0,0.0,0.0,0.0,0.0,0.0,-2.2221,-2.2943,-2.3971,-2.4388,-2.4667,-2.5466,-2.6275,-2.7074,-2.7873,-2.8746,-2.9229,-2.8505,-2.7706,-2.6684,-2.5076,-2.3535,0.0,0.0,0.0,-1.9806,-1.9063,-2.0697,0.0,-2.3282,0.0,0.0,0.0,0.0,-2.8426,0.0,0.0,0.0,0.0,0.0,0.0,0.0,0.0,-2.8482,-2.8197,-2.7886,-2.76,-2.7392,-2.7313,-2.7299,-2.7299,-2.7299,-2.7299,-2.7299,-2.7299,-2.7299,-2.7299,-2.7299,-2.7299,-2.7299,-2.7299,0.0,-2.7299,-2.7299,-2.7299,-2.7299,-2.7299,-2.7299,-2.718,-2.6136,-2.5234,-2.434,0.0,0.0,0.0,0.0,0.0,0.0,0.0,-1.3445,-1.4599,-1.6272,-1.6138,-1.5712,-1.5308,-1.5212,-1.5192,0.0,0.0,0.0,0.0,0.0,0.0,0.0,0.0,0.0,0.0,0.0,0.0,0.0,0.0,0.0,0.0,0.0,0.0,0.0,0.0,0.0,0.0,0.0,0.0,0.0,0.0,0.0,0.0,0.0,0.0,0.0,0.0,0.0,0.0,0.0,-2.1469,-2.3351,-2.4231,-2.45,-2.4667,-2.5466,-2.6275,-2.7074,-2.7873,-2.8746,-2.9192,-2.8319,-2.7501,-2.6368,-2.4296,0.0,0.0,0.0,0.0,-1.8302,-1.8302,0.0,0.0,0.0,0.0,0.0,0.0,0.0,0.0,0.0,0.0,0.0,0.0,0.0,0.0,0.0,0.0,-2.8456,-2.8129,-2.7698,-2.7436,-2.7297,-2.7299,-2.7299,-2.7299,-2.7299,-2.7299,-2.7299,-2.7299,-2.7299,-2.7299,-2.7299,-2.7299,-2.7299,-2.7299,0.0,-2.7299,-2.7299,-2.7299,-2.7299,-2.7299,-2.7185,-2.6971,-2.6466,-2.5579,-2.4481,0.0,0.0,0.0,0.0,0.0,0.0,0.0,-1.4571,-1.5811,-1.7691,-1.7944,-1.7621,-1.683,-1.5984,-1.5404,0.0,0.0,0.0,0.0,0.0,0.0,0.0,0.0,0.0,0.0,0.0,0.0,0.0,0.0,0.0,0.0,0.0,0.0,0.0,0.0,0.0,0.0,0.0,0.0,0.0,0.0,0.0,0.0,0.0,0.0,0.0,0.0,0.0,0.0,0.0,-2.0028,-2.233,-2.3376,-2.4072,-2.4667,-2.5466,-2.6275,-2.7074,-2.7873,-2.8746,-2.9155,-2.8096,-2.7371,-2.6219,-2.3555,-2.1699,0.0,0.0,0.0,-1.7096,-1.7894,0.0,0.0,0.0,0.0,0.0,0.0,0.0,0.0,0.0,0.0,0.0,0.0,0.0,0.0,0.0,0.0,0.0,-2.8034,-2.7554,-2.7299,-2.7299,-2.7299,-2.7299,-2.7299,-2.7299,-2.7299,-2.7299,-2.7299,-2.7299,-2.7299,-2.7299,-2.7299,-2.7299,-2.7299,0.0,0.0,-2.7299,-2.7299,-2.7299,-2.7299,-2.7105,-2.6791,-2.6741,-2.5933,-2.4792,0.0,0.0,0.0,0.0,0.0,0.0,0.0,-1.4418,-1.5849,-1.8364,-1.8697,-1.842,-1.7673,-1.6872,-1.6061,0.0,0.0,0.0,0.0,0.0,0.0,0.0,0.0,0.0,0.0,0.0,0.0,0.0,0.0,0.0,0.0,0.0,0.0,0.0,0.0,0.0,0.0,0.0,0.0,0.0,0.0,0.0,0.0,0.0,0.0,0.0,0.0,0.0,0.0,0.0,0.0,-1.9026,-2.0622,-2.268,-2.4667,-2.5466,0.0,0.0,-2.7873,-2.8746,-2.9006,-2.7408,-2.6944,-2.607,-2.2839,0.0,0.0,0.0,-1.6576,-1.626,-1.7059,-1.7875,0.0,0.0,0.0,0.0,0.0,0.0,0.0,0.0,0.0,0.0,0.0,0.0,0.0,0.0,0.0,0.0,-2.7757,-2.745,-2.7299,-2.7299,-2.7299,-2.7299,-2.7299,-2.7299,-2.7299,-2.7299,-2.7299,-2.7299,-2.7299,-2.7299,-2.7299,-2.7299,-2.7299,0.0,0.0,-2.7299,-2.7299,-2.7299,-2.7299,-2.7105,-2.6758,-2.6539,-2.5778,-2.4775,0.0,0.0,0.0,0.0,0.0,0.0,-1.3405,-1.4452,-1.5918,-1.8417,-1.8736,-1.8636,-1.8339,-1.7626,-1.6622,-1.5302,0.0,0.0,0.0,0.0,0.0,0.0,0.0,0.0,0.0,0.0,0.0,0.0,0.0,0.0,0.0,0.0,0.0,0.0,0.0,0.0,0.0,0.0,0.0,0.0,0.0,0.0,0.0,0.0,0.0,0.0,0.0,0.0,0.0,0.0,0.0,0.0,-1.8525,-2.0277,0.0,0.0,-2.4779,-2.5633,-2.6442,-2.726,-2.7613,-2.6461,-2.6191,-2.5439,-2.2635,0.0,0.0,-1.7448,-1.6075,-1.5425,-1.6223,-1.6638,-1.7534,0.0,-1.98,-2.0575,0.0,0.0,0.0,0.0,0.0,0.0,0.0,0.0,0.0,0.0,0.0,0.0,-2.7936,-2.7686,-2.7465,-2.7315,-2.7299,-2.7299,-2.7299,-2.7299,-2.7299,-2.7299,-2.7299,-2.7299,-2.7299,-2.7299,-2.7299,-2.7299,-2.7299,0.0,0.0,-2.7299,-2.7299,-2.7299,-2.7299,-2.699,-2.6556,-2.6435,-2.5657,-2.4547,0.0,0.0,0.0,0.0,0.0,-1.1603,-1.3427,-1.4266,-1.5571,-1.8004,-1.8322,-1.8317,-1.8326,-1.7669,-1.677,-1.5613,-1.5331,0.0,0.0,0.0,0.0,0.0,0.0,0.0,0.0,0.0,0.0,0.0,0.0,0.0,0.0,0.0,0.0,0.0,0.0,0.0,0.0,0.0,0.0,0.0,0.0,0.0,0.0,0.0,0.0,0.0,0.0,0.0,0.0,0.0,0.0,0.0,0.0,0.0,0.0,0.0,-2.3628,-2.4685,-2.5485,-2.6293,-2.6702,-2.5912,-2.5708,-2.5048,0.0,0.0,-1.9119,-1.7448,-1.5815,-1.4942,-1.5754,-1.5885,-1.6565,-1.8707,-1.876,-1.9505,-2.2271,0.0,0.0,0.0,0.0,0.0,0.0,0.0,0.0,0.0,0.0,0.0,-2.8116,-2.7858,-2.7569,-2.7315,-2.7299,-2.7299,-2.7299,-2.7299,-2.7299,-2.7299,-2.7299,-2.7299,-2.7299,-2.7299,-2.7299,-2.7299,-2.7299,0.0,0.0,-2.7299,-2.7299,-2.7299,-2.7299,-2.6925,-2.6401,-2.6401,-2.5735,-2.4693,0.0,0.0,0.0,0.0,0.0,0.0,-1.3315,-1.3702,-1.4599,-1.708,-1.7406,-1.7406,-1.7406,-1.6768,-1.6319,-1.6292,-1.5625,0.0,0.0,0.0,0.0,0.0,0.0,0.0,0.0,0.0,0.0,0.0,0.0,0.0,0.0,0.0,0.0,0.0,0.0,0.0,0.0,0.0,0.0,0.0,0.0,0.0,0.0,0.0,0.0,0.0,0.0,0.0,0.0,0.0,0.0,0.0,0.0,0.0,0.0,0.0,-2.3182,-2.4685,-2.5485,-2.6293,-2.6702,-2.5912,-2.5708,-2.5048,0.0,-2.0752,-1.9119,-1.7448,-1.5815,-1.4961,-1.5755,-1.5855,-1.6337,-1.7943,-1.8867,-1.995,-2.1578,0.0,0.0,0.0,0.0,0.0,0.0,0.0,0.0,0.0,0.0,0.0,-2.8129,-2.7858,-2.7569,-2.7315,-2.7299,-2.7299,-2.7299,-2.7299,-2.7299,-2.7299,-2.7299,-2.7299,-2.7299,-2.7299,-2.7299,0.0,0.0,0.0,0.0,-2.7299,-2.7299,-2.7299,-2.7299,-2.6925,-2.6401,-2.6401,-2.6064,-2.5387,0.0,0.0,0.0,0.0,0.0,0.0,0.0,-1.2399,-1.3449,-1.5367,-1.607,-1.657,-1.7126,-1.6539,-1.6092,-1.6083,-1.5551,0.0,0.0,0.0,0.0,0.0,0.0,0.0,0.0,0.0,-1.7506,-1.8571,-1.8765,0.0,0.0,0.0,0.0,0.0,0.0,0.0,0.0,0.0,0.0,0.0,0.0,0.0,0.0,0.0,0.0,0.0,0.0,0.0,0.0,0.0,0.0,0.0,0.0,0.0,0.0,0.0,0.0,0.0,-2.2784,-2.3359,-2.3489,-2.3229,-2.3174,-2.2672,-2.0797,-1.949,-1.8247,-1.6613,-1.5444,-1.4752,-1.4971,-1.4986,-1.5684,-1.7847,-1.8389,0.0,0.0,0.0,0.0,0.0,0.0,0.0,0.0,0.0,0.0,0.0,0.0,0.0,-2.7826,-2.7569,-2.7392,-2.7297,-2.7299,-2.7299,-2.7299,-2.7299,-2.7299,-2.7299,-2.7299,-2.7299,-2.7299,-2.7299,-2.7299,0.0,0.0,0.0,0.0,-2.7299,-2.7299,-2.7299,-2.7299,-2.6925,-2.6401,-2.6401,-2.6064,-2.5451,0.0,0.0,0.0,0.0,0.0,0.0,0.0,-1.1551,-1.2377,-1.373,-1.456,-1.533,-1.6118,-1.5812,-1.5677,-1.5972,-1.5448,0.0,0.0,0.0,0.0,0.0,0.0,0.0,0.0,-1.705,-1.7834,-1.8921,-1.9383,-1.9323,-1.8785,-1.8451,0.0,0.0,0.0,0.0,0.0,0.0,0.0,0.0,0.0,0.0,0.0,0.0,0.0,0.0,0.0,0.0,0.0,0.0,0.0,0.0,0.0,0.0,0.0,0.0,-1.7318,0.0,0.0,-2.1551,-2.1625,-2.1922,-2.1773,-2.1216,-1.9906,-1.8692,-1.7485,-1.6168,-1.5258,-1.4677,-1.4603,-1.484,-1.5642,-1.7426,-1.8177,0.0,0.0,0.0,0.0,0.0,0.0,0.0,0.0,0.0,0.0,0.0,0.0,0.0,-2.7716,-2.7452,-2.7299,-2.7299,-2.7299,-2.7299,-2.7299,-2.7299,-2.7299,-2.7299,-2.7299,-2.7299,-2.7299,-2.7299,-2.7299,0.0,0.0,0.0,0.0,-2.7299,-2.7299,-2.7299,-2.7299,-2.6925,-2.6401,-2.6401,-2.6064,-2.5484,0.0,0.0,0.0,0.0,0.0,0.0,0.0,-1.1152,-1.1465,-1.2207,-1.3004,-1.3787,-1.4531,-1.4677,-1.5034,-1.5831,0.0,0.0,0.0,0.0,0.0,0.0,0.0,0.0,0.0,-1.727,-1.8011,-1.9516,-1.9564,-1.9583,-1.9583,-1.8766,-1.7925,0.0,0.0,0.0,0.0,0.0,0.0,0.0,0.0,0.0,0.0,0.0,0.0,0.0,0.0,0.0,0.0,0.0,0.0,0.0,0.0,0.0,0.0,0.0,0.0,0.0,0.0,0.0,0.0,0.0,-2.1087,-2.0325,-1.9516,-1.8135,0.0,-1.5982,-1.5221,-1.4704,-1.4753,-1.5335,-1.6097,-1.7007,-1.8408,0.0,0.0,0.0,0.0,0.0,0.0,0.0,0.0,0.0,0.0,0.0,0.0,0.0,-2.7672,-2.7436,-2.7299,-2.7299,-2.7299,-2.7299,-2.7299,-2.7299,-2.7299,-2.7299,-2.7299,-2.7299,-2.7299,-2.7299,-2.7299,0.0,0.0,0.0,0.0,-2.7299,-2.7299,-2.7266,-2.7266,-2.6908,-2.6366,-2.6366,-2.6028,-2.5465,0.0,0.0,0.0,0.0,0.0,0.0,0.0,0.0,0.0,0.0,-1.2051,-1.2839,-1.369,-1.3802,-1.4138,0.0,0.0,0.0,0.0,0.0,0.0,0.0,0.0,0.0,0.0,-1.6827,-1.7628,-1.8618,-1.921,-1.9518,-1.9518,-1.9314,-1.8461,-1.709,-1.6904,0.0,0.0,0.0,0.0,0.0,0.0,0.0,0.0,0.0,0.0,0.0,0.0,0.0,0.0,0.0,0.0,0.0,0.0,0.0,0.0,0.0,-1.4849,-1.5127,-1.6584,0.0,-1.8005,-1.8209,-1.8117,-1.7764,0.0,-1.6465,-1.5945,-1.5152,0.0,0.0,-1.6214,-1.6097,-1.6649,0.0,0.0,0.0,0.0,0.0,0.0,0.0,0.0,0.0,0.0,0.0,0.0,0.0,0.0,-2.7615,-2.7405,-2.7329,-2.7299,-2.7299,-2.7299,-2.7299,-2.7299,-2.7299,-2.7299,-2.7299,-2.7299,-2.7299,-2.7299,-2.7299,-2.7299,0.0,0.0,0.0,-2.7299,-2.7299,-2.7153,-2.6924,-2.6924,-2.6573,-2.61,-2.61,-2.5789,-2.5275,0.0,0.0,0.0,0.0,0.0,0.0,0.0,0.0,0.0,0.0,0.0,0.0,0.0,0.0,0.0,0.0,0.0,0.0,0.0,0.0,0.0,0.0,0.0,0.0,-1.5871,-1.67,-1.7491,-1.8301,-1.9108,-1.9496,-1.9492,-1.9492,-1.885,-1.7615,-1.6885,0.0,0.0,0.0,0.0,0.0,0.0,0.0,0.0,0.0,0.0,0.0,0.0,-1.3115,0.0,-1.4095,-1.4779,-1.5103,0.0,0.0,0.0,0.0,-1.4539,-1.4601,-1.5078,-1.6374,-1.77,-1.8108,-1.7904,-1.7497,-1.7046,0.0,0.0,0.0,0.0,0.0,0.0,0.0,0.0,0.0,0.0,0.0,0.0,0.0,0.0,0.0,0.0,0.0,0.0,0.0,0.0,0.0,0.0,-2.7434,-2.7315,-2.7299,-2.7299,-2.7299,-2.7299,-2.7299,-2.7299,-2.7299,-2.7299,-2.7299,-2.7299,-2.7299,-2.7299,-2.7299,-2.7299,0.0,0.0,0.0,-2.7217,-2.7217,-2.7039,-2.6758,-2.6791,-2.647,-2.5992,-2.5901,-2.5624,-2.5198,0.0,0.0,0.0,0.0,0.0,0.0,0.0,0.0,0.0,0.0,0.0,0.0,0.0,0.0,0.0,0.0,0.0,0.0,0.0,0.0,0.0,0.0,0.0,-1.5067,-1.5865,-1.6676,-1.7478,-1.8274,-1.922,-1.9664,-1.9689,-1.9689,-1.9122,-1.8054,-1.6551,0.0,0.0,0.0,0.0,0.0,0.0,0.0,0.0,0.0,0.0,0.0,0.0,0.0,0.0,-1.376,-1.4774,-1.5368,-1.5478,0.0,0.0,0.0,0.0,0.0,-1.4792,-1.6588,-1.8465,-1.8836,-1.8552,-1.8165,-1.8029,0.0,0.0,0.0,0.0,0.0,0.0,0.0,0.0,0.0,0.0,0.0,0.0,0.0,0.0,0.0,0.0,0.0,0.0,0.0,0.0,0.0,0.0,-2.7299,-2.7299,-2.7299,-2.7299,-2.7299,-2.7299,-2.7299,-2.7299,-2.7299,-2.7299,-2.7299,-2.7299,-2.7299,-2.7299,-2.7299,-2.7282,-2.7266,0.0,0.0,-2.7086,-2.7022,-2.6841,-2.659,-2.659,-2.6279,-2.5828,-2.5663,-2.5435,-2.5051,0.0,0.0,0.0,0.0,0.0,0.0,0.0,0.0,0.0,0.0,0.0,0.0,0.0,0.0,0.0,0.0,0.0,0.0,0.0,0.0,0.0,0.0,-1.4627,-1.4984,-1.5799,-1.6596,-1.7414,-1.8227,-1.9704,-2.0449,-2.0514,-2.0514,-1.9371,-1.7238,-1.6311,-1.5423,-1.46,0.0,0.0,0.0,0.0,0.0,0.0,0.0,0.0,0.0,0.0,0.0,0.0,-1.2944,-1.3574,-1.3794,-1.4481,0.0,0.0,0.0,0.0,0.0,-1.6163,-1.781,-1.8702,-1.6835,-1.7291,-1.801,-1.7346,0.0,0.0,0.0,0.0,0.0,0.0,0.0,0.0,0.0,0.0,0.0,0.0,0.0,0.0,0.0,0.0,0.0,0.0,0.0,0.0,0.0,0.0,-2.7299,-2.7299,-2.7299,-2.7299,-2.7299,-2.7299,-2.7299,-2.7299,-2.7299,-2.7299,-2.7299,-2.7299,-2.7299,-2.7299,-2.7299,-2.7233,-2.7135,0.0,-2.7071,-2.6991,-2.6657,-2.6349,-2.6068,-2.5742,-2.5422,-2.5162,-2.5123,-2.4946,-2.4498,0.0,0.0,0.0,0.0,0.0,0.0,0.0,0.0,0.0,0.0,0.0,0.0,0.0,0.0,0.0,0.0,0.0,0.0,0.0,0.0,0.0,-1.5211,-1.5248,-1.5414,-1.5801,-1.7019,-1.8031,-1.8849,-2.0013,-2.0831,-2.1287,-2.0886,-1.9387,-1.7027,-1.6658,-1.5537,-1.3908,0.0,0.0,0.0,0.0,0.0,0.0,0.0,0.0,0.0,0.0,0.0,0.0,0.0,-1.2866,-1.3936,-1.3881,0.0,0.0,0.0,0.0,0.0,-1.5405,-1.7099,-1.8397,-1.7316,-1.8617,-2.006,-1.9684,0.0,0.0,0.0,0.0,0.0,0.0,0.0,0.0,0.0,0.0,0.0,0.0,0.0,0.0,0.0,0.0,0.0,0.0,0.0,0.0,0.0,0.0,0.0,-2.7299,-2.7299,-2.7299,-2.7299,-2.7299,-2.7299,-2.7299,-2.7299,-2.7299,-2.7299,-2.7299,-2.7299,-2.7299,-2.7217,-2.7168,-2.7069,0.0,-2.6657,-2.659,-2.619,-2.585,-2.5572,-2.5443,-2.5246,-2.4985,-2.4846,-2.4182,-2.327,0.0,0.0,0.0,0.0,0.0,0.0,0.0,0.0,0.0,0.0,0.0,0.0,0.0,0.0,0.0,0.0,0.0,0.0,0.0,0.0,-1.3927,-1.517,-1.5754,-1.6159,-1.6368,-1.7741,-1.8849,-1.9658,-2.067,-2.1385,-2.1789,-2.0852,-1.9206,-1.6989,-1.6804,-1.5452,-1.3306,-1.3503,0.0,0.0,0.0,0.0,0.0,0.0,0.0,0.0,0.0,0.0,0.0,0.0,0.0,0.0,0.0,0.0,0.0,-1.4677,-1.4493,-1.4585,-1.497,-1.6548,-1.8181,-1.8566,0.0,-2.152,-2.166,0.0,0.0,0.0,0.0,0.0,0.0,0.0,0.0,0.0,0.0,0.0,0.0,0.0,0.0,0.0,0.0,0.0,0.0,0.0,0.0,0.0,0.0,0.0,-2.7299,-2.7299,-2.7299,-2.7299,-2.7299,-2.7299,-2.7299,-2.7299,-2.7299,-2.7299,-2.7266,-2.725,-2.725,-2.7136,-2.7022,-2.6891,-2.6487,-2.6226,-2.6067,-2.5684,-2.5365,-2.5118,-2.5153,-2.4918,-2.4575,-2.4376,-2.3347,-2.2074,0.0,0.0,0.0,0.0,0.0,0.0,0.0,0.0,0.0,0.0,0.0,0.0,0.0,0.0,0.0,0.0,0.0,0.0,0.0,0.0,-1.3359,-1.3469,-1.5637,-1.7204,-1.801,-1.8816,-1.9601,-2.0419,-2.2034,-2.2473,-2.177,-2.028,-1.8656,-1.6963,-1.6226,-1.4924,0.0,0.0,0.0,0.0,0.0,0.0,0.0,0.0,0.0,0.0,0.0,0.0,0.0,0.0,0.0,0.0,0.0,0.0,-1.4567,-1.453,-1.4493,-1.4824,-1.6321,-1.741,-1.8456,-1.996,-2.0456,0.0,-2.1307,-2.0762,0.0,0.0,0.0,0.0,0.0,0.0,0.0,0.0,0.0,0.0,0.0,0.0,0.0,0.0,0.0,0.0,0.0,0.0,0.0,0.0,0.0,0.0,-2.7299,-2.7299,-2.7299,-2.7299,-2.7299,-2.7299,-2.7299,-2.7299,-2.7299,-2.7299,-2.7168,-2.7119,-2.7119,-2.7039,-2.6775,-2.6365,-2.6313,-2.6013,-2.5521,-2.5121,-2.4942,-2.4899,-2.4513,-2.3978,-2.3418,-2.3403,-2.2536,-2.1365,0.0,0.0,0.0,0.0,0.0,0.0,0.0,0.0,0.0,0.0,0.0,0.0,0.0,0.0,0.0,0.0,0.0,0.0,0.0,0.0,-1.248,-1.3985,-1.4915,-1.6034,-1.7369,-1.8654,-1.9693,-2.0503,-2.1675,-2.1848,-2.1025,-1.9895,-1.85,-1.6898,-1.6103,0.0,0.0,0.0,0.0,0.0,0.0,0.0,0.0,0.0,0.0,0.0,0.0,0.0,0.0,0.0,-1.1273,-1.2113,0.0,-1.3223,-1.4302,-1.3877,-1.4057,-1.4538,-1.5221,-1.6618,-1.8214,-1.9442,-2.0298,0.0,0.0,0.0,0.0,0.0,0.0,0.0,0.0,0.0,0.0,0.0,0.0,0.0,0.0,0.0,0.0,0.0,0.0,0.0,0.0,0.0,0.0,0.0,0.0,0.0,0.0,-2.725,-2.7234,-2.7122,-2.7153,-2.7169,-2.7122,-2.7122,-2.7122,-2.7122,-2.7086,-2.707,-2.7039,-2.6958,-2.6691,-2.6278,-2.5959,-2.5315,-2.4483,-2.4077,-2.3666,-2.3274,-2.3134,-2.2902,-2.2671,-2.2671,-2.2089,-2.1304,0.0,0.0,0.0,0.0,0.0,0.0,0.0,0.0,0.0,0.0,0.0,0.0,0.0,0.0,0.0,0.0,0.0,0.0,0.0,-1.0765,-1.1645,-1.3296,-1.409,-1.5025,-1.612,-1.7968,-1.9326,-2.0126,-2.0978,-2.1105,-2.0541,-1.9433,-1.8335,-1.722,-1.6169,0.0,0.0,0.0,0.0,0.0,0.0,0.0,0.0,0.0,0.0,0.0,0.0,0.0,0.0,0.0,-1.081,0.0,0.0,0.0,0.0,0.0,-1.4083,-1.4609,-1.4745,-1.6211,-1.7931,0.0,0.0,0.0,0.0,0.0,0.0,0.0,0.0,0.0,0.0,0.0,0.0,0.0,0.0,0.0,0.0,0.0,0.0,0.0,0.0,0.0,0.0,0.0,0.0,0.0,0.0,0.0,0.0,-2.7184,-2.7153,-2.7024,-2.6815,-2.6696,-2.6649,-2.6426,-2.6274,-2.6242,-2.6511,-2.6767,-2.6958,-2.6742,-2.6318,-2.5702,-2.5216,-2.4385,-2.3371,-2.3099,-2.2701,-2.2305,-2.2305,-2.2182,-2.1981,-2.1981,-2.1565,-2.098,0.0,0.0,0.0,0.0,0.0,0.0,0.0,0.0,0.0,0.0,0.0,0.0,0.0,0.0,0.0,0.0,0.0,0.0,0.0,-1.0457,-1.0893,-1.0893,-1.3204,-1.4475,-1.4493,-1.6842,-1.8463,-1.9297,-2.0089,-2.0466,-2.0429,-1.8823,-1.8071,-1.8005,0.0,0.0,0.0,0.0,0.0,0.0,0.0,0.0,0.0,0.0,0.0,0.0,0.0,0.0,0.0,0.0,-1.0889,-1.1146,0.0,0.0,0.0,-1.404,-1.4715,-1.5233,-1.5361,-1.6425,-1.771,0.0,0.0,0.0,0.0,0.0,0.0,0.0,0.0,0.0,0.0,0.0,0.0,0.0,0.0,0.0,0.0,0.0,0.0,0.0,0.0,0.0,0.0,0.0,0.0,0.0,0.0,0.0,0.0,-2.7068,-2.7053,-2.6974,-2.6271,-2.5878,-2.5878,-2.516,-2.4722,-2.4598,-2.5347,-2.6111,-2.6876,-2.6349,-2.5513,-2.4486,-2.4066,-2.329,-2.2289,-2.227,-2.2289,-2.2289,-2.2289,-2.1889,-2.1288,-2.1288,-2.0872,-2.0304,0.0,0.0,0.0,0.0,0.0,0.0,0.0,0.0,0.0,0.0,0.0,0.0,0.0,0.0,0.0,0.0,0.0,0.0,0.0,-0.9919,-1.0315,-1.0875,-1.2127,-1.3086,-1.3642,-1.4903,-1.6511,-1.8463,-1.8695,-1.8529,-1.7954,-1.7477,-1.6952,-1.639,0.0,0.0,0.0,0.0,0.0,0.0,0.0,0.0,0.0,0.0,0.0,0.0,0.0,0.0,0.0,0.0,0.0,0.0,0.0,0.0,0.0,-1.3366,-1.4151,-1.5098,-1.5215,-1.6665,0.0,0.0,0.0,0.0,0.0,0.0,0.0,0.0,0.0,0.0,0.0,0.0,0.0,0.0,0.0,0.0,0.0,0.0,0.0,0.0,0.0,0.0,0.0,0.0,0.0,0.0,0.0,0.0,0.0,-2.5725,-2.5403,-2.5246,-2.5072,-2.4968,-2.4907,-2.4703,-2.4569,-2.4521,-2.4742,-2.525,-2.598,-2.6064,-2.5513,-2.4486,-2.4066,-2.3026,-2.1565,-2.1088,-2.0888,-2.0888,-2.0888,-2.0764,-2.0613,-2.0613,-2.0456,-2.0304,0.0,0.0,0.0,0.0,0.0,0.0,0.0,0.0,0.0,0.0,0.0,0.0,0.0,0.0,0.0,0.0,0.0,0.0,0.0,0.0,-1.0062,-1.0857,-1.1356,-1.215,-1.3285,-1.4095,-1.5062,-1.6188,-1.6518,-1.6585,-1.6438,-1.6743,-1.6805,-1.6646,0.0,-1.6481,0.0,0.0,0.0,0.0,-1.3967,-1.3293,-1.2485,0.0,0.0,0.0,0.0,0.0,0.0,0.0,0.0,0.0,-1.0399,0.0,0.0,-1.3108,-1.4044,-1.5155,-1.6184,0.0,0.0,0.0,0.0,0.0,0.0,0.0,0.0,0.0,0.0,0.0,0.0,0.0,0.0,0.0,0.0,0.0,0.0,0.0,0.0,0.0,0.0,0.0,0.0,0.0,0.0,0.0,0.0,0.0,0.0,-2.4916,-2.4645,-2.4506,-2.4248,-2.4096,-2.4068,-2.378,-2.3628,-2.363,-2.3932,-2.4243,-2.454,-2.4877,-2.4465,-2.3435,-2.2754,-2.1864,-2.0872,-2.0474,-2.0304,-2.0304,-2.0304,-2.0304,-2.0304,-2.0304,-2.0304,-2.0304,0.0,0.0,0.0,0.0,0.0,0.0,0.0,0.0,0.0,0.0,0.0,0.0,0.0,0.0,0.0,0.0,0.0,0.0,0.0,0.0,-1.0013,-1.0738,-1.0912,-1.1704,-1.323,-1.3926,-1.3877,-1.3062,-1.4035,-1.4848,-1.5496,-1.6456,-1.7257,-1.7869,0.0,-1.7539,0.0,0.0,0.0,-1.4493,-1.442,-1.3943,-1.3196,-1.2384,0.0,0.0,0.0,0.0,0.0,0.0,0.0,0.0,-1.0175,-1.0435,-1.0907,-1.3054,-1.421,-1.5315,-1.7631,0.0,0.0,0.0,0.0,0.0,0.0,0.0,0.0,0.0,0.0,0.0,0.0,0.0,0.0,0.0,0.0,0.0,0.0,0.0,0.0,0.0,0.0,0.0,0.0,0.0,0.0,0.0,0.0,0.0,0.0,-2.4428,-2.4364,-2.4305,-2.3646,-2.3291,-2.3291,-2.2632,-2.2296,-2.2296,-2.2987,-2.3111,-2.2759,-2.3193,-2.2821,-2.1775,-2.0755,-2.0304,-2.0304,-2.0304,-2.0304,-2.0304,-2.0304,-2.0304,-2.0304,-2.0304,-2.0304,-2.0304,0.0,0.0,0.0,0.0,0.0,0.0,0.0,0.0,0.0,0.0,0.0,0.0,0.0,0.0,0.0,0.0,0.0,0.0,0.0,0.0,-0.9621,-0.9799,-1.1011,-1.2101,-1.2974,-1.2648,-1.2071,-1.1259,-1.3435,-1.4279,0.0,0.0,0.0,-1.6243,0.0,-1.6713,0.0,0.0,-1.4083,-1.4438,-1.3807,-1.3397,-1.3052,-1.2251,-1.1381,0.0,0.0,0.0,0.0,0.0,0.0,0.0,-1.003,-1.0678,-1.1389,-1.2463,-1.374,-1.5167,0.0,-1.8273,0.0,0.0,0.0,0.0,0.0,0.0,0.0,0.0,0.0,0.0,0.0,0.0,0.0,0.0,0.0,0.0,0.0,0.0,0.0,0.0,0.0,0.0,0.0,0.0,0.0,0.0,0.0,0.0,-2.3659,-2.3117,-2.2798,-2.2784,-2.2632,-2.2533,-2.2533,-2.2381,-2.2296,0.0,-2.2448,-2.2208,-2.1677,-2.2848,-2.2681,-2.1386,-2.0632,-2.0304,-2.0304,-2.0304,-2.0304,-2.0304,-2.0304,-2.0304,-2.0304,-2.0304,-2.0304,-2.0304,0.0,0.0,0.0,0.0,0.0,0.0,0.0,0.0,0.0,0.0,0.0,0.0,0.0,0.0,0.0,0.0,0.0,0.0,0.0,0.0,-0.9447,-0.9447,-1.0995,-1.1668,-1.1287,-1.1309,-1.116,-1.0794,-1.2518,0.0,0.0,0.0,0.0,-1.6867,0.0,-1.6805,0.0,0.0,-1.3893,-1.3862,-1.3054,-1.2918,-1.3072,-1.1862,-1.1088,-1.0496,-0.9693,0.0,0.0,0.0,0.0,0.0,0.0,0.0,-1.0526,-1.1643,-1.2783,-1.4175,0.0,0.0,0.0,0.0,0.0,0.0,0.0,0.0,0.0,0.0,0.0,0.0,0.0,0.0,0.0,0.0,0.0,0.0,0.0,0.0,0.0,0.0,0.0,0.0,0.0,0.0,0.0,0.0,0.0,-2.2868,-2.2868,-2.2513,-2.2296,-2.2296,-2.2296,-2.2296,-2.2296,-2.2296,-2.2296,-2.2296,-2.2137,-2.1706,-2.1071,-2.1657,-2.1508,-2.0795,-2.0458,-2.0304,-2.0304,-2.0304,-2.0304,-2.0304,-2.0304,-2.0304,-2.0304,-2.0304,-2.0304,-2.0304,0.0,0.0,0.0,0.0,0.0,0.0,0.0,0.0,0.0,0.0,0.0,0.0,0.0,0.0,0.0,0.0,0.0,0.0,0.0,-0.9371,-0.9415,-0.9538,-1.0838,-1.1028,-0.9848,-1.0375,-1.0761,-1.1008,0.0,0.0,0.0,0.0,0.0,-1.8046,0.0,0.0,0.0,0.0,-1.3783,-1.3225,-1.225,-1.2254,-1.2683,-1.1337,-1.0624,-1.0245,-0.9592,-0.9246,-0.9104,-0.9104,0.0,0.0,0.0,0.0,-0.938,-1.078,-1.1816,-1.307,0.0,0.0,0.0,0.0,0.0,0.0,0.0,0.0,0.0,0.0,0.0,0.0,0.0,0.0,0.0,0.0,0.0,0.0,0.0,0.0,0.0,0.0,0.0,0.0,0.0,0.0,0.0,0.0,0.0,-2.2296,-2.2296,-2.2296,-2.2296,-2.2296,-2.2296,-2.2296,-2.2296,-2.2237,-2.2209,-2.2209,-2.1812,-2.134,-2.0794,-2.0458,-2.0304,-2.0304,-2.0304,-2.0304,-2.0304,-2.0304,-2.0304,-2.0304,-2.0304,-2.0304,-2.0304,-2.0304,-2.0304,-2.0304,0.0,0.0,0.0,0.0,0.0,0.0,0.0,0.0,0.0,0.0,0.0,-0.949,-0.9448,-0.9426,0.0,0.0,0.0,0.0,-0.9236,0.0,0.0,-1.0077,-1.0417,-1.0761,-1.1149,-1.0679,-1.0765,-1.1411,0.0,0.0,0.0,0.0,0.0,-1.7827,0.0,0.0,0.0,0.0,0.0,-1.3165,-1.1537,-1.0928,-1.0913,-1.0588,-0.999,-0.9277,-0.9185,-0.913,-0.9104,-0.9104,-0.9104,0.0,0.0,0.0,0.0,0.0,-1.1378,-1.2724,0.0,0.0,0.0,0.0,0.0,0.0,0.0,0.0,0.0,0.0,0.0,0.0,0.0,0.0,0.0,0.0,0.0,0.0,0.0,0.0,0.0,0.0,0.0,0.0,0.0,0.0,0.0,0.0,-2.2296,-2.2296,-2.2296,-2.2296,-2.2296,-2.2296,-2.2296,-2.2296,-2.2296,-2.202,-2.1871,-2.1857,-2.123,-2.0893,-2.0794,-2.0458,-2.0304,-2.0304,-2.0304,-2.0304,-2.0304,-2.0304,-2.0304,-2.0304,-2.0304,-2.0304,-2.0304,-2.0304,-2.0304,-2.0304,0.0,0.0,0.0,0.0,0.0,0.0,0.0,0.0,0.0,0.0,0.0,-0.9354,-0.9399,-0.933,0.0,0.0,0.0,0.0,-0.9154,-0.9149,0.0,0.0,-0.9649,-0.9832,-1.0151,-0.9886,-1.0143,0.0,0.0,0.0,0.0,-1.6619,-1.7835,0.0,0.0,0.0,0.0,0.0,0.0,-1.2378,-1.0703,-1.1026,-1.2311,-1.0521,-1.0349,-1.0894,-0.9617,-0.9133,0.0,0.0,0.0,0.0,0.0,0.0,0.0,0.0,0.0,0.0,0.0,0.0,0.0,0.0,0.0,0.0,0.0,0.0,0.0,0.0,0.0,0.0,0.0,0.0,0.0,0.0,0.0,0.0,0.0,0.0,0.0,0.0,0.0,0.0,0.0,0.0,0.0,0.0,-2.2296,-2.2296,-2.2296,-2.2296,-2.2296,-2.2296,-2.2123,-2.202,-2.202,-2.1691,-2.1433,-2.123,-2.0942,-2.0695,-2.051,-2.0373,-2.0304,-2.0304,-2.0304,-2.0304,-2.0304,-2.0304,-2.0304,-2.0304,-2.0304,-2.0304,-2.0304,-2.0304,-2.0304,-2.0287,0.0,0.0,0.0,0.0,0.0,0.0,0.0,0.0,0.0,0.0,0.0,0.0,-0.9334,0.0,0.0,0.0,0.0,0.0,-0.9078,0.0,0.0,0.0,0.0,-0.9092,-0.9146,-0.9151,-0.9597,0.0,0.0,0.0,-1.644,-1.6761,-1.867,0.0,-1.959,-1.798,0.0,0.0,0.0,0.0,0.0,-1.1937,-1.374,-1.1782,-1.2052,-1.3156,-1.1069,0.0,0.0,0.0,0.0,0.0,0.0,0.0,0.0,0.0,0.0,0.0,0.0,0.0,0.0,0.0,0.0,0.0,0.0,0.0,0.0,0.0,0.0,0.0,0.0,0.0,0.0,0.0,0.0,0.0,0.0,0.0,0.0,0.0,0.0,0.0,0.0,0.0,0.0,0.0,-2.2296,-2.2296,-2.2296,-2.2209,-2.2166,-2.2166,-2.1857,-2.1676,-2.1676,-2.1339,-2.0991,-2.0662,-2.0662,-2.0544,-2.0304,-2.027,-2.0252,-2.0252,-2.0252,-2.0252,-2.0252,-2.0235,-2.0218,-2.0218,-2.0252,-2.0252,-2.0252,-2.0252,-2.0252,-2.022,0.0,0.0,0.0,0.0,0.0,0.0,0.0,0.0,0.0,0.0,0.0,0.0,0.0,0.0,0.0,0.0,0.0,0.0,0.0,0.0,0.0,0.0,0.0,0.0,0.0,-0.9013,0.0,0.0,0.0,0.0,-1.7347,-1.7615,-1.9627,-2.2928,-2.0966,-1.9217,-1.7621,0.0,0.0,0.0,0.0,0.0,-1.3941,-1.5107,-1.5632,-1.5512,0.0,0.0,0.0,0.0,0.0,0.0,0.0,0.0,0.0,0.0,0.0,0.0,0.0,0.0,0.0,0.0,0.0,0.0,0.0,0.0,0.0,0.0,0.0,0.0,0.0,0.0,0.0,0.0,0.0,0.0,0.0,0.0,0.0,0.0,0.0,0.0,0.0,0.0,0.0,0.0,-2.2296,-2.2296,-2.2296,-2.2005,-2.1827,-2.1827,-2.1493,-2.1339,-2.1339,-2.099,-2.0662,-2.0321,-2.0321,-2.0321,-2.0304,-2.0168,-2.01,-2.01,-2.01,-2.01,-2.0115,-2.0043,-2.0023,-2.0023,-2.008,-2.01,-2.01,-2.01,-2.01,-2.0098,0.0,0.0,0.0,0.0,0.0,0.0,0.0,0.0,0.0,0.0,0.0,0.0,0.0,-0.9056,-0.9029,-0.8996,0.0,0.0,0.0,0.0,0.0,0.0,0.0,0.0,0.0,0.0,0.0,0.0,0.0,-1.1408,-1.4958,-1.5097,-1.6642,-1.9318,-1.9444,-1.9282,-1.8672,-1.5273,0.0,0.0,0.0,0.0,0.0,-1.5978,-1.6675,-1.7702,0.0,0.0,0.0,0.0,0.0,0.0,0.0,-1.031,-1.0258,-0.9314,0.0,0.0,0.0,0.0,0.0,0.0,0.0,0.0,0.0,0.0,0.0,0.0,0.0,0.0,0.0,0.0,0.0,0.0,0.0,0.0,0.0,0.0,0.0,0.0,0.0,0.0,0.0,0.0,0.0,0.0,0.0,-2.2296,-2.2296,-2.1991,-2.1812,-2.1812,-2.1277,-2.0877,-2.0663,-2.0544,-2.0424,-2.0304,-2.0304,-2.0252,-2.0168,-2.0133,-2.008,-2.0025,-1.994,-1.9973,-2.0025,-2.0023,-2.0005,-2.0005,-2.0025,-2.0043,-2.0043,-2.0043,-2.0043,-2.0025,0.0,0.0,0.0,0.0,0.0,0.0,0.0,0.0,0.0,-0.8998,0.0,0.0,0.0,0.0,-0.9634,-0.9395,-0.9117,0.0,0.0,0.0,0.0,0.0,0.0,0.0,0.0,0.0,0.0,0.0,0.0,0.0,0.0,-1.3588,-1.4958,-1.7101,-1.7281,-1.8013,0.0,0.0,0.0,-1.6045,0.0,0.0,-1.8436,0.0,-1.895,0.0,0.0,0.0,0.0,0.0,0.0,0.0,0.0,-1.1291,-1.0591,-0.935,0.0,0.0,0.0,0.0,0.0,0.0,0.0,0.0,0.0,0.0,0.0,0.0,0.0,0.0,0.0,0.0,0.0,0.0,0.0,0.0,0.0,0.0,0.0,0.0,0.0,0.0,0.0,0.0,0.0,0.0,0.0,0.0,-2.212,-2.1708,-2.1417,-2.1292,-2.086,-2.0527,-2.0304,-2.0304,-2.0287,-2.022,-2.022,-2.0168,-2.0063,-2.0028,-1.9975,-1.9919,-1.9797,-1.983,-1.9919,-1.9902,-1.9902,-1.9902,-1.9919,-1.9919,-1.9919,-1.9919,-1.9919,-1.9919,0.0,0.0,0.0,0.0,0.0,0.0,0.0,0.0,-0.8953,-0.9021,0.0,0.0,0.0,0.0,0.0,-1.0223,-0.9434,-0.8965,-0.8931,-0.8914,0.0,0.0,0.0,0.0,0.0,0.0,0.0,0.0,0.0,0.0,0.0,0.0,-1.4843,-1.6678,-1.4711,-1.5518,-1.8291,0.0,-1.8206,-1.8241,0.0,-1.919,-1.9498,0.0,0.0,0.0,-2.0878,-2.0306,0.0,0.0,0.0,0.0,0.0,-1.2533,-0.9987,-0.927,0.0,0.0,0.0,0.0,0.0,0.0,0.0,0.0,0.0,0.0,0.0,0.0,0.0,0.0,0.0,0.0,0.0,0.0,0.0,0.0,0.0,0.0,0.0,0.0,0.0,0.0,0.0,0.0,0.0,0.0,-2.1974,-2.1797,-2.1797,-2.1151,-2.0645,-2.0304,-2.0304,-2.0304,-2.0287,-2.0287,-2.022,-2.0098,-2.0098,-2.0063,-1.9988,-1.9866,-1.9797,-1.978,-1.9726,-1.9744,-1.978,-1.9726,-1.9708,-1.9708,-1.9762,-1.9797,-1.9797,-1.9797,-1.9797,-1.978,0.0,0.0,0.0,0.0,0.0,0.0,-0.8982,-0.936,-0.9709,0.0,0.0,0.0,-1.0768,-1.1524,-1.1906,-1.1703,-1.0957,-1.025,-0.9726,-0.9196,-0.8897,-0.8897,-0.8897,-0.8897,-0.8897,0.0,0.0,0.0,0.0,0.0,0.0,0.0,0.0,0.0,-1.2989,-1.3851,-1.565,-1.4528,0.0,0.0,-1.7695,-1.8791,0.0,0.0,0.0,0.0,0.0,-2.1383,-2.0772,0.0,-1.846,-1.68,0.0,0.0,0.0,0.0,0.0,0.0,-1.1189,0.0,0.0,0.0,0.0,0.0,0.0,0.0,0.0,0.0,0.0,0.0,0.0,0.0,0.0,0.0,0.0,0.0,0.0,0.0,0.0,0.0,0.0,0.0,0.0,0.0,0.0,0.0,-2.1857,-2.1691,-2.1447,-2.1039,-2.0645,-2.0304,-2.0304,-2.0252,-2.0168,-2.0168,-2.0115,-2.0025,-2.0025,-1.9973,-1.9848,-1.9815,-1.9762,-1.9726,-1.9708,-1.9708,-1.9726,-1.9708,-1.9708,-1.9708,-1.9726,-1.9726,-1.9726,-1.9726,-1.9726,-1.9726,0.0,0.0,0.0,0.0,0.0,-1.0802,-1.0375,-1.0673,-1.0954,0.0,0.0,0.0,-1.2391,-1.321,-1.343,-1.2812,-1.1746,-1.0791,-1.0051,-0.9309,-0.8897,-0.8897,-0.8897,-0.8897,-0.8897,-0.8942,-0.8964,0.0,-0.8964,-0.9185,-0.9599,-0.9552,-1.0178,-1.1324,-1.1015,-1.1933,-1.3615,0.0,0.0,0.0,-1.8107,0.0,0.0,-2.146,-2.1946,0.0,0.0,0.0,-2.1583,-2.1113,-1.9761,0.0,0.0,0.0,0.0,0.0,0.0,0.0,0.0,0.0,0.0,0.0,0.0,0.0,0.0,-1.6143,0.0,0.0,0.0,0.0,0.0,0.0,0.0,0.0,0.0,0.0,0.0,0.0,0.0,0.0,0.0,0.0,0.0,-2.1886,-2.1812,-2.1616,-2.1463,-2.1246,-2.0893,-2.0696,-2.0494,-2.0304,-2.0252,-2.0185,-2.01,-2.0063,-2.0008,-1.9919,-1.9919,-1.9866,-1.9762,-1.9762,-1.9744,-1.9708,-1.9708,-1.9708,-1.9708,-1.9708,-1.9708,-1.9708,-1.9708,-1.9708,-1.9708,-1.9708,-1.9708,-1.9708,0.0,0.0,-1.0927,-1.0345,-1.1468,-1.2415,-1.2415,-1.2483,-1.2534,0.0,-1.2686,-1.3346,-1.4825,-1.5511,-1.5317,-1.3997,-1.2406,-1.113,-1.0311,-0.9478,-0.8982,-0.8897,-0.8982,-0.8982,-0.8897,-0.8982,-0.8982,-0.8897,-0.8897,-0.8897,-0.8897,-0.8897,-0.9241,-0.9855,-0.9196,-1.0123,-1.2132,0.0,0.0,-1.7127,-1.9052,-2.0023,0.0,0.0,-2.2281,0.0,-2.238,-2.2352,-2.2279,-2.2212,-2.0771,0.0,0.0,0.0,0.0,0.0,-1.4293,0.0,0.0,0.0,0.0,0.0,0.0,0.0,-1.6354,-1.6453,0.0,0.0,0.0,0.0,0.0,0.0,0.0,0.0,0.0,0.0,0.0,0.0,0.0,0.0,0.0,0.0,-2.1308,-2.1308,-2.1276,-2.1261,-2.0926,-2.0611,-2.0287,-2.0287,-2.027,-2.027,-2.015,-2.008,-2.0065,-2.0008,-1.9902,-1.978,-1.978,-1.9762,-1.9708,-1.9708,-1.9708,-1.9708,-1.9708,-1.9708,-1.9708,-1.9708,-1.9708,-1.9708,-1.9708,-1.9708,-1.9708,-1.9708,-1.9672,-1.9636,0.0,-1.09,-1.1265,-1.1756,-1.2592,-1.3193,-1.3193,-1.3684,-1.4064,-1.4064,-1.5105,-1.64,-1.7879,-1.7642,-1.7242,-1.6982,-1.5044,-1.327,-1.1942,-1.0548,-0.9523,-0.8931,-0.9472,-0.9506,-0.8914,-0.9472,-0.9489,-0.8897,-0.8897,-0.8897,-0.8897,-0.8897,-0.8982,-0.9111,-0.8965,-0.9806,-1.1415,0.0,0.0,-1.6888,-1.7292,0.0,-2.1044,-2.1315,-2.1793,-2.2296,-2.231,-2.231,-2.2212,0.0,-2.0686,-1.9507,0.0,0.0,0.0,0.0,0.0,-1.8065,0.0,0.0,0.0,0.0,0.0,0.0,0.0,-1.4102,0.0,0.0,0.0,0.0,0.0,0.0,0.0,0.0,0.0,0.0,0.0,0.0,0.0,0.0,0.0,0.0,-2.1308,-2.1308,-2.1182,-2.0909,-2.0595,-2.0323,-2.015,-2.015,-2.0115,-2.0058,-2.0025,-1.9973,-1.9851,-1.9848,-1.9797,-1.9726,-1.9726,-1.9708,-1.9708,-1.9708,-1.9708,-1.9708,-1.9708,-1.9708,-1.9708,-1.9708,-1.9708,-1.9708,-1.9708,-1.9708,-1.9708,-1.9708,-1.9508,-1.9232,0.0,-1.1712,-1.2372,-1.2778,-1.376,-1.4742,-1.5477,-1.5595,-1.5866,-1.661,-1.7659,-1.8488,-1.886,-1.8899,0.0,-1.7867,-1.5788,-1.403,-1.2914,-1.1055,-0.9838,-0.9455,-0.9455,-0.9455,-0.9438,-0.9455,-0.9455,-0.9438,-0.9078,-0.8897,-0.8897,-0.8897,-0.9298,-0.9992,-0.9613,0.0,0.0,0.0,-1.4185,-1.634,-1.7838,0.0,-2.1251,-2.161,-2.1986,-2.2296,-2.2296,-2.2296,-2.2178,-2.1461,-2.0923,0.0,0.0,-1.8877,-1.9266,0.0,-1.8872,-1.9887,0.0,0.0,0.0,-1.7168,0.0,0.0,0.0,0.0,-1.5225,0.0,0.0,0.0,0.0,0.0,0.0,0.0,0.0,0.0,0.0,0.0,0.0,0.0,0.0,0.0,-2.0795,-2.0795,-2.0729,-2.0561,-2.0323,-2.0168,-2.01,-2.0063,-2.0025,-2.0005,-1.9937,-1.9866,-1.9797,-1.9762,-1.9726,-1.9708,-1.9708,-1.9708,-1.9708,-1.9708,-1.9708,-1.9708,-1.9708,-1.9708,-1.9708,-1.9708,-1.9708,-1.9708,-1.9708,-1.9581,-1.9398,-1.9398,-1.9143,-1.8803,0.0,0.0,-1.3447,-1.3591,-1.4708,-1.6052,-1.7377,-1.7202,-1.745,-1.891,-1.9761,0.0,0.0,0.0,0.0,0.0,0.0,-1.4817,0.0,0.0,-1.0599,-1.0447,-0.9867,-0.9766,-1.021,-0.963,-0.9478,-0.9787,-0.9196,-0.8897,-0.8897,-0.8897,-0.962,-1.0876,0.0,0.0,0.0,0.0,0.0,-1.6644,0.0,-2.0225,-2.0857,-2.1749,-2.2076,-2.2124,-2.2245,-2.2296,-2.2212,-2.1613,0.0,-2.1173,-1.9786,-2.0281,0.0,0.0,0.0,0.0,0.0,0.0,0.0,0.0,0.0,-1.821,0.0,0.0,0.0,-1.7347,0.0,0.0,0.0,0.0,0.0,0.0,0.0,0.0,0.0,0.0,0.0,0.0,0.0,0.0,0.0,-1.9979,-2.001,-2.0239,-1.9922,-1.9808,-2.0015,-1.999,-1.9955,-1.9937,-1.9848,-1.978,-1.978,-1.9726,-1.9708,-1.9708,-1.9708,-1.9708,-1.9708,-1.9708,-1.9708,-1.9708,-1.9708,-1.9708,-1.9708,-1.9708,-1.9708,-1.9708,-1.9708,-1.9453,-1.9101,-1.9101,-1.8784,-1.8364,-1.3159,-1.3278,-1.3608,-1.425,-1.5054,-1.5876,-1.6705,-1.7304,-1.8205,0.0,0.0,0.0,0.0,0.0,0.0,0.0,0.0,0.0,-1.6377,0.0,0.0,-1.2077,-1.1959,-1.162,-1.0994,-1.0893,-1.0257,-0.9027,-0.8948,-0.8897,-0.8897,-0.8897,-0.9343,-1.0159,-1.0724,0.0,0.0,0.0,-1.6278,0.0,-1.9147,-1.9092,0.0,-2.0767,-2.1326,-2.141,-2.2073,-2.2296,-2.2279,0.0,-2.2192,-2.204,0.0,-2.1498,-2.2023,0.0,0.0,0.0,0.0,0.0,0.0,0.0,-1.987,0.0,0.0,0.0,-1.7198,-1.6115,0.0,0.0,0.0,0.0,0.0,0.0,0.0,0.0,0.0,0.0,0.0,0.0,0.0,0.0,0.0,-1.8823,-1.8913,-2.0041,-1.9,-1.8765,-1.9773,-1.983,-1.9797,-1.9744,-1.9726,-1.9708,-1.9708,-1.9708,-1.9708,-1.9708,-1.9708,-1.9708,-1.9708,-1.9708,-1.9708,-1.9708,-1.9708,-1.9708,-1.9708,-1.9708,-1.9708,-1.9708,-1.9708,-1.9453,-1.9101,-1.9101,-1.8592,-1.7868,-1.3396,-1.3396,0.0,-1.4368,-1.4757,-1.5511,-1.7084,-1.8724,-2.0006,0.0,0.0,0.0,0.0,0.0,0.0,0.0,0.0,-1.8577,0.0,0.0,0.0,-1.3608,-1.2754,-1.2331,-1.2423,-1.1147,-1.0369,-1.0178,-0.9315,-0.8897,-0.8914,-0.9343,-1.0402,-1.2017,-1.2737,0.0,-1.6397,0.0,0.0,0.0,0.0,0.0,0.0,-2.1092,-2.1837,-2.187,-2.2178,-2.2296,-2.2229,0.0,-2.1955,0.0,0.0,0.0,0.0,0.0,0.0,0.0,0.0,0.0,0.0,0.0,0.0,0.0,-1.7728,0.0,-1.723,0.0,0.0,0.0,0.0,0.0,0.0,0.0,0.0,0.0,0.0,0.0,0.0,0.0,0.0,0.0,0.0,0.0,0.0,0.0,-1.7989,-1.7954,-1.9217,-1.9208,-1.9336,-1.9693,-1.9708,-1.9708,-1.9708,-1.9708,-1.9708,-1.9708,-1.9708,-1.9708,-1.9708,-1.9708,-1.9708,-1.9708,-1.9708,-1.9708,-1.969,-1.9453,-1.9362,-1.9343,-1.9091,-1.8903,-1.8726,-1.8442,-1.7968,-1.7455,-1.3625,0.0,0.0,0.0,-1.452,-1.5552,-1.7749,-1.9672,-2.0953,-2.1173,0.0,0.0,-2.3325,-2.2919,0.0,0.0,-2.1778,-2.036,0.0,0.0,-1.6231,-1.5691,-1.4098,0.0,0.0,-1.1985,-1.0994,-1.1103,-1.0026,-0.9501,-0.9518,0.0,-1.1299,-1.3151,0.0,-1.5923,-1.7783,0.0,0.0,-1.9,-1.8577,-1.8978,-1.9993,-2.1448,-2.211,-2.2296,-2.2296,-2.2237,-2.2082,-2.1541,-2.167,0.0,-2.1112,0.0,0.0,0.0,0.0,0.0,-2.1959,0.0,0.0,0.0,0.0,0.0,0.0,0.0,0.0,0.0,0.0,0.0,0.0,0.0,0.0,0.0,0.0,0.0,0.0,0.0,0.0,0.0,0.0,0.0,0.0,0.0,0.0,0.0,0.0,-1.7,-1.849,-1.8646,-1.8927,-1.9405,-1.9603,-1.9708,-1.9708,-1.9708,-1.9708,-1.9708,-1.9708,-1.9708,-1.9708,-1.9708,-1.9708,-1.969,-1.9581,-1.9545,-1.9493,-1.9087,-1.8936,-1.8879,-1.8461,-1.8305,-1.8246,-1.7908,-1.7557,-1.7199,-1.4237,-1.3844,0.0,0.0,0.0,-1.6306,-1.8521,-1.9524,-2.0318,0.0,0.0,0.0,0.0,0.0,0.0,0.0,0.0,-2.2897,-2.2195,0.0,-1.8694,-1.8668,-1.6629,-1.5481,0.0,0.0,-1.2575,-1.1103,-1.1045,-1.1035,0.0,0.0,0.0,0.0,-1.4597,-1.6407,-1.785,-1.8538,-2.0128,-2.2026,-2.0525,-2.0842,-2.211,0.0,-2.1681,-2.2296,-2.2296,0.0,0.0,-2.1794,-2.1568,0.0,0.0,0.0,0.0,0.0,0.0,0.0,0.0,0.0,0.0,-1.9481,0.0,0.0,0.0,0.0,-1.8742,0.0,0.0,0.0,0.0,0.0,0.0,0.0,0.0,0.0,0.0,0.0,0.0,0.0,0.0,0.0,0.0,0.0,0.0,0.0,0.0,0.0,-1.7639,-1.8341,-1.8717,-1.8732,-1.9346,-1.9708,-1.9708,-1.9708,-1.9708,-1.9708,-1.9708,-1.9708,-1.9708,-1.9708,-1.9708,-1.969,-1.9288,-1.912,-1.9082,-1.8688,-1.8519,-1.8461,-1.7988,-1.7767,-1.774,-1.7767,-1.7557,-1.7199,0.0,0.0,0.0,0.0,0.0,-1.5781,-1.8499,-1.9989,0.0,0.0,0.0,0.0,0.0,-2.6286,-2.6253,0.0,0.0,-2.4723,-2.2947,-2.1743,0.0,0.0,0.0,-1.7743,0.0,0.0,-1.4606,-1.4073,0.0,0.0,0.0,0.0,0.0,0.0,0.0,-1.7608,0.0,0.0,0.0,0.0,0.0,-2.1078,-2.1943,0.0,0.0,-2.2237,-2.1812,-2.1857,0.0,-2.1631,-2.1477,-2.1431,-2.0975,-2.0959,-2.1055,-2.078,-2.0894,0.0,0.0,0.0,-2.051,-1.9639,0.0,0.0,0.0,0.0,0.0,0.0,0.0,0.0,0.0,0.0,0.0,0.0,0.0,0.0,0.0,0.0,0.0,0.0,0.0,0.0,0.0,0.0,0.0,0.0,-1.4444,0.0,0.0,-1.7667,-1.8237,-1.8687,-1.9346,-1.9708,-1.9708,-1.9708,-1.9708,-1.9708,-1.9708,-1.9563,-1.9291,-1.9291,-1.9161,-1.8903,-1.8765,-1.8649,-1.8553,-1.8127,-1.7908,-1.7787,-1.7372,-1.7199,-1.7199,-1.7352,-1.724,-1.7002,-1.5854,0.0,0.0,0.0,0.0,0.0,0.0,0.0,0.0,0.0,-2.487,0.0,-2.7516,0.0,-2.7528,0.0,-2.7291,-2.6335,-2.4108,-2.3551,0.0,-2.1733,-2.0592,0.0,0.0,-1.7956,-1.6737,0.0,0.0,-1.3963,0.0,0.0,0.0,0.0,0.0,0.0,-1.8838,0.0,-2.1415,0.0,0.0,-2.1883,0.0,0.0,-2.2091,-2.2068,0.0,-2.166,-2.1726,-2.1488,-2.1263,-2.0991,-2.0548,-2.0514,-2.0599,-2.0328,-2.043,-2.06,-2.0581,-2.0429,0.0,-1.9524,-1.9092,0.0,-1.8027,0.0,0.0,0.0,0.0,0.0,0.0,0.0,0.0,0.0,0.0,0.0,0.0,0.0,0.0,0.0,0.0,0.0,0.0,0.0,-1.2565,-1.3443,0.0,0.0,0.0,0.0,-1.7908,-1.8326,-1.9226,-1.9708,-1.9708,-1.9708,-1.9708,-1.9708,-1.9708,-1.949,-1.9101,-1.9101,-1.8879,-1.8481,-1.8305,-1.8167,-1.8048,-1.7598,-1.7352,-1.7261,-1.7002,-1.6854,-1.6846,-1.7044,-1.7002,-1.6876,0.0,0.0,0.0,0.0,-1.694,0.0,0.0,0.0,-2.3456,0.0,-2.5631,-2.68,-2.757,-2.7654,-2.7938,-2.8588,-2.8579,0.0,-2.5765,-2.5413,0.0,0.0,-2.251,-2.1718,-2.0929,-2.0251,0.0,0.0,0.0,0.0,0.0,0.0,0.0,0.0,-1.7134,0.0,-1.8495,-2.0759,-2.1749,-2.1837,-2.2517,-2.3209,-2.3737,-2.2889,-2.2254,-2.1859,-2.202,-2.1578,-2.0984,-2.1412,-2.0932,-2.0146,-2.0098,-1.9942,-1.9797,-1.9797,-1.9744,-1.9726,-1.978,-1.9797,-1.9665,-1.9182,0.0,0.0,0.0,0.0,-1.9767,0.0,0.0,0.0,0.0,0.0,0.0,0.0,0.0,0.0,0.0,0.0,0.0,0.0,0.0,0.0,0.0,0.0,-1.1423,-1.2606,-1.2771,0.0,0.0,0.0,-1.7609,-1.7713,-1.8972,-1.9678,-1.9708,-1.969,-1.9672,-1.9672,-1.9639,-1.942,-1.9045,-1.9026,-1.8803,-1.8403,-1.7868,-1.7659,-1.7618,-1.7094,-1.6876,-1.6876,-1.6876,-1.6791,-1.6697,-1.6833,-1.6876,-1.6854,-1.8069,-1.8388,-1.8835,0.0,-1.9348,-1.9651,0.0,0.0,0.0,0.0,-2.7189,-2.854,-2.9867,-2.9939,-2.9732,-2.9365,-2.9326,0.0,0.0,0.0,0.0,-2.4924,-2.3927,-2.3061,-2.2305,-2.0915,0.0,-2.0178,0.0,0.0,-1.7132,0.0,0.0,0.0,0.0,0.0,-1.765,-1.9885,-2.1129,-2.1634,-2.2313,-2.269,0.0,0.0,-2.2208,-2.2289,-2.2096,-2.2199,-2.2299,-2.145,-2.1095,-2.0855,-2.0112,-1.9833,-1.978,-1.9744,-1.9744,-1.9762,-1.9726,-1.9726,-1.9699,-1.962,-1.9267,-1.8943,0.0,0.0,0.0,0.0,0.0,0.0,0.0,0.0,0.0,0.0,0.0,0.0,0.0,0.0,0.0,0.0,0.0,0.0,0.0,0.0,-1.1501,-1.1331,0.0,0.0,0.0,0.0,0.0,-1.7637,-1.8523,-1.9196,-1.9708,-1.9398,-1.925,-1.925,-1.894,-1.8577,-1.8127,-1.8068,-1.7808,-1.7372,-1.7199,-1.7065,-1.6939,-1.6803,-1.6684,-1.6607,-1.6607,-1.6586,-1.6543,-1.6586,-1.6663,-1.674,-1.91,0.0,0.0,-2.1176,0.0,0.0,-2.2321,0.0,0.0,-2.6267,-2.7666,0.0,-2.9699,-3.0288,-3.0365,-2.9729,-2.9691,0.0,-2.8175,0.0,0.0,-2.5659,-2.5271,-2.4499,-2.3259,-2.2078,0.0,-2.0885,0.0,0.0,-1.7143,0.0,0.0,0.0,0.0,-1.799,0.0,-2.015,-2.1486,-2.204,-2.2686,0.0,0.0,-2.2944,-2.2904,-2.3044,-2.2783,-2.2642,-2.2481,-2.1949,-2.1668,-2.1408,-2.085,-2.0456,-2.0235,-2.0501,-2.04,-2.0175,-2.0157,-2.0139,-2.0082,-1.9819,-1.9459,-1.9206,-1.9291,-1.9256,-1.9189,0.0,0.0,0.0,0.0,0.0,0.0,0.0,0.0,0.0,0.0,0.0,0.0,0.0,0.0,0.0,0.0,0.0,0.0,0.0,0.0,0.0,0.0,0.0,0.0,-1.7219,-1.8192,-1.8929,-1.942,-1.9213,-1.9007,-1.8822,-1.8553,-1.8187,-1.776,-1.7659,-1.7372,-1.6939,-1.6846,-1.6761,-1.6697,-1.6654,-1.6577,-1.65,-1.65,-1.65,-1.65,-1.65,-1.6556,-1.6599,0.0,0.0,0.0,0.0,0.0,0.0,0.0,-2.4614,0.0,-2.641,0.0,-2.8674,-2.8674,-2.9781,-3.0342,-2.9941,0.0,-2.9281,-2.8062,-2.8393,-2.7835,-2.5999,-2.6346,-2.5751,-2.3947,-2.3235,0.0,0.0,0.0,0.0,-1.6376,0.0,0.0,0.0,0.0,0.0,0.0,-2.0894,-2.2157,-2.2543,-2.3223,-2.3889,-2.442,-2.3937,-2.376,-2.376,-2.3653,-2.3002,-2.2268,-2.2672,-2.2405,-2.1888,-2.1798,-2.1349,-2.0942,-2.153,-2.1231,-2.0703,-2.0703,-2.0628,-2.0438,-1.9857,-1.9708,-1.9708,-1.9708,-1.9708,-1.9708,-1.9708,-1.9708,-1.9678,0.0,0.0,0.0,0.0,0.0,0.0,0.0,0.0,0.0,0.0,0.0,0.0,0.0,0.0,0.0,0.0,0.0,0.0,0.0,0.0,0.0,-1.6801,-1.7903,-1.87,-1.9161,0.0,-1.8765,-1.8461,-1.8226,-1.7928,-1.7598,-1.7455,-1.7199,-1.6854,-1.674,-1.6675,-1.6654,-1.6556,-1.65,-1.65,-1.65,-1.65,-1.65,-1.65,-1.65,-1.65,0.0,0.0,0.0,0.0,0.0,-2.6385,-2.7483,-2.763,-2.7748,-2.8056,-2.9291,-3.0145,-3.0145,-3.034,-3.0485,-3.0384,-3.0027,0.0,0.0,0.0,0.0,-2.7067,-2.675,-2.5925,-2.4482,-2.3,-2.1849,0.0,-1.8241,-1.6524,-1.5823,0.0,0.0,0.0,0.0,0.0,-1.836,-2.0734,0.0,-2.1963,-2.3119,-2.3661,-2.3767,-2.3659,-2.3653,-2.3616,-2.3595,-2.3482,-2.3269,-2.2843,-2.2634,-2.2454,-2.1899,-2.164,-2.1545,-2.1665,-2.1231,-2.0703,-2.0703,-2.0303,-1.9857,-1.9738,-1.9708,-1.9708,-1.9708,-1.9708,-1.9708,-1.9708,-1.9708,-1.9528,-1.8972,0.0,0.0,0.0,0.0,0.0,0.0,0.0,0.0,0.0,0.0,0.0,0.0,0.0,0.0,0.0,0.0,0.0,0.0,0.0,0.0,0.0,-1.7432,0.0,0.0,0.0,-1.8068,-1.8324,-1.7537,-1.7115,-1.7044,-1.6897,-1.6803,-1.6718,-1.6599,-1.6543,-1.6522,-1.65,-1.65,-1.65,-1.65,-1.65,-1.65,-1.65,-1.65,-1.65,0.0,0.0,0.0,0.0,0.0,0.0,0.0,-3.0149,0.0,-2.9643,-3.01,-3.0506,-3.0506,-3.0931,-3.099,-3.0393,-2.9844,-2.9406,-2.9051,-2.8575,-2.7996,-2.7342,-2.7093,0.0,-2.5151,-2.3655,-2.248,-2.167,-1.8794,-1.678,0.0,0.0,0.0,0.0,0.0,-1.7867,0.0,0.0,0.0,-2.2298,-2.3221,-2.3595,-2.3595,-2.3595,-2.3595,-2.3595,-2.3595,-2.3595,-2.355,-2.3251,-2.3182,-2.3122,-2.2787,-2.2458,-2.2283,-2.2592,-2.2233,-2.1739,-2.1739,-2.1265,-2.0647,-2.0303,-1.9944,-1.9708,-1.9708,-1.9708,-1.9708,-1.9708,-1.9708,-1.9513,-1.8822,-1.8147,0.0,0.0,0.0,0.0,0.0,0.0,0.0,0.0,0.0,0.0,0.0,0.0,0.0,0.0,0.0,0.0,0.0,0.0,0.0,0.0,0.0,0.0,0.0,0.0,0.0,-1.7578,-1.7065,-1.6803,-1.6782,-1.6663,-1.6599,-1.6599,-1.6522,-1.65,-1.65,-1.65,-1.65,-1.65,-1.65,-1.65,-1.65,-1.65,-1.65,-1.65,0.0,-2.6833,0.0,0.0,-2.9006,0.0,-3.0808,-3.2216,-3.263,-3.1172,-3.0969,-3.091,-3.0803,-3.145,-3.1428,-3.0252,-2.9632,-2.9033,-2.8334,-2.8207,-2.7929,-2.7393,-2.7362,-2.6883,-2.5839,-2.4507,-2.3206,0.0,0.0,0.0,0.0,0.0,0.0,0.0,0.0,0.0,0.0,0.0,-2.247,-2.2748,-2.3355,-2.3595,-2.3595,-2.3595,-2.3595,-2.3595,-2.3595,-2.3595,-2.3595,-2.3595,-2.3595,-2.3595,-2.3595,-2.3266,-2.2987,-2.346,-2.3182,-2.2703,-2.2703,-2.2224,-2.1545,-2.0872,-2.0303,-1.9887,-1.9738,-1.9708,-1.9708,-1.9708,-1.9708,-1.9513,-1.8822,-1.8371,0.0,0.0,0.0,0.0,0.0,0.0,0.0,0.0,0.0,0.0,0.0,0.0,0.0,0.0,0.0,0.0,-1.1644,-1.225,-1.3403,0.0,0.0,-1.662,-1.6818,0.0,-1.722,-1.6968,-1.6748,-1.6654,-1.6654,-1.6556,-1.65,-1.65,-1.65,-1.65,-1.65,-1.65,-1.65,-1.65,-1.65,-1.65,-1.65,-1.65,-1.65,-1.65,0.0,0.0,0.0,0.0,0.0,0.0,-3.2486,-3.374,-3.4154,-3.2702,-3.2481,-3.2302,-3.1806,-3.1843,-3.1389,-3.0117,-2.9568,-2.9033,-2.8334,-2.7894,-2.763,-2.757,-2.757,-2.7245,-2.6512,-2.5187,-2.3595,0.0,0.0,-1.7942,0.0,0.0,0.0,0.0,0.0,0.0,0.0,-2.1864,-2.2669,-2.2748,-2.3355,-2.3595,-2.3595,-2.3595,-2.3595,-2.3595,-2.3595,-2.3595,-2.3595,-2.3595,-2.3595,-2.3595,-2.3595,-2.3565,-2.352,-2.358,-2.3182,-2.2703,-2.2703,-2.2224,-2.1545,-2.0872,-2.0643,-2.0453,-1.9842,-1.9708,-1.9708,-1.9708,-1.9708,-1.9513,-1.8822,-1.9151,-1.9106,0.0,0.0,0.0,0.0,0.0,0.0,0.0,0.0,0.0,0.0,0.0,0.0,0.0,0.0,0.0,-1.1323,-1.1638,-1.2881,-1.5227,0.0,-1.584,-1.6886,-1.6817,-1.6947,-1.725,-1.6765,-1.6522,-1.6522,-1.65,-1.65,-1.65,-1.65,-1.65,-1.65,-1.65,-1.65,-1.65,-1.65,-1.65,-1.65,-1.65,-1.65,-1.6445,0.0,0.0,0.0,0.0,0.0,0.0,0.0,-3.3729,-3.3675,-3.307,-3.3307,-3.3461,-3.3242,-3.2612,-3.1826,-3.0933,-3.0341,-2.9584,-2.8566,-2.8302,-2.8034,-2.7615,-2.76,-2.7465,-2.721,-2.6273,-2.5031,0.0,0.0,-1.9615,-1.7908,-1.7655,0.0,0.0,0.0,-2.1321,-2.2113,-2.3325,-2.4073,-2.4462,-2.4702,-2.4807,-2.4807,-2.4807,-2.4807,-2.4807,-2.4807,-2.4552,-2.4201,-2.4201,-2.3939,-2.3595,-2.3595,-2.3595,-2.3595,-2.3595,-2.343,-2.3236,-2.3236,-2.2793,-2.2239,-2.1984,-2.1306,-2.0628,-2.0363,-1.9989,-1.9708,-1.9708,-1.9708,-1.9618,-1.9346,-1.9181,-1.9044,0.0,0.0,0.0,0.0,0.0,0.0,0.0,0.0,0.0,0.0,0.0,0.0,0.0,0.0,0.0,0.0,-1.1256,0.0,-1.3457,0.0,-1.535,-1.5283,-1.6127,-1.6671,-1.6816,-1.6595,-1.65,-1.65,-1.65,-1.65,-1.65,-1.65,-1.65,-1.65,-1.65,-1.65,-1.65,-1.65,-1.65,-1.65,-1.65,-1.6315,-1.6064,-3.3597,0.0,-3.2613,0.0,-3.3257,-3.2793,-3.4129,-3.3825,-3.3475,-3.3475,-3.3543,-3.3601,-3.3601,-3.2873,-3.2066,-3.1228,-3.0757,-3.0043,-2.8966,-2.8891,-2.8667,-2.8214,-2.8004,0.0,-2.7899,-2.7036,-2.6033,-2.4889,-2.3304,0.0,-2.0139,0.0,0.0,0.0,-2.2263,-2.3056,-2.3939,-2.4605,-2.5158,-2.5615,-2.5615,-2.5615,-2.5615,-2.5615,-2.5615,-2.5615,-2.5615,-2.5292,-2.4889,-2.4889,-2.4575,-2.4118,-2.3729,-2.3595,-2.3595,-2.3595,-2.3595,-2.3595,-2.3595,-2.3302,-2.2927,-2.2748,-2.1829,-2.0946,-2.0733,-2.0183,-1.9708,-1.9708,-1.9708,-1.969,-1.9672,-1.9176,-1.883,-1.9053,0.0,0.0,0.0,0.0,0.0,0.0,0.0,-1.3046,0.0,0.0,0.0,0.0,0.0,0.0,0.0,0.0,0.0,0.0,0.0,0.0,0.0,-1.585,-1.65,-1.65,-1.65,-1.65,-1.65,-1.65,-1.65,-1.65,-1.65,-1.65,-1.65,-1.65,-1.65,-1.65,-1.6479,-1.6479,-1.6457,-1.6293,-1.5998,-1.5656,-3.5678,-3.5959,-3.5943,-3.5976,-3.5959,-3.5711,-3.4998,-3.4423,-3.4101,-3.4101,-3.3113,-3.2425,-3.2425,-3.2425,-3.19,-3.0608,-3.0492,-3.0238,-2.9636,-2.9592,-2.9592,0.0,0.0,-2.8592,-2.8592,-2.7275,-2.6258,-2.56,0.0,0.0,-2.3535,0.0,-2.355,-2.3595,-2.4261,-2.4575,-2.4634,-2.5292,-2.56,-2.5615,-2.5615,-2.5615,-2.5615,-2.5615,-2.5615,-2.5615,-2.5615,-2.5576,-2.56,-2.56,-2.5576,-2.5345,-2.4029,-2.3595,-2.3595,-2.3595,-2.3595,-2.3595,-2.3595,-2.3595,-2.3445,-2.2853,-2.2194,-2.1515,-2.0838,-2.0183,-1.9708,-1.9708,-1.9708,-1.9672,-1.9611,-1.9221,-1.8672,-1.7937,0.0,0.0,0.0,0.0,0.0,0.0,-1.3938,-1.2413,-1.2138,0.0,0.0,0.0,0.0,0.0,0.0,0.0,0.0,-1.3726,-1.4193,0.0,-1.5374,-1.6135,-1.65,-1.65,-1.65,-1.65,-1.65,-1.65,-1.65,-1.65,-1.65,-1.65,-1.65,-1.65,-1.65,-1.65,-1.6436,-1.6392,-1.6328,-1.5812,-1.5512,-1.5299,-3.6055,-3.6059,-3.5928,-3.553,-3.5117,-3.4774,-3.4526,-3.405,-3.3681,-3.3681,-3.298,-3.2475,-3.2475,-3.2068,-3.1635,0.0,-3.1182,-3.0898,0.0,-3.0208,-3.0028,-2.9636,-2.9412,-2.9265,-2.9265,-2.8846,-2.8094,-2.6971,0.0,0.0,0.0,-2.4276,-2.4515,-2.5001,-2.5659,-2.5959,-2.6019,-2.6686,-2.6971,-2.6971,-2.6971,-2.6971,-2.6971,-2.6971,-2.6971,-2.6971,-2.6971,-2.6662,-2.6273,-2.6273,-2.5974,-2.554,-2.5106,-2.4634,-2.4186,-2.3729,-2.3595,-2.3595,-2.3595,-2.3595,-2.355,-2.3355,-2.2853,-2.2209,-2.153,-2.0498,-1.9603,-1.9225,-1.9151,-1.9039,-1.8645,-1.8472,-1.8266,-1.7982,-1.7692,0.0,0.0,0.0,0.0,0.0,0.0,-1.2409,0.0,-1.1759,0.0,0.0,0.0,0.0,0.0,0.0,0.0,0.0,-1.4435,0.0,-1.505,-1.6011,-1.65,-1.65,-1.65,-1.65,-1.65,-1.65,-1.65,-1.65,-1.65,-1.65,-1.65,-1.6457,-1.6436,-1.6414,-1.6318,-1.6253,-1.621,-1.5645,-1.5231,-1.4835,-3.6617,-3.6581,-3.639,-3.5714,-3.5308,-3.4953,-3.469,-3.4147,-3.3789,-3.3789,-3.3276,-3.2886,-3.2886,-3.2512,0.0,-3.154,-3.1511,-3.1316,-3.0883,-3.0896,-3.0717,-3.0328,-3.0058,-2.9924,-2.9924,-2.9726,0.0,-2.8349,-2.769,-2.6931,-2.6084,-2.583,-2.5959,-2.6363,-2.6806,-2.6986,-2.7001,-2.742,-2.76,-2.76,-2.76,-2.76,-2.76,-2.76,-2.76,-2.76,-2.76,-2.733,-2.6986,-2.6986,-2.6692,-2.6303,-2.6048,-2.5689,-2.5158,-2.4268,-2.3984,-2.3924,-2.367,-2.3595,-2.3595,-2.3595,-2.3152,-2.2463,-2.1476,-2.0586,-1.9805,-1.9209,-1.8964,-1.8741,-1.8355,-1.8007,-1.778,-1.7707,-1.7318,-1.6811,-1.6215,0.0,0.0,0.0,0.0,0.0,0.0,-1.3064,0.0,0.0,0.0,0.0,0.0,0.0,0.0,-1.3308,-1.4864,0.0,-1.5512,-1.617,-1.65,-1.65,-1.65,-1.65,-1.65,-1.65,-1.65,-1.65,-1.65,-1.65,-1.65,-1.6436,-1.6392,-1.6371,-1.621,-1.6022,-1.5802,-1.5266,-1.4732,-1.4224,-3.7214,-3.734,-3.7105,0.0,-3.6234,0.0,-3.5326,-3.474,-3.4373,-3.4373,-3.391,-3.3559,-3.3559,-3.3529,-3.3006,-3.175,0.0,0.0,0.0,-3.1511,-3.1511,-3.1511,-3.0883,-3.0567,-3.0567,-3.0013,-2.9726,-2.9666,-2.8996,-2.8667,-2.8652,-2.8034,-2.7735,-2.7735,-2.7735,-2.7735,-2.7735,-2.7735,-2.7735,-2.7735,-2.7735,-2.7735,-2.772,-2.769,-2.766,-2.766,-2.7615,-2.76,-2.76,-2.76,-2.76,-2.748,-2.6881,-2.6662,-2.6393,-2.5053,-2.4649,-2.447,-2.3849,-2.364,-2.3595,-2.3595,-2.3131,-2.2297,-2.0892,-2.0469,-2.0151,-1.9455,-1.8998,-1.8649,-1.8481,-1.778,-1.7222,-1.7165,-1.6778,-1.63,-1.5768,0.0,0.0,0.0,0.0,0.0,0.0,-1.4821,-1.4909,0.0,0.0,0.0,0.0,0.0,-1.2784,-1.4884,-1.5487,-1.6007,-1.6488,-1.65,-1.65,-1.65,-1.65,-1.65,-1.65,-1.65,-1.65,-1.65,-1.65,-1.65,-1.6479,-1.6371,-1.6349,-1.6349,-1.601,-1.5623,-1.522,-1.4663,-1.4082,-1.3549,0.0,0.0,-3.6446,-3.5792,-3.5682,-3.5622,-3.547,-3.5314,-3.5219,-3.5219,-3.4656,-3.4279,-3.4279,-3.3799,-3.3365,-3.3051,-3.2572,-3.2049,-3.154,-3.1511,-3.1511,-3.1511,-3.1346,-3.1256,-3.1256,-3.1122,-3.0806,-3.0283,-2.9654,-2.934,-2.934,-2.9202,-2.9142,-2.9142,-2.9142,-2.9142,-2.9142,-2.9142,-2.9142,-2.9142,-2.9142,-2.9142,-2.9082,-2.8547,-2.8353,-2.8293,-2.7779,-2.76,-2.76,-2.76,-2.76,-2.757,-2.7405,-2.736,-2.7106,-2.5764,-2.4993,-2.4575,-2.441,-2.3948,-2.3516,-2.3516,-2.2939,-2.2207,-2.1448,-2.0543,-1.9589,-1.8679,-1.8044,-1.7517,-1.7089,-1.6837,-1.668,-1.6659,-1.6565,-1.63,-1.5768,-1.558,0.0,0.0,-1.4847,-1.4733,-1.4828,-1.5237,-1.5173,0.0,0.0,0.0,0.0,-1.4261,-1.4544,-1.5467,-1.6032,-1.6362,-1.65,-1.65,-1.65,-1.65,-1.65,-1.65,-1.65,-1.65,-1.6479,-1.6414,-1.6414,-1.6383,-1.6231,-1.5768,-1.5768,-1.601,-1.5073,-1.488,-1.5028,-1.4152,-1.3705,-1.3549,-3.6101,-3.599,-3.5878,-3.5569,-3.5504,-3.5504,-3.5504,-3.5504,-3.5504,-3.5504,-3.5175,-3.4951,-3.4951,-3.4622,-3.4292,-3.3963,-3.3335,-3.2677,-3.1989,-3.1959,-3.1824,-3.1511,-3.1511,-3.1511,-3.1511,-3.1511,-3.1316,-3.0943,-3.0313,-2.9998,-2.9998,-2.9741,-2.9606,-2.9606,-2.9606,-2.9606,-2.9606,-2.9606,-2.9606,-2.9606,-2.9606,-2.9606,-2.9577,-2.919,-2.8988,-2.8875,-2.8622,-2.8252,-2.7931,-2.7946,-2.7752,-2.7514,-2.7423,-2.7423,-2.7274,-2.655,-2.5905,-2.5288,-2.4594,-2.4119,-2.3688,-2.3178,-2.2673,-2.2096,-2.1271,-2.0542,-1.9722,-1.8639,-1.8001,-1.7465,-1.6922,-1.665,-1.65,-1.65,-1.65,-1.63,-1.5768,-1.5693,0.0,-1.5299,-1.5273,-1.5361,-1.5613,-1.5894,-1.5819,-1.5248,-1.5475,0.0,-1.5211,-1.5467,-1.5643,-1.5693,-1.6233,-1.65,-1.65,-1.6479,-1.6414,-1.6362,-1.6362,-1.6362,-1.6362,-1.6362,-1.634,-1.6318,-1.6318,-1.6132,-1.5812,-1.5445,-1.5299,-1.5254,-1.4571,-1.4351,-1.4339,-1.38,-1.3454,-1.3248,-3.5537,-3.5504,-3.5504,-3.5472,-3.5472,-3.5504,-3.5472,-3.5472,-3.5504,-3.5504,-3.5504,-3.5504,-3.5472,-3.5472,-3.5265,-3.465,-3.4113,-3.3469,-3.2706,-3.2662,-3.2392,-3.1824,-3.1795,-3.175,-3.1645,-3.1555,-3.1511,-3.1511,-3.0913,-3.0657,-3.0657,-3.0118,-2.9879,-2.9879,-2.9879,-2.9879,-2.9879,-2.9879,-2.9879,-2.9851,-2.9851,-2.9836,-2.9809,-2.9704,-2.9565,-2.9426,-2.9501,-2.9056,-2.8403,-2.837,-2.7969,-2.7469,-2.7262,-2.7141,-2.7063,-2.7037,-2.6656,-2.5952,-2.471,-2.4218,-2.3757,-2.2623,-2.2305,-2.1978,-2.0848,-2.0462,-1.9996,-1.8958,-1.8297,-1.7765,-1.7315,-1.6829,-1.65,-1.65,-1.65,-1.6337,-1.5881,0.0,-1.5819,-1.5819,-1.5819,-1.6007,-1.645,-1.65,-1.65,-1.65,-1.65,-1.65,-1.65,-1.65,-1.6287,-1.5831,-1.6249,-1.65,-1.65,-1.6414,-1.6318,-1.62,-1.62,-1.62,-1.62,-1.62,-1.62,-1.6178,-1.61,-1.579,-1.5344,-1.513,-1.4823,-1.4434,-1.4177,-1.3884,-1.3597,-1.3525,-1.3248,-1.2905,-3.5587,-3.5504,-3.5439,-3.5294,-3.5392,-3.5439,-3.5261,-3.5392,-3.5504,-3.5504,-3.5504,-3.5439,-3.5261,-3.5392,-3.5394,-3.5112,-3.5138,-3.4666,-3.3425,-3.3335,-3.3305,-3.32,-3.3185,-3.2931,-3.2348,-3.1795,-3.1511,-3.1511,-3.1406,-3.1346,-3.1346,-3.1256,-3.1212,-3.1212,-3.1212,-3.1212,-3.1212,-3.1212,-3.1139,-3.1053,-3.1053,-3.0966,-3.0806,-3.0231,-2.9996,-2.9922,-2.9374,-2.9094,-2.8889,-2.8316,-2.808,-2.7889,-2.7369,-2.6841,-2.6431,-2.6283,-2.5862,-2.5353,-2.5177,-2.4258,-2.3087,-2.1856,-2.1898,-2.1931,-2.0862,-2.0221,-1.9708,-1.9073,-1.8179,-1.7463,-1.7374,-1.6892,-1.65,-1.65,-1.65,-1.6463,-1.6387,0.0,-1.6384,-1.6384,-1.6384,-1.64,-1.6488,-1.65,-1.65,-1.65,-1.65,-1.65,-1.65,-1.65,-1.645,-1.6375,-1.645,-1.6479,-1.6414,-1.6297,-1.6222,-1.62,-1.62,-1.62,-1.62,-1.62,-1.6144,-1.6022,-1.5601,-1.5322,-1.5074,-1.4222,-1.4048,-1.4247,-1.343,-1.332,-1.3549,-1.3162,-1.2954,-1.2905,-3.5231,-3.5213,-3.5213,-3.5082,-3.5096,-3.5096,-3.5049,-3.5115,-3.5213,-3.5326,-3.5261,-3.518,-3.518,-3.518,-3.5148,-3.5034,-3.5213,-3.5026,-3.4305,-3.4123,-3.3858,-3.3514,-3.3499,-3.335,-3.3051,-3.2363,-3.2004,-3.1931,-3.1558,-3.1351,-3.1278,-3.1278,-3.1278,-3.1278,-3.1278,-3.1278,-3.1278,-3.1278,-3.1249,-3.1176,-3.1176,-3.1161,-3.1087,-3.0748,-3.0572,-3.0441,-3.0248,-2.9881,-2.9357,-2.8697,-2.8238,-2.7751,-2.6762,-2.6246,-2.5966,-2.5605,-2.5067,-2.4559,-2.4596,-2.3654,-2.246,-2.1601,-2.1381,-2.1129,-2.0359,-1.9977,-1.9646,-1.9108,-1.8607,-1.8091,-1.7511,-1.7162,-1.6886,-1.655,-1.65,0.0,0.0,-1.65,-1.65,-1.65,-1.65,-1.65,-1.65,-1.65,-1.65,-1.65,-1.65,-1.65,-1.65,-1.65,-1.65,-1.65,-1.6457,-1.6392,-1.6297,-1.6154,-1.6057,-1.5969,-1.5714,-1.5603,-1.5614,-1.53,-1.513,-1.5073,-1.4846,-1.4582,-1.4269,-1.38,-1.3573,-1.3501,-1.3065,-1.3017,-1.321,-1.2968,-1.2905,-1.2905,-3.4902,-3.4968,-3.5001,-3.4868,-3.485,-3.4817,-3.4835,-3.4868,-3.4968,-3.5115,-3.5001,-3.4935,-3.5082,-3.4968,-3.4902,-3.4883,-3.5016,-3.5082,-3.4902,-3.4691,-3.4345,-3.3853,-3.3675,-3.36,-3.36,-3.2959,-3.2571,-3.2464,-3.1783,-3.1412,-3.1309,-3.1161,-3.1117,-3.1117,-3.1117,-3.1117,-3.1117,-3.1117,-3.1087,-3.1014,-3.1014,-3.1014,-3.0984,-3.0984,-3.0895,-3.0762,-3.0925,-3.0455,-2.9652,-2.8991,-2.8326,-2.7555,-2.6344,-2.5902,-2.5676,-2.5143,-2.441,-2.3775,-2.3808,-2.3031,-2.2057,-2.1394,-2.0913,-2.0459,-1.9927,-1.9798,-1.9685,-1.9259,-1.9096,-1.8744,-1.7915,-1.7574,-1.726,-1.6763,0.0,0.0,0.0,-1.65,-1.65,-1.65,-1.65,-1.65,-1.65,-1.65,-1.6479,-1.6479,-1.6457,-1.6436,-1.6436,-1.6457,-1.6479,-1.6479,-1.6392,-1.6297,-1.6144,-1.6022,-1.5891,-1.5792,-1.5311,-1.5108,-1.5085,-1.4536,-1.4305,-1.4294,-1.4188,-1.3931,-1.3597,-1.3478,-1.3224,-1.2905,-1.2905,-1.2905,-1.2905,-1.2905,-1.2905,-1.2905,-3.4902,-3.4902,-3.4868,-3.4731,-3.4817,-3.4835,-3.4731,-3.4817,-3.4902,-3.4935,-3.4902,-3.4883,-3.4765,-3.4835,-3.4835,-3.4731,-3.4835,-3.4935,-3.4902,-3.489,-3.4832,-3.4787,-3.4245,-3.3967,-3.3967,-3.3301,-3.2961,-3.2945,-3.2296,-3.1942,-3.1927,-3.1353,-3.1117,-3.1117,-3.1117,-3.1117,-3.1117,-3.1117,-3.0984,-3.0821,-3.0821,-3.0762,-3.0642,-3.0642,-3.0642,-3.0612,-3.0642,-3.0192,-2.9529,-2.883,-2.818,-2.7488,-2.6773,-2.6157,-2.5602,-2.5057,-2.4064,-2.3187,-2.323,-2.2795,-2.203,-2.1006,-2.0669,-2.0459,-1.9927,-1.9798,-1.9798,-1.9748,-1.9334,-1.8983,-1.8895,-1.8078,-1.7385,-1.7348,0.0,0.0,-1.65,-1.65,-1.65,-1.65,-1.65,-1.65,-1.65,-1.6436,-1.6414,-1.6414,-1.6297,-1.6222,-1.6222,-1.634,-1.6414,-1.6414,-1.6275,-1.6144,-1.6022,-1.5869,-1.5814,-1.5792,-1.5311,-1.5108,-1.5085,-1.4536,-1.4305,-1.4281,-1.3847,-1.3634,-1.3573,-1.3138,-1.2929,-1.2905,-1.2905,-1.2905,-1.2905,-1.2905,-1.2905,-1.2905,-3.4601,-3.4601,-3.4582,-3.4515,-3.4549,-3.4582,-3.4515,-3.4549,-3.4635,-3.475,-3.4683,-3.4616,-3.4698,-3.4616,-3.4582,-3.4515,-3.4683,-3.4716,-3.4601,-3.4716,-3.4817,-3.4902,-3.4699,-3.4566,-3.4566,-3.3932,-3.3576,-3.3434,-3.2757,-3.2386,-3.2307,-3.209,-3.1973,-3.1973,-3.1973,-3.1973,-3.1944,-3.1535,-3.1285,-3.1195,-3.0832,-3.0642,-3.0538,-3.0129,-2.9976,-2.9931,-2.947,-2.9142,-2.883,-2.8152,-2.7744,-2.736,-2.6317,-2.5813,-2.5466,-2.4606,-2.4014,-2.357,-2.3217,-2.2728,-2.2125,-2.1373,-2.0941,-2.05,-1.9938,-1.9798,-1.9798,-1.9798,-1.9648,-1.9384,-1.9058,-1.8657,-1.8179,-1.7524,0.0,-1.6923,-1.655,-1.6457,-1.6436,-1.6436,-1.6362,-1.6362,-1.6436,-1.634,-1.6318,-1.6392,-1.6275,-1.62,-1.62,-1.6253,-1.6253,-1.6141,-1.6088,-1.6044,-1.5988,-1.5869,-1.5792,-1.5792,-1.4983,-1.4605,-1.4582,-1.38,-1.343,-1.3406,-1.3248,-1.3162,-1.3162,-1.2978,-1.2905,-1.2905,-1.2905,-1.2905,-1.2905,-1.2905,-1.2905,-1.2905,-3.4414,-3.4414,-3.4414,-3.4414,-3.4414,-3.4414,-3.4414,-3.4414,-3.4448,-3.4597,-3.4481,-3.4448,-3.4597,-3.4481,-3.4414,-3.4414,-3.4515,-3.4563,-3.4414,-3.4515,-3.465,-3.4735,-3.4735,-3.4735,-3.4735,-3.4343,-3.4043,-3.3911,-3.327,-3.2899,-3.2817,-3.2614,-3.2481,-3.2481,-3.2481,-3.2481,-3.2452,-3.2002,-3.1799,-3.177,-3.1351,-3.1054,-3.0764,-3.0114,-2.9747,-2.942,-2.872,-2.8363,-2.8117,-2.767,-2.7351,-2.7018,-2.6144,-2.5737,-2.5423,-2.4519,-2.413,-2.3866,-2.3258,-2.2832,-2.2406,-2.1882,-2.1232,-2.0591,-2.0189,-1.9936,-1.9798,-1.9798,-1.9798,-1.9698,-1.9309,-1.9108,-1.8757,-1.7969,-1.7693,-1.7393,-1.6807,-1.6632,-1.6548,-1.6417,-1.6275,-1.6231,-1.634,-1.621,-1.6188,-1.6262,-1.6144,-1.6078,-1.6144,-1.61,-1.5979,-1.579,-1.5746,-1.5635,-1.5467,-1.5524,-1.5592,-1.557,-1.4559,-1.4071,-1.4048,-1.3272,-1.2905,-1.2905,-1.2905,-1.2905,-1.2905,-1.2905,-1.2905,-1.2905,-1.2905,-1.2905,-1.2905,-1.2905,-1.2905,-1.2905,-3.4414,-3.4414,-3.4414,-3.4414,-3.4414,-3.4414,-3.4414,-3.4414,-3.4414,-3.4414,-3.4414,-3.4414,-3.4414,-3.4414,-3.4414,-3.4414,-3.4414,-3.4414,-3.4414,-3.4414,-3.4414,-3.4414,-3.4414,-3.4414,-3.4414,-3.4414,-3.4414,-3.4414,-3.3823,-3.3518,-3.3489,-3.2832,-3.2495,-3.2495,-3.2495,-3.2495,-3.2495,-3.2495,-3.2495,-3.2495,-3.2495,-3.1986,-3.1217,-3.068,-3.0007,-2.924,-2.8676,-2.8051,-2.7484,-2.7484,-2.704,-2.6499,-2.6499,-2.6097,-2.5498,-2.4938,-2.4443,-2.3879,-2.3271,-2.3108,-2.297,-2.2418,-2.1493,-2.0704,-2.0704,-2.0251,-1.9811,-1.9811,-1.9798,-1.9798,-1.9798,-1.9359,-1.8946,-1.8821,-1.8337,-1.7815,-1.727,-1.7092,-1.6848,-1.6445,-1.6275,-1.62,-1.62,-1.6066,-1.5988,-1.5988,-1.5869,-1.5859,-1.5988,-1.5869,-1.5647,-1.5311,-1.5164,-1.4846,-1.4305,-1.4823,-1.5085,-1.5085,-1.4082,-1.3597,-1.3586,-1.3113,-1.2905,-1.2905,-1.2905,-1.2905,-1.2905,-1.2905,-1.2905,-1.2905,-1.2905,-1.2905,-1.2905,-1.2905,-1.2905,-1.2905,-3.4414,-3.4414,-3.4414,-3.4414,-3.4414,-3.4414,-3.4414,-3.4414,-3.4414,-3.4414,-3.4414,-3.4414,-3.4414,-3.4414,-3.4414,-3.4414,-3.4414,-3.4414,-3.4414,-3.4414,-3.4414,-3.4414,-3.4414,-3.4414,-3.4414,-3.4414,-3.4414,-3.4414,-3.4225,-3.4124,-3.4124,-3.3935,-3.3848,-3.3848,-3.3848,-3.3848,-3.3786,-3.2797,-3.2349,-3.2288,-3.1269,-3.0732,-3.0453,-2.9785,-2.9374,-2.9031,-2.8019,-2.7527,-2.7303,-2.6909,-2.6692,-2.6499,-2.6499,-2.6373,-2.6122,-2.5523,-2.4996,-2.4424,-2.3891,-2.3409,-2.297,-2.2418,-2.2071,-2.1719,-2.1358,-2.083,-2.0427,-2.0427,-2.0087,-1.9798,-1.9798,-1.9583,-1.9269,-1.8859,-1.8598,-1.8228,-1.7698,-1.7186,-1.6834,-1.6685,-1.6244,-1.5969,-1.6044,-1.5935,-1.5891,-1.5988,-1.5869,-1.5814,-1.5859,-1.5513,-1.5266,-1.5164,-1.4754,-1.4467,-1.4305,-1.4467,-1.4536,-1.4536,-1.3894,-1.3597,-1.3586,-1.3113,-1.2905,-1.2905,-1.2905,-1.2905,-1.2905,-1.2905,-1.2905,-1.2905,-1.2905,-1.2905,-1.2905,-1.2905,-1.2905,-1.2905,-3.4414,-3.4414,-3.4414,-3.4414,-3.4414,-3.4414,-3.4414,-3.4414,-3.4414,-3.4414,-3.4414,-3.4414,-3.4414,-3.4414,-3.4414,-3.4414,-3.4414,-3.4414,-3.4414,-3.4414,-3.4414,-3.4414,-3.4414,-3.4414,-3.4414,-3.4414,-3.4414,-3.4414,-3.4414,-3.4414,-3.4414,-3.4414,-3.4414,-3.4414,-3.4414,-3.4414,-3.4317,-3.3158,-3.2665,-3.2568,-3.1396,-3.0769,-3.0423,-2.9735,-2.9297,-2.8908,-2.794,-2.7469,-2.7231,-2.6939,-2.6675,-2.6499,-2.6499,-2.6499,-2.6386,-2.5774,-2.5372,-2.4958,-2.4205,-2.374,-2.3308,-2.2744,-2.2443,-2.2221,-2.1895,-2.1393,-2.0955,-2.0729,-2.0415,-2.0075,-1.9771,-1.9656,-1.9453,-1.9029,-1.889,-1.8655,-1.8118,-1.7642,-1.7279,-1.7156,-1.652,-1.6149,-1.6227,-1.5979,-1.5836,-1.5913,-1.5859,-1.5792,-1.5792,-1.5356,-1.5006,-1.48,-1.4281,-1.3931,-1.3752,-1.3752,-1.3847,-1.4025,-1.3549,-1.332,-1.332,-1.3017,-1.2905,-1.2905,-1.2905,-1.2905,-1.2905,-1.2905,-1.2905,-1.2905,-1.2905,-1.2905,-1.2905,-1.2905,-1.2905,-1.2905,-3.4414,-3.4414,-3.4414,-3.4414,-3.4414,-3.4414,-3.4414,-3.4414,-3.4414,-3.4414,-3.4414,-3.4414,-3.4414,-3.4414,-3.4414,-3.4414,-3.4414,-3.4414,-3.4414,-3.4414,-3.4414,-3.4414,-3.4414,-3.4414,-3.4414,-3.4414,-3.4414,-3.4414,-3.4414,-3.4366,-3.4298,-3.4298,-3.4264,-3.4196,-3.4196,-3.4196,-3.4147,-3.3332,-3.3003,-3.2932,-3.2182,-3.1466,-3.073,-3.0249,-2.9624,-2.89,-2.8386,-2.7858,-2.7419,-2.7318,-2.6952,-2.6499,-2.6499,-2.6499,-2.6386,-2.5824,-2.5636,-2.5385,-2.4406,-2.4067,-2.3866,-2.3321,-2.2769,-2.2355,-2.2355,-2.1958,-2.1418,-2.0943,-2.0754,-2.0475,-1.9804,-1.9628,-1.9486,-1.9249,-1.9182,-1.9012,-1.8515,-1.8318,-1.805,-1.769,-1.7074,-1.6667,-1.6667,-1.6199,-1.584,-1.5792,-1.5792,-1.5792,-1.5748,-1.5289,-1.48,-1.4247,-1.3776,-1.3344,-1.2905,-1.2905,-1.3113,-1.3525,-1.3113,-1.2905,-1.2905,-1.2905,-1.2905,-1.2905,-1.2905,-1.2905,-1.2905,-1.2905,-1.2905,-1.2905,-1.2905,-1.2905,-1.2905,-1.2905,-1.2905,-1.2905,-3.4414,-3.4414,-3.4414,-3.4414,-3.4414,-3.4414,-3.4414,-3.4414,-3.4414,-3.4414,-3.4414,-3.4414,-3.4414,-3.4414,-3.4414,-3.4414,-3.4414,-3.4414,-3.4414,-3.4414,-3.4414,-3.4414,-3.4414,-3.4414,-3.4414,-3.4414,-3.4414,-3.4414,-3.4414,-3.4079,-3.3451,-3.3451,-3.3157,-3.2591,-3.2591,-3.2591,-3.2555,-3.1733,-3.1402,-3.1328,-3.0608,-3.0177,-3.0024,-2.991,-2.9757,-2.9528,-2.895,-2.8637,-2.8399,-2.757,-2.6952,-2.6499,-2.6499,-2.6499,-2.6461,-2.6348,-2.5984,-2.5548,-2.531,-2.4632,-2.3935,-2.3642,-2.3163,-2.2782,-2.2902,-2.2418,-2.1964,-2.1954,-2.1172,-2.0426,-2.0327,-1.9836,-1.9394,-1.9223,-1.9105,-1.9016,-1.8895,-1.8496,-1.8157,-1.8074,-1.7568,-1.7219,-1.7219,-1.6739,-1.6236,-1.5828,-1.5792,-1.5637,-1.5266,-1.4754,-1.4258,-1.3776,-1.3296,-1.3002,-1.2905,-1.2905,-1.2954,-1.3041,-1.2954,-1.2905,-1.2905,-1.2905,-1.2905,-1.2905,-1.2905,-1.2905,-1.2905,-1.2905,-1.2905,-1.2905,-1.2905,-1.2905,-1.2905,-1.2905,-1.2905,-1.2881,-3.4414,-3.4414,-3.4414,-3.4414,-3.4414,-3.4414,-3.4414,-3.4414,-3.4414,-3.4414,-3.4414,-3.4414,-3.4414,-3.4414,-3.4414,-3.4414,-3.4414,-3.4414,-3.4414,-3.4414,-3.4414,-3.4414,-3.4414,-3.4414,-3.4414,-3.4414,-3.4414,-3.4414,-3.4011,-3.3624,-3.3178,-3.2826,-3.247,-3.211,-3.211,-3.211,-3.2051,-3.123,-3.0895,-3.082,-3.0113,-2.9792,-2.9792,-2.9792,-2.9792,-2.9754,-2.9453,-2.9126,-2.8725,-2.7657,-2.7128,-2.6839,-2.6575,-2.6499,-2.6499,-2.6499,-2.6285,-2.5984,-2.5674,-2.5131,-2.4484,-2.3853,-2.3443,-2.3139,-2.294,-2.2637,-2.2323,-2.2109,-2.1531,-2.089,-2.037,-1.9956,-1.9568,-1.918,-1.9052,-1.8987,-1.8987,-1.8758,-1.8578,-1.8578,-1.8109,-1.7688,-1.7411,-1.6894,-1.6563,-1.656,-1.6559,-1.6243,-1.5533,-1.5183,-1.4591,-1.3631,-1.3337,-1.3086,-1.2905,-1.2905,-1.2905,-1.2905,-1.2905,-1.2905,-1.2905,-1.2905,-1.2905,-1.2905,-1.2905,-1.2905,-1.2905,-1.2905,-1.2905,-1.2905,-1.2905,-1.2905,-1.2905,-1.2905,-1.2856,-1.2783,-3.4414,-3.4414,-3.4414,-3.4414,-3.4414,-3.4414,-3.4414,-3.4414,-3.4414,-3.4414,-3.4414,-3.4414,-3.4414,-3.4414,-3.4414,-3.4414,-3.4414,-3.4414,-3.4414,-3.4414,-3.4414,-3.4414,-3.4414,-3.4414,-3.4414,-3.4264,-3.4264,-3.4414,-3.3589,-3.3143,-3.3003,-3.2254,-3.1819,-3.1723,-3.1723,-3.1723,-3.1649,-3.0983,-3.072,-3.0645,-3.0037,-2.9792,-2.9792,-2.9792,-2.9792,-2.9792,-2.9792,-2.9415,-2.875,-2.7871,-2.7507,-2.7318,-2.6813,-2.6637,-2.6612,-2.6524,-2.6499,-2.6386,-2.5908,-2.5553,-2.5066,-2.4174,-2.3675,-2.3334,-2.2862,-2.269,-2.2524,-2.2046,-2.1844,-2.1455,-2.0463,-2.0119,-1.9825,-1.923,-1.9047,-1.8987,-1.8987,-1.8987,-1.8987,-1.8987,-1.8524,-1.7943,-1.7284,-1.6777,-1.6656,-1.7057,-1.7082,-1.6698,-1.5786,-1.5675,-1.5045,-1.3723,-1.3551,-1.334,-1.3013,-1.2935,-1.2905,-1.2905,-1.2905,-1.2905,-1.2905,-1.2905,-1.2905,-1.2905,-1.2905,-1.2905,-1.2905,-1.2905,-1.2905,-1.2905,-1.2905,-1.2905,-1.2905,-1.2881,-1.2783,-1.2652,-3.4414,-3.4414,-3.4414,-3.4414,-3.4414,-3.4414,-3.4414,-3.4414,-3.4414,-3.4414,-3.4414,-3.4414,-3.4414,-3.4414,-3.4414,-3.4414,-3.4414,-3.4414,-3.4414,-3.4414,-3.4414,-3.4414,-3.4414,-3.4414,-3.4414,-3.3707,-3.3707,-3.4414,-3.3589,-3.2861,-3.2218,-3.1452,-3.0733,-3.0113,-3.0113,-3.0113,-3.0113,-3.0011,-2.9934,-2.9934,-2.983,-2.9792,-2.9792,-2.9792,-2.9792,-2.9792,-2.9792,-2.9415,-2.8863,-2.8712,-2.8386,-2.7896,-2.7344,-2.7203,-2.7115,-2.6637,-2.6499,-2.6474,-2.6399,-2.5852,-2.5252,-2.4982,-2.4067,-2.3198,-2.301,-2.2698,-2.2469,-2.2549,-2.2066,-2.1569,-2.1406,-2.0629,-1.9946,-1.9712,-1.9287,-1.8987,-1.8987,-1.8987,-1.8987,-1.8987,-1.8478,-1.7687,-1.6649,-1.6473,-1.6271,-1.588,-1.5847,-1.5622,-1.5054,-1.5039,-1.4732,-1.4044,-1.3698,-1.3477,-1.3418,-1.3066,-1.2905,-1.2905,-1.2905,-1.2905,-1.2905,-1.2905,-1.2905,-1.2905,-1.2905,-1.2905,-1.2905,-1.2905,-1.2905,-1.2905,-1.2905,-1.2905,-1.2881,-1.2783,-1.2627,-1.2505,-3.4414,-3.4414,-3.4414,-3.4414,-3.4414,-3.4414,-3.4414,-3.4414,-3.4414,-3.4414,-3.4414,-3.4414,-3.4414,-3.4414,-3.4414,-3.4414,-3.4414,-3.4414,-3.4414,-3.4414,-3.4196,-3.3742,-3.3742,-3.3534,-3.3136,-3.2769,-3.2755,-3.3101,-3.2326,-3.1733,-3.1415,-3.0633,-3.0101,-2.9792,-2.9792,-2.9792,-2.9792,-2.9792,-2.9792,-2.9792,-2.9792,-2.9792,-2.9792,-2.9792,-2.9792,-2.9792,-2.9792,-2.9628,-2.9365,-2.9001,-2.8725,-2.8411,-2.7557,-2.7197,-2.7026,-2.6489,-2.6339,-2.6292,-2.6188,-2.5899,-2.5502,-2.5059,-2.4244,-2.3437,-2.3083,-2.2633,-2.2309,-2.2414,-2.2158,-2.1831,-2.1542,-2.1107,-2.0588,-1.9904,-1.9317,-1.8959,-1.8996,-1.8429,-1.7984,-1.7984,-1.7765,-1.7401,-1.6907,-1.6528,-1.6388,-1.6483,-1.6488,-1.6165,-1.5386,-1.556,-1.5195,-1.4124,-1.4189,-1.4102,-1.3831,-1.3437,-1.3232,-1.3232,-1.3023,-1.2905,-1.2905,-1.2905,-1.2905,-1.2905,-1.2905,-1.2856,-1.2783,-1.2783,-1.2735,-1.2676,-1.2759,-1.2783,-1.2774,-1.2627,-1.2505,-1.2382]},{"header":{"parameterUnit":"m.s-1","parameterCategory":1,"la1":30.6,"la2":28.766,"lo1":-90.7593,"lo2":-88.6598,"dy":0.0162,"dx":0.0183,"nx":116,"ny":114,"refTime":"2024-05-19T06:00:00:Z","depth":0,"parameterNumber":3,"parameterNumberName":"V-component_of_WINDS"},"data":[0.0,0.0,0.0,0.0,0.0,0.0,0.0,0.0,0.0,0.0,0.0,0.0,0.0,0.0,0.0,0.0,0.0,0.0,0.0,0.0,0.0,0.0,0.0,0.0,0.0,0.0,0.0,0.0,0.0,0.0,0.0,0.0,0.0,0.0,0.0,0.0,0.0,0.0,0.0,0.0,0.0,0.0,0.0,0.0,0.0,0.0,0.0,0.0,0.0,0.0,0.0,0.0,0.0,0.0,0.0,0.0,0.0,0.0,0.0,0.0,0.0,0.0,0.0,0.0,0.0,0.0,0.0,0.0,0.0,0.0,0.0,0.0,0.0,0.0,0.0,0.0,0.0,0.0,0.0,0.0,0.0,0.0,0.0,0.0,0.0,0.0,0.0,0.0,0.0,0.0,0.0,0.0,0.0,0.0,0.0,0.0,0.0,0.0,0.0,0.0,0.0,0.0,0.0,0.0,0.0,0.0,0.0,0.0,0.0,0.0,0.0,0.0,0.0,0.0,0.0,0.0,0.0,0.0,0.0,0.0,0.0,0.0,0.0,0.0,0.0,0.0,0.0,0.0,0.0,0.0,0.0,0.0,0.0,0.0,0.0,0.0,0.0,0.0,0.0,0.0,0.0,0.0,0.0,0.0,0.0,0.0,0.0,0.0,0.0,0.0,0.0,0.0,0.0,0.0,0.0,0.0,0.0,0.0,0.0,0.0,0.0,0.0,0.0,0.0,0.0,0.0,0.0,0.0,0.0,0.0,0.0,0.0,0.0,0.0,0.0,0.0,0.0,0.0,0.0,0.0,0.0,0.0,0.0,0.0,0.0,0.0,0.0,0.0,0.0,0.0,0.0,0.0,0.0,0.0,0.0,0.0,0.0,0.0,0.0,0.0,0.0,0.0,0.0,0.0,0.0,0.0,0.0,0.0,0.0,0.0,0.0,0.0,0.0,0.0,0.0,0.0,0.0,0.0,0.0,0.0,0.0,0.0,0.0,0.0,0.0,0.0,0.0,0.0,0.0,0.0,0.0,0.0,0.0,0.0,0.0,0.0,0.0,0.0,0.0,0.0,0.0,0.0,0.0,0.0,0.0,0.0,0.0,0.0,0.0,0.0,0.0,0.0,0.0,0.0,0.0,0.0,0.0,0.0,0.0,0.0,0.0,0.0,0.0,0.0,0.0,0.0,0.0,0.0,0.0,0.0,0.0,0.0,0.0,0.0,0.0,0.0,0.0,0.0,0.0,0.0,0.0,0.0,0.0,0.0,0.0,0.0,0.0,0.0,0.0,0.0,0.0,0.0,0.0,0.0,0.0,0.0,0.0,0.0,0.0,0.0,0.0,0.0,0.0,0.0,0.0,0.0,0.0,0.0,0.0,0.0,0.0,0.0,0.0,0.0,0.0,0.0,0.0,0.0,0.0,0.0,0.0,0.0,0.0,0.0,0.0,0.0,0.0,0.0,0.0,0.0,0.0,0.0,0.0,0.0,0.0,0.0,0.0,0.0,0.0,0.0,0.0,0.0,0.0,0.0,0.0,0.0,0.0,0.0,0.0,0.0,0.0,0.0,0.0,0.0,0.0,0.0,0.0,0.0,0.0,0.0,0.0,0.0,0.0,0.0,0.0,0.0,0.0,0.0,0.0,0.0,0.0,0.0,0.0,0.0,0.0,0.0,0.0,0.0,0.0,0.0,0.0,0.0,0.0,0.0,0.0,0.0,0.0,0.0,0.0,0.0,0.0,0.0,0.0,0.0,0.0,0.0,0.0,0.0,0.0,0.0,0.0,0.0,0.0,0.0,0.0,0.0,0.0,0.0,0.0,0.0,0.0,0.0,0.0,0.0,0.0,0.0,0.0,0.0,0.0,0.0,0.0,0.0,0.0,0.0,0.0,0.0,0.0,0.0,0.0,0.0,0.0,0.0,0.0,0.0,0.0,0.0,0.0,0.0,0.0,0.0,0.0,0.0,0.0,0.0,0.0,0.0,0.0,0.0,0.0,0.0,0.0,0.0,0.0,0.0,0.0,0.0,0.0,0.0,0.0,0.0,0.0,0.0,0.0,0.0,0.0,0.0,0.0,0.0,0.0,0.0,0.0,0.0,0.0,0.0,0.0,0.0,0.0,0.0,0.0,0.0,0.0,0.0,0.0,0.0,0.0,0.0,0.0,0.0,0.0,0.0,0.0,0.0,0.0,0.0,0.0,0.0,0.0,0.0,0.0,0.0,0.0,0.0,0.0,0.0,0.0,0.0,0.0,0.0,0.0,0.0,0.0,0.0,0.0,0.0,0.0,0.0,0.0,0.0,0.0,0.0,0.0,0.0,0.0,0.0,0.0,0.0,0.0,0.0,0.0,0.0,0.0,0.0,0.0,0.0,0.0,0.0,0.0,0.0,0.0,0.0,0.0,0.0,0.0,0.0,0.0,0.0,0.0,0.0,0.0,0.0,0.0,0.0,0.0,0.0,0.0,0.0,0.0,0.0,0.0,0.0,0.0,0.0,0.0,0.0,0.0,0.0,0.0,0.0,0.0,0.0,0.0,0.0,0.0,0.0,0.0,0.0,0.0,0.0,0.0,0.0,0.0,0.0,0.0,0.0,0.0,0.0,0.0,0.0,0.0,0.0,0.0,0.0,0.0,0.0,0.0,0.0,0.0,0.0,0.0,0.0,0.0,0.0,0.0,0.0,0.0,0.0,0.0,0.0,0.0,0.0,0.0,0.0,0.0,0.0,0.0,0.0,0.0,0.0,0.0,0.0,0.0,0.0,0.0,0.0,0.0,0.0,0.0,0.0,0.0,0.0,0.0,0.0,0.0,0.0,0.0,0.0,0.0,0.0,0.0,0.0,0.0,0.0,0.0,0.0,0.0,0.0,0.0,0.0,0.0,0.0,0.0,0.0,0.0,0.0,0.0,0.0,0.0,0.0,0.0,0.0,0.0,0.0,0.0,0.0,0.0,0.0,0.0,0.0,0.0,0.0,0.0,0.0,0.0,0.0,0.0,0.0,0.0,0.0,0.0,0.0,0.0,0.0,0.0,0.0,0.0,0.0,0.0,0.0,0.0,0.0,0.0,0.0,0.0,0.0,0.0,0.0,0.0,0.0,0.0,0.0,0.0,0.0,0.0,0.0,0.0,0.0,0.0,0.0,0.0,0.0,0.0,0.0,0.0,0.0,0.0,0.0,0.0,0.0,0.0,0.0,0.0,0.0,0.0,0.0,0.0,0.0,0.0,0.0,0.0,0.0,0.0,0.0,0.0,0.0,0.0,0.0,0.0,0.0,0.0,0.0,0.0,0.0,0.0,0.0,0.0,0.0,0.0,0.0,0.0,0.0,0.0,0.0,0.0,0.0,0.0,0.0,0.0,0.0,0.0,0.0,0.0,0.0,0.0,0.0,0.0,0.0,0.0,0.0,0.0,0.0,0.0,0.0,0.0,0.0,0.0,0.0,0.0,0.0,0.0,0.0,0.0,0.0,0.0,0.0,0.0,0.0,0.0,0.0,0.0,0.0,0.0,0.0,0.0,0.0,0.0,0.0,0.0,0.0,0.0,0.0,0.0,0.0,0.0,0.0,0.0,0.0,0.0,0.0,0.0,0.0,0.0,0.0,0.0,0.0,0.0,0.0,0.0,0.0,0.0,0.0,0.0,0.0,0.0,0.0,0.0,0.0,0.0,0.0,0.0,0.0,0.0,0.0,0.0,0.0,0.0,0.0,0.0,0.0,0.0,0.0,0.0,0.0,0.0,0.0,0.0,0.0,0.0,0.0,0.0,0.0,0.0,0.0,0.0,0.0,0.0,0.0,0.0,0.0,0.0,0.0,0.0,0.0,0.0,0.0,0.0,0.0,0.0,0.0,0.0,0.0,0.0,0.0,0.0,0.0,0.0,0.0,0.0,0.0,0.0,0.0,0.0,0.0,0.0,0.0,0.0,0.0,0.0,0.0,0.0,0.0,0.0,0.0,0.0,0.0,0.0,0.0,0.0,0.0,0.0,0.0,0.0,0.0,0.0,0.0,0.0,0.0,0.0,0.0,0.0,0.0,0.0,0.0,0.0,0.0,0.0,0.0,0.0,0.0,0.0,0.0,0.0,0.0,0.0,0.0,0.0,0.0,0.0,0.0,0.0,0.0,0.0,0.0,0.0,0.0,0.0,0.0,0.0,0.0,0.0,0.0,0.0,0.0,0.0,0.0,0.0,0.0,0.0,0.0,0.0,0.0,0.0,0.0,0.0,0.0,0.0,0.0,0.0,0.0,0.0,0.0,0.0,0.0,0.0,0.0,0.0,0.0,0.0,0.0,0.0,0.0,0.0,0.0,0.0,0.0,0.0,0.0,0.0,0.0,0.0,0.0,0.0,0.0,0.0,0.0,0.0,0.0,0.0,0.0,0.0,0.0,0.0,0.0,0.0,0.0,0.0,0.0,0.0,0.0,0.0,0.0,0.0,0.0,0.0,0.0,0.0,0.0,0.0,0.0,0.0,0.0,0.0,0.0,0.0,0.0,0.0,0.0,0.0,0.0,0.0,0.0,0.0,0.0,0.0,0.0,0.0,0.0,0.0,0.0,0.0,0.0,0.0,0.0,0.0,0.0,0.0,0.0,0.0,0.0,0.0,0.0,0.0,0.0,0.0,0.0,0.0,0.0,0.0,0.0,0.0,0.0,0.0,0.0,0.0,0.0,0.0,0.0,0.0,0.0,0.0,0.0,0.0,0.0,0.0,0.0,0.0,0.0,0.0,0.0,0.0,0.0,0.0,0.0,0.0,0.0,0.0,0.0,0.0,0.0,0.0,0.0,0.0,0.0,0.0,0.0,0.0,0.0,0.0,0.0,0.0,0.0,0.0,0.0,0.0,0.0,0.0,0.0,0.0,0.0,0.0,0.0,0.0,0.0,0.0,0.0,0.0,0.0,0.0,0.0,0.0,0.0,0.0,0.0,0.0,0.0,0.0,0.0,0.0,0.0,0.0,0.0,0.0,0.0,0.0,0.0,0.0,0.0,0.0,0.0,0.0,0.0,0.0,0.0,0.0,0.0,0.0,0.0,0.0,0.0,0.0,0.0,0.0,0.0,0.0,0.0,0.0,0.0,0.0,0.0,0.0,0.0,0.0,0.0,0.0,0.0,0.0,0.0,0.0,0.0,0.0,0.0,0.0,0.0,0.0,0.0,0.0,0.0,0.0,0.0,0.0,0.0,0.0,0.0,0.0,0.0,0.0,0.0,0.0,0.0,0.0,0.0,0.0,0.0,0.0,0.0,0.0,0.0,0.0,0.0,0.0,0.0,0.0,0.0,0.0,0.0,0.0,0.0,0.0,0.0,0.0,0.0,0.0,0.0,0.0,0.0,0.0,0.0,0.0,0.0,0.0,0.0,0.0,0.0,0.0,0.0,0.0,0.0,0.0,0.0,0.0,0.0,0.0,0.0,0.0,0.0,0.0,0.0,0.0,0.0,0.0,0.0,0.0,0.0,0.0,0.0,0.0,0.0,0.0,0.0,0.0,0.0,0.0,0.0,0.0,0.0,0.0,0.0,0.0,0.0,0.0,0.0,0.0,0.0,0.0,0.0,0.0,0.0,0.0,0.0,0.0,0.0,0.0,0.0,0.0,0.0,0.0,0.0,0.0,0.0,0.0,0.0,0.0,0.0,0.0,0.0,0.0,0.0,0.0,0.0,0.0,0.0,0.0,0.0,0.0,0.0,0.0,0.0,0.0,0.0,0.0,0.0,0.0,0.0,0.0,0.0,0.0,0.0,0.0,0.0,0.0,0.0,0.0,0.0,0.0,0.0,0.0,0.0,0.0,0.0,0.0,0.0,0.0,0.0,0.0,0.0,0.0,0.0,0.0,0.0,0.0,0.0,0.0,0.0,0.0,0.0,0.0,0.0,0.0,0.0,0.0,0.0,0.0,0.0,0.0,0.0,0.0,0.0,0.0,0.0,0.0,0.0,0.0,0.0,0.0,0.0,0.0,0.0,0.0,0.0,0.0,0.0,0.0,0.0,0.0,0.0,0.0,0.0,0.0,0.0,0.0,0.0,0.0,0.0,0.0,0.0,0.0,0.0,0.0,0.0,0.0,0.0,0.0,0.0,0.0,0.0,0.0,0.0,0.0,0.0,0.0,0.0,0.4785,0.0,0.0,0.0,0.0,0.0,0.0,0.0,0.0,0.0,0.0,0.0,0.0,0.0,0.0,0.0,0.0,0.0,0.0,0.0,0.0,0.0,0.0,0.0,0.0,0.1856,0.1873,0.1809,0.186,0.1873,0.1809,0.0,0.0,0.0,0.0,0.0,0.1803,0.1803,0.1867,0.1989,0.2066,0.2214,0.2439,0.254,0.2576,0.2548,0.0,0.0,0.0,0.0,0.0,0.0,0.0,0.0,0.0,0.0,0.0,0.0,0.0,0.0,0.0,0.0,0.0,0.0,0.0,0.0,0.0,0.0,0.0,0.0,0.0,0.0,0.0,0.0,0.0,0.0,0.0,0.0,0.0,0.0,0.0,0.0,0.0,0.0,0.0,0.0,0.0,0.0,0.0,0.0,0.0,0.0,0.0,0.0,0.0,0.0,0.0,0.0,0.0,0.0,0.0,0.0,0.0,0.0,0.0,0.0,0.0,0.0,0.0,0.0,0.0,0.0,0.0,0.0,0.0,0.0,0.0,0.5274,0.0,0.0,0.0,0.0,0.0,0.0,0.0,0.0,0.0,0.0,0.0,0.0,0.0,0.0,0.0,0.0,0.0,0.0,0.0,0.0,0.0,0.1746,0.1784,0.1885,0.1944,0.193,0.1991,0.1982,0.188,0.1846,0.0,0.0,0.0,0.1803,0.1803,0.1846,0.1972,0.2197,0.23,0.2589,0.3059,0.2925,0.2819,0.2726,0.2493,0.0,0.0,0.0,0.0,0.0,0.0,0.0,0.0,0.0,0.0,0.0,0.0,0.0,0.0,0.0,0.0,0.0,0.0,0.0,0.0,0.0,0.0,0.0,0.0,0.0,0.0,0.0,0.0,0.0,0.0,0.0,0.0,0.0,0.0,0.0,0.0,0.0,0.0,0.0,0.0,0.0,0.0,0.0,0.0,0.0,0.0,0.0,0.0,0.0,0.0,0.0,0.0,0.0,0.0,0.0,0.0,0.0,0.0,0.0,0.0,0.0,0.0,0.0,0.7237,0.7373,0.7242,0.7255,0.7396,0.7586,0.7078,0.6538,0.6012,0.5872,0.0,0.0,0.0,0.0,0.0,0.0,0.0,0.0,0.0,0.0,0.0,0.0,0.0,0.0,0.0,0.0,0.0,0.0,0.0,0.1516,0.169,0.1732,0.1917,0.2373,0.2269,0.2174,0.215,0.2043,0.0,0.0,0.1803,0.1803,0.1803,0.2029,0.2171,0.2197,0.272,0.3212,0.367,0.3549,0.3539,0.3607,0.301,0.2812,0.2924,0.0,0.0,0.0,0.0,0.0,0.0,0.0,0.0,0.0,0.0,0.0,0.0,0.0,0.0,0.0,0.0,0.0,0.0,0.0,0.0,0.0,0.0,0.0,0.0,0.0,0.0,0.0,0.0,0.0,0.0,0.0,0.0,0.0,0.0,0.0,0.0,0.0,0.0,0.0,0.0,0.0,0.3985,0.4255,0.0,0.0,0.0,0.0,0.0,0.0,0.0,0.0,0.0,0.0,0.0,0.0,0.0,0.6843,0.686,0.8168,0.8652,0.833,0.9471,0.9646,0.8985,0.9083,0.9044,0.8874,0.9018,0.0,0.6916,0.6725,0.0,0.0,0.0,0.0,0.0,0.0,0.0,0.0,0.0,0.0,0.0,0.0,0.0,0.0,0.0,0.0,0.0,0.0,0.0,0.0,0.0,0.1926,0.2254,0.2217,0.2208,0.2157,0.2047,0.1827,0.1691,0.1631,0.1815,0.1909,0.1909,0.2218,0.2542,0.288,0.3378,0.3748,0.4018,0.3897,0.3904,0.4004,0.3641,0.332,0.3057,0.2955,0.0,0.0,0.0,0.0,0.0,0.0,0.0,0.0,0.0,0.0,0.0,0.0,0.0,0.0,0.0,0.0,0.0,0.0,0.0,0.0,0.0,0.0,0.0,0.0,0.0,0.0,0.0,0.0,0.0,0.0,0.0,0.0,0.0,0.0,0.0,0.0,0.0,0.0,0.0,0.404,0.4262,0.4389,0.4422,0.4395,0.0,0.0,0.0,0.0,0.0,0.0,0.0,0.0,0.0,0.7031,0.7591,0.7979,0.8182,0.9198,0.9482,0.9055,1.0103,1.0343,0.9854,1.0083,1.0233,1.0326,1.0145,0.9791,0.9255,0.8079,0.7273,0.6722,0.0,0.0,0.0,0.0,0.6527,0.667,0.0,0.0,0.0,0.0,0.0,0.0,0.0,0.0,0.0,0.0,0.0,0.0,0.1197,0.1865,0.2231,0.1995,0.2029,0.2017,0.1852,0.1607,0.1496,0.155,0.1788,0.1992,0.2123,0.2505,0.3032,0.3681,0.3968,0.4206,0.4388,0.4237,0.4227,0.4328,0.4176,0.3839,0.3371,0.3182,0.3067,0.0,0.0,0.0,0.0,0.0,0.0,0.0,0.0,0.0,0.0,0.0,0.0,0.0,0.0,0.0,0.0,0.0,0.0,0.0,0.0,0.0,0.0,0.0,0.0,0.0,0.0,0.0,0.0,0.0,0.0,0.0,0.0,0.0,0.0,0.0,0.0,0.0,0.0,0.4509,0.4736,0.4736,0.5048,0.5095,0.0,0.0,0.0,0.0,0.0,0.0,0.6286,0.6544,0.7133,0.8106,0.8731,0.9211,0.9517,1.0171,1.0265,0.9794,1.0438,1.0645,1.045,1.0596,1.0805,1.1065,1.0668,1.0709,1.0922,0.9383,0.8406,0.7829,0.7219,0.6933,0.6898,0.7406,0.7577,0.7728,0.0,0.0,0.0,0.0,0.0,0.0,0.0,0.0,0.0,0.0,0.0,0.0907,0.1087,0.1208,0.1442,0.1876,0.1787,0.1716,0.0,0.0,0.1489,0.1676,0.1707,0.1957,0.2458,0.2986,0.3644,0.4433,0.4457,0.4621,0.485,0.4728,0.466,0.4663,0.4535,0.4348,0.41,0.3597,0.3479,0.3627,0.0,0.0,0.0,0.0,0.0,0.0,0.0,0.0,0.0,0.0,0.0,0.0,0.0,0.0,0.0,0.0,0.0,0.0,0.0,0.0,0.0,0.0,0.0,0.0,0.0,0.0,0.0,0.0,0.0,0.0,0.0,0.0,0.0,0.0,0.0,0.0,0.0,0.0,0.0,0.5628,0.6152,0.0,0.0,0.0,0.0,0.6129,0.6378,0.6956,0.7925,0.7997,0.8586,0.9838,1.035,1.061,1.0634,1.1289,1.1341,1.0838,1.0863,1.0889,1.0863,1.0617,1.0523,1.0547,1.0507,1.0652,1.0856,1.0379,0.9914,0.9444,0.9038,0.8633,0.8351,0.875,0.9421,1.019,0.0,0.0,0.0,0.0,0.0,0.0405,0.0427,0.0415,0.0408,0.0398,0.0706,0.0891,0.0789,0.1332,0.1691,0.1649,0.1598,0.1547,0.1502,0.124,0.1263,0.1684,0.1983,0.2525,0.3324,0.3596,0.4005,0.4491,0.459,0.4714,0.4887,0.4863,0.484,0.4833,0.4779,0.4674,0.4501,0.3995,0.3743,0.368,0.352,0.3491,0.0,0.0,0.0,0.0,0.0,0.0,0.0,0.0,0.0,0.0,0.0,0.0,0.0,0.0,0.0,0.0,0.0,0.0,0.0,0.0,0.0,0.0,0.0,0.0,0.0,0.0,0.0,0.0,0.0,0.0,0.0,0.0,0.0,0.0,0.0,0.0,0.0,0.6514,0.6907,0.0,0.6446,0.6787,0.7043,0.7043,0.7281,0.7697,0.827,0.8297,0.8803,0.9967,1.0151,1.0523,1.1087,1.1499,1.1528,1.115,1.1502,1.1578,1.1427,1.1494,1.1528,1.1528,1.1528,1.1502,1.1392,1.125,1.0842,1.0272,0.9911,0.9577,0.9336,0.9613,0.9799,1.0034,0.0,0.0,0.0,0.0,0.0538,0.0394,0.0371,0.0292,0.0278,0.0388,0.0639,0.0758,0.064,0.12,0.1499,0.128,0.1257,0.1242,0.1194,0.0967,0.1035,0.151,0.219,0.3001,0.391,0.4094,0.4341,0.4716,0.4789,0.4918,0.5067,0.5013,0.4958,0.4958,0.4911,0.4863,0.4745,0.4395,0.4098,0.3861,0.3851,0.3825,0.3818,0.0,0.0,0.0,0.0,0.0,0.0,0.0,0.0,0.0,0.0,0.0,0.0,0.0,0.0,0.0,0.0,0.0,0.0,0.0,0.0,0.0,0.0,0.0,0.0,0.0,0.0,0.0,0.0,0.0,0.0,0.0,0.0,0.0,0.0,0.0,0.7074,0.7161,0.7638,0.7745,0.7221,0.7645,0.7906,0.7799,0.8056,0.831,0.851,0.8543,0.8957,0.9832,0.9865,1.0226,1.0998,1.1293,1.1352,1.1175,1.1628,1.1753,1.1569,1.1753,1.1828,1.1828,1.1828,1.1778,1.1703,1.1703,1.1494,1.1123,1.0625,1.039,1.0358,1.0499,1.067,1.101,0.0,0.0,0.0,0.0747,0.0538,0.0337,0.0135,0.0112,0.0183,0.0374,0.0405,0.0474,0.0683,0.077,0.0806,0.0806,0.0806,0.0793,0.0791,0.073,0.0864,0.1221,0.235,0.3351,0.42,0.4402,0.4691,0.51,0.51,0.5209,0.5392,0.5209,0.5106,0.51,0.4965,0.4897,0.4884,0.4769,0.4538,0.4217,0.4271,0.4191,0.4087,0.0,0.0,0.0,0.0,0.0,0.0,0.0,0.0,0.0,0.0,0.0,0.0,0.0,0.0,0.0,0.0,0.0,0.0,0.0,0.0,0.0,0.0,0.0,0.0,0.0,0.0,0.0,0.0,0.0,0.0,0.0,0.0,0.0,0.6633,0.7366,0.7812,0.7564,0.8277,0.8464,0.7618,0.8297,0.8691,0.8435,0.8651,0.8804,0.8804,0.8804,0.9035,0.9588,0.9614,0.9891,1.0415,1.0778,1.0947,1.0947,1.12,1.1326,1.1326,1.1326,1.1326,1.1326,1.1326,1.1477,1.1703,1.1703,1.1852,1.2002,1.1226,1.1116,1.1401,1.1385,1.2138,1.3218,0.0,0.0,0.1016,0.0747,0.0658,0.0548,0.0348,0.0315,0.0336,0.0396,0.0396,0.0468,0.0675,0.0763,0.0809,0.0805,0.0788,0.0797,0.0789,0.0,0.1125,0.2111,0.3368,0.4217,0.4562,0.4718,0.4904,0.51,0.51,0.5209,0.5392,0.5351,0.533,0.5327,0.5289,0.5176,0.5036,0.4995,0.4874,0.4668,0.4366,0.4378,0.4566,0.0,0.0,0.0,0.0,0.0,0.0,0.0,0.0,0.0,0.0,0.0,0.0,0.0,0.0,0.0,0.0,0.0,0.0,0.0,0.0,0.0,0.0,0.0,0.0,0.0,0.0,0.0,0.0,0.0,0.0,0.0,0.0,0.7539,0.7539,0.7963,0.8297,0.8424,0.8657,0.8711,0.8464,0.8664,0.8778,0.8697,0.8758,0.8804,0.8804,0.8804,0.9035,0.9588,0.9987,1.0448,1.1057,1.1519,1.1769,1.1769,1.1852,1.1877,1.1877,1.1877,1.1877,1.1877,1.1877,1.1794,1.1703,1.1703,1.1628,1.1528,1.1494,1.1427,1.1293,1.1116,1.1485,1.2181,0.0,0.123,0.1127,0.0803,0.0747,0.0669,0.047,0.037,0.038,0.0552,0.0495,0.0522,0.0723,0.0766,0.0799,0.0804,0.0806,0.0789,0.0789,0.1005,0.1657,0.2854,0.3756,0.4422,0.4867,0.4931,0.5049,0.5226,0.5226,0.5274,0.5395,0.5395,0.5395,0.5395,0.5395,0.5344,0.5223,0.5127,0.5052,0.4975,0.484,0.4811,0.4816,0.467,0.4836,0.5157,0.5284,0.5406,0.5513,0.559,0.0,0.0,0.0,0.0,0.0,0.0,0.0,0.0,0.0,0.0,0.0,0.0,0.0,0.0,0.0,0.0,0.0,0.0,0.0,0.0,0.0,0.0,0.0,0.0,0.7695,0.8156,0.8258,0.845,0.8617,0.8784,0.8804,0.8804,0.8804,0.8891,0.8958,0.8958,0.9105,0.9178,0.9178,0.9058,0.9119,0.9427,1.0016,1.0522,1.0922,1.1642,1.204,1.2101,1.2101,1.2101,1.2101,1.2101,1.2101,0.0,1.2101,1.2002,1.1877,1.1877,1.1778,0.0,0.0,0.0,0.0,0.0,1.1825,1.2295,0.0,0.1388,0.1296,0.0914,0.0847,0.0792,0.0612,0.0417,0.0406,0.0756,0.0,0.0605,0.077,0.0782,0.0791,0.0794,0.0799,0.0832,0.0,0.0,0.0,0.348,0.3804,0.4312,0.509,0.5117,0.5223,0.5395,0.5395,0.5395,0.5395,0.5395,0.5395,0.5395,0.5395,0.5395,0.5385,0.5213,0.5123,0.5163,0.5485,0.5372,0.5006,0.5203,0.5204,0.5208,0.5963,0.5941,0.561,0.5944,0.0,0.0,0.0,0.0,0.0,0.0,0.0,0.0,0.0,0.0,0.0,0.0,0.0,0.0,0.0,0.0,0.0,0.0,0.0,0.0,0.0,0.0,0.0,0.0,0.8277,0.8571,0.8864,0.8905,0.8878,0.8818,0.8838,0.8858,0.8858,0.9091,0.9264,0.9264,0.9532,0.9715,0.9715,0.0,0.0,0.0,0.0,1.0451,1.0637,1.1573,1.2095,1.2165,1.2165,1.2147,1.2101,1.2101,1.2101,1.2101,1.2101,1.2101,1.2101,1.2101,1.2101,1.2051,1.1553,1.1519,1.1776,1.2129,1.2496,1.2822,0.0,0.1332,0.1399,0.1163,0.1127,0.1127,0.1141,0.0928,0.0777,0.0801,0.0764,0.0741,0.0715,0.0728,0.073,0.0713,0.0709,0.0946,0.0,0.0,0.2939,0.3698,0.4466,0.4915,0.5096,0.5254,0.5365,0.5395,0.5395,0.5395,0.5395,0.5395,0.5395,0.5395,0.5395,0.5395,0.5392,0.5361,0.5351,0.5356,0.5655,0.57,0.5637,0.5667,0.6231,0.6939,0.6569,0.7027,0.7766,0.7625,0.7346,0.7032,0.6761,0.0,0.0,0.0,0.0,0.0,0.0,0.0,0.0,0.0,0.0,0.0,0.0,0.0,0.0,0.0,0.0,0.0,0.0,0.0,0.0,0.8505,0.8858,0.9151,0.9472,0.9512,0.9339,0.8864,0.8984,0.9131,0.9131,0.9426,0.9599,0.9599,0.9653,0.9715,0.9715,0.9626,0.9851,1.0393,1.0972,1.1511,1.2095,1.2707,1.2886,1.2579,0.0,0.0,1.2101,1.2101,1.2101,1.2101,1.2101,1.2101,1.2101,1.2101,1.2101,1.2076,1.1753,1.1519,1.1418,1.1485,1.156,1.1735,0.1332,0.1433,0.1491,0.1285,0.1252,0.1274,0.1343,0.1145,0.1057,0.1225,0.1023,0.0877,0.0952,0.0779,0.0653,0.0653,0.0902,0.0,0.0,0.2752,0.3471,0.4226,0.4809,0.5133,0.5243,0.5354,0.5395,0.5395,0.5395,0.5395,0.5395,0.5395,0.5395,0.5395,0.5395,0.5395,0.5395,0.5395,0.5591,0.5924,0.63,0.656,0.6697,0.6276,0.6485,0.7036,0.6998,0.7401,0.7947,0.7923,0.7791,0.7578,0.7256,0.6659,0.5985,0.0,0.0,0.0,0.0,0.0,0.0,0.0,0.0,0.0,0.0,0.0,0.0,0.0,0.0,0.7078,0.0,0.0,0.8352,0.8987,0.9225,0.937,0.9514,0.9628,0.9573,0.9279,0.9372,0.9459,0.9459,0.9726,0.99,0.99,1.007,1.0151,1.0151,0.998,1.0048,1.0396,1.0974,1.1347,1.1499,1.2569,1.2909,1.2502,1.2832,1.2909,1.2707,1.2707,1.2597,1.2395,1.2395,1.2285,1.2101,1.2101,1.2101,1.2076,1.1952,1.1753,1.1477,1.1352,1.1477,1.1769,0.1566,0.1602,0.1588,0.1408,0.133,0.1343,0.1466,0.13,0.1284,0.1617,0.1293,0.1056,0.1126,0.0843,0.0652,0.0,0.0,0.0,0.0,0.3128,0.392,0.4692,0.502,0.5233,0.5392,0.5395,0.5395,0.5395,0.5395,0.5395,0.5395,0.5395,0.5395,0.5395,0.5395,0.5395,0.5395,0.5524,0.5914,0.6445,0.6998,0.7416,0.7624,0.6963,0.6783,0.6966,0.7354,0.7555,0.7638,0.7838,0.7885,0.7759,0.7487,0.7053,0.6538,0.5991,0.5688,0.0,0.0,0.0,0.0,0.0,0.0,0.0,0.0,0.0,0.6647,0.7102,0.7367,0.7753,0.8579,0.8641,0.876,0.933,0.9473,0.9522,0.9574,0.9735,0.9883,0.9883,0.9806,0.9766,0.9766,1.0033,1.02,1.02,1.0452,1.0593,1.0593,1.0334,1.0262,1.0384,1.1007,1.1271,1.1081,1.2497,1.3021,1.2623,1.3148,1.3369,1.3296,1.3296,1.3112,1.2808,1.2808,1.2634,1.233,1.2248,1.2211,1.2211,1.2128,1.1977,1.1744,1.1544,1.1744,1.2166,0.0,0.1773,0.1748,0.167,0.1463,0.1408,0.1703,0.153,0.1405,0.1508,0.1475,0.13,0.0976,0.0899,0.0786,0.0,0.0,0.0,0.2435,0.3284,0.409,0.485,0.5179,0.5378,0.5395,0.5395,0.5395,0.5395,0.5395,0.5395,0.5395,0.5395,0.5395,0.5395,0.5395,0.5395,0.5428,0.6042,0.6334,0.6465,0.7302,0.7668,0.7712,0.7709,0.7842,0.7975,0.7628,0.7733,0.8069,0.8273,0.8132,0.7911,0.8033,0.7813,0.7358,0.6829,0.0,0.6161,0.5633,0.5523,0.5688,0.6155,0.6112,0.6294,0.0,0.0,0.7533,0.8387,0.8599,0.8733,0.9061,0.9131,0.9197,0.9538,0.9741,0.9923,1.0171,1.0367,1.0492,1.0492,1.0227,1.0067,1.0067,1.0334,1.0546,1.0546,1.0573,1.0593,1.0593,1.0559,1.0791,1.1339,1.1997,1.2623,1.3172,1.393,1.4114,1.3724,1.379,1.3663,1.3296,1.3296,1.3268,1.3222,1.3222,1.3204,1.3131,1.2781,1.2625,1.2588,1.2239,1.2076,1.2051,1.2082,1.2132,1.228,0.0,0.177,0.1792,0.1759,0.1659,0.1637,0.1781,0.1703,0.1674,0.1774,0.1617,0.1465,0.1367,0.108,0.0901,0.0884,0.0,0.0,0.2806,0.3596,0.4287,0.487,0.5118,0.527,0.5392,0.5395,0.5395,0.5395,0.5395,0.5395,0.5395,0.5395,0.5395,0.5395,0.5395,0.562,0.6009,0.6268,0.6887,0.7645,0.7845,0.8064,0.8282,0.8183,0.8018,0.7843,0.7765,0.7891,0.0,0.0,0.7852,0.7659,0.7685,0.7432,0.7066,0.669,0.6589,0.0,0.6738,0.6763,0.0,0.0,0.7224,0.7504,0.8075,0.8257,0.8467,0.8937,0.9042,0.9125,0.9381,0.9378,0.9412,0.0,0.985,1.0007,1.0098,1.022,1.0301,1.0301,1.004,1.0,1.0372,1.0519,1.0593,1.0593,1.0593,1.0593,1.0593,1.0593,1.0719,1.0965,1.1608,1.2066,1.2343,1.339,1.3832,1.3664,1.4064,1.4167,1.4002,1.4002,1.3864,1.3626,1.3396,1.3296,1.3277,1.313,1.2909,1.267,1.2505,1.2303,1.2126,1.2397,1.2495,1.2593,0.0,0.177,0.1803,0.1803,0.1803,0.1803,0.1803,0.1803,0.1833,0.1933,0.173,0.1593,0.1612,0.1275,0.1074,0.1152,0.0,0.0,0.0,0.3758,0.4382,0.4775,0.4941,0.5142,0.5327,0.533,0.5351,0.5395,0.5395,0.5395,0.5395,0.5395,0.5395,0.5395,0.5395,0.5785,0.6396,0.6542,0.7297,0.8366,0.8218,0.832,0.856,0.8229,0.7909,0.7646,0.7803,0.7777,0.0,0.0,0.7457,0.7296,0.7261,0.7111,0.6907,0.669,0.6817,0.7091,0.7401,0.0,0.0,0.7685,0.8003,0.8317,0.8334,0.8632,0.8944,0.9045,0.9074,0.9137,0.9331,0.9339,0.9395,0.9655,0.9875,1.0015,1.0079,1.0084,1.0083,1.0083,0.986,0.9909,1.0419,1.0472,1.0506,1.0586,1.0593,1.0593,1.0593,1.0593,1.0688,1.0839,1.1452,1.1849,1.2035,1.3208,1.3791,1.3791,1.4258,1.4515,1.4515,1.4515,1.4341,1.4038,1.3754,1.3626,1.3626,1.3506,1.3304,1.3001,1.2781,1.2514,1.2298,1.2592,1.2774,1.291,0.0,0.0,0.1803,0.1803,0.1803,0.1803,0.1803,0.1803,0.1806,0.1809,0.1798,0.1691,0.1432,0.1397,0.1365,0.0,0.0,0.0,0.2793,0.3678,0.4291,0.4498,0.4765,0.4961,0.5103,0.5106,0.5209,0.5395,0.5395,0.5395,0.5395,0.5395,0.5395,0.5395,0.5395,0.5785,0.642,0.6894,0.7471,0.8108,0.8259,0.8309,0.8271,0.7794,0.7664,0.7708,0.7708,0.0,0.0,0.0,0.7098,0.6851,0.7045,0.718,0.0,0.7206,0.7364,0.0,0.0,0.0,0.7889,0.7889,0.8093,0.8357,0.8626,0.8698,0.871,0.871,0.871,0.871,0.8716,0.8927,0.9162,0.9383,0.9737,1.0079,1.0269,1.0177,1.0083,1.0083,0.986,0.98,0.0,1.0134,1.0247,1.0573,1.0593,1.0593,1.0593,1.0593,1.087,1.1452,1.212,1.2787,1.342,1.413,1.4476,1.4476,1.4476,1.4515,1.4515,1.4515,1.4476,1.4488,1.4478,1.4478,1.4442,1.4029,1.3883,1.3791,1.3001,1.2689,1.2676,1.2706,1.291,1.3242,0.0,0.0,0.0,0.1803,0.1803,0.1803,0.1803,0.1803,0.1803,0.1803,0.188,0.0,0.0,0.0,0.0,0.0,0.0,0.0,0.3107,0.3546,0.3958,0.4277,0.4511,0.4684,0.4836,0.4908,0.4985,0.5067,0.5067,0.5067,0.5067,0.5067,0.5067,0.5067,0.5067,0.5654,0.6661,0.6843,0.7629,0.873,0.8225,0.8135,0.8259,0.7892,0.7394,0.6937,0.0,0.0,0.0,0.0,0.652,0.6469,0.6551,0.0,0.0,0.7103,0.7261,0.7431,0.0,0.0,0.8201,0.8375,0.8644,0.8854,0.8945,0.8969,0.8969,0.8969,0.8824,0.871,0.871,0.8894,0.91,0.9376,0.9703,1.003,1.0281,1.0177,1.0047,0.9853,0.974,0.0,0.0,0.0,0.0,1.0566,1.0593,1.0593,1.0593,1.0996,1.1303,1.1483,1.2581,1.326,1.3511,1.4169,1.4515,1.4515,1.4515,1.4515,1.4515,1.4515,1.4515,1.4515,1.4515,1.4515,1.4506,1.4359,1.413,1.3883,1.3608,1.3167,1.2696,1.2696,1.2912,1.3266,0.0,0.0,0.0,0.0,0.0,0.0,0.0,0.0,0.0,0.0,0.0,0.0,0.0,0.0,0.0,0.0,0.0,0.0,0.0,0.0,0.3707,0.3971,0.4144,0.4348,0.4528,0.4547,0.465,0.4755,0.4755,0.4755,0.4755,0.4755,0.4755,0.4755,0.4755,0.5334,0.6345,0.6416,0.7175,0.8281,0.7833,0.7742,0.7858,0.7481,0.6991,0.0,0.0,0.0,0.0,0.6059,0.0,0.0,0.0,0.0,0.0,0.7243,0.7455,0.7689,0.8181,0.8357,0.8518,0.8782,0.8975,0.9095,0.9095,0.9095,0.9047,0.8854,0.8686,0.8536,0.8417,0.8649,0.8941,0.9214,0.9564,0.9889,1.0167,1.0091,0.9956,0.9807,0.9717,0.0,0.0,0.0,0.0,1.0566,1.0593,1.0593,1.0593,1.1178,1.1608,1.1849,1.2926,1.3631,1.3851,1.4297,1.4515,1.4515,1.4515,1.4515,1.4515,1.4515,1.4515,1.4515,1.4515,1.4515,1.4515,1.4515,1.4359,1.4093,1.3966,1.3589,1.3093,1.2799,1.3008,1.3439,0.0,0.0,0.0,0.0,0.0,0.0,0.0,0.0,0.0,0.0,0.0,0.0,0.0,0.0,0.0,0.0,0.0,0.0,0.0,0.0,0.0,0.358,0.3723,0.3917,0.4157,0.4062,0.4158,0.4467,0.4467,0.4467,0.4467,0.4467,0.4467,0.4467,0.4467,0.4851,0.5494,0.5706,0.6222,0.689,0.7079,0.7164,0.7103,0.6662,0.0,0.0,0.0,0.0,0.0,0.0,0.0,0.0,0.0,0.0,0.0,0.0,0.0,0.8279,0.8303,0.853,0.8794,0.9053,0.9107,0.9095,0.9095,0.9077,0.8915,0.8375,0.8255,0.8171,0.0,0.0,0.8677,0.8964,0.9334,0.9685,0.9977,0.9949,0.9927,0.0,0.0,0.0,0.0,0.0,0.0,1.0573,0.0,1.0624,1.0656,1.1209,1.1849,1.2543,1.3199,1.3851,1.4476,1.4515,1.4515,1.4515,1.4515,1.4515,1.4515,1.4515,1.4515,1.4515,1.4515,1.4515,1.4515,1.4515,1.4515,1.4469,1.4075,1.3929,1.3819,1.301,1.3173,1.3731,0.0,0.0,0.0,0.0,0.0,0.0,0.0,0.0,0.0,0.0,0.0,0.0,0.0,0.0,0.0,0.0,0.0,0.0,0.0,0.0,0.0,0.0,0.0,0.3692,0.3748,0.3927,0.0,0.0,0.0,0.4134,0.4134,0.4134,0.4134,0.4134,0.4134,0.4463,0.5069,0.5494,0.6012,0.6599,0.0,0.6617,0.6574,0.0,0.0,0.0,0.0,0.0,0.0,0.0,0.0,0.0,0.0,0.0,0.734,0.0,0.0,0.8087,0.8506,0.88,0.9065,0.9342,0.9251,0.9095,0.9095,0.8794,0.8399,0.8069,0.7894,0.7691,0.0,0.0,0.0,0.8848,0.9224,0.0,1.0141,1.0211,0.0,0.0,0.0,1.0311,1.0134,1.0314,0.0,0.0,1.0593,1.0807,1.124,1.1872,1.2551,1.323,1.3881,1.4327,1.4515,1.4515,1.4515,1.4515,1.4515,1.4515,1.4515,1.4515,1.4515,1.4515,1.4515,1.4515,1.4515,1.4515,1.4515,1.4506,1.4396,1.4157,1.3856,1.3314,1.3413,1.3731,0.0,0.0,0.0,0.0,0.0,0.0,0.0,0.0,0.0,0.0,0.0,0.0,0.0,0.0,0.0,0.0,0.0,0.0,0.0,0.0,0.0,0.0,0.0,0.3314,0.3378,0.3519,0.0,0.0,0.0,0.0,0.0,0.376,0.3827,0.3827,0.4006,0.4274,0.4626,0.509,0.0,0.0,0.0,0.0,0.0,0.0,0.0,0.0,0.0,0.0,0.0,0.0,0.0,0.6748,0.723,0.743,0.7556,0.7816,0.0,0.8333,0.877,0.9077,0.9318,0.9474,0.9306,0.9041,0.8806,0.8411,0.8015,0.7657,0.7503,0.0,0.0,0.0,0.0,0.0,0.0,0.0,0.983,1.0065,1.0154,0.0,1.0479,0.0,1.0514,1.0687,1.0787,0.0,1.0914,1.1146,1.1483,1.2397,1.31,1.3472,1.4139,1.4515,1.4515,1.4515,1.4515,1.4515,1.4515,1.4515,1.4515,1.4515,1.4515,1.4515,0.0,1.4515,1.4515,1.4515,1.4515,1.4515,1.4515,1.4368,1.4112,1.3708,1.3916,1.4316,0.0,0.0,0.0,0.0,0.0,0.0,0.0,0.0,0.0,0.0,0.0,0.0,0.0,0.0,0.0,0.0,0.0,0.0,0.0,0.0,0.0,0.0,0.0,0.2949,0.0,0.0,0.0,0.0,0.0,0.0,0.0,0.0,0.0,0.0,0.0,0.0,0.0,0.0,0.0,0.0,0.0,0.0,0.0,0.0,0.0,0.0,0.0,0.0,0.0,0.0,0.6924,0.708,0.7492,0.7762,0.7955,0.8213,0.8506,0.8764,0.9023,0.9306,0.9504,0.9468,0.9251,0.8909,0.8357,0.8009,0.7669,0.7188,0.0,0.7085,0.7048,0.0,0.7771,0.7858,0.0,0.9053,0.9394,0.9743,1.004,1.0269,1.0718,1.0995,1.0995,1.0995,1.0995,1.0995,1.1323,1.1545,1.1639,1.2834,1.3541,1.3631,1.4198,1.4515,1.4515,1.4515,1.4515,1.4515,1.4515,1.4515,1.4515,1.4515,1.4515,1.4515,1.4515,0.0,1.4515,1.4515,1.4515,1.4515,1.4515,1.4515,1.446,1.4125,1.4467,1.4974,0.0,0.0,0.0,0.0,0.0,0.0,0.0,0.0,0.0,0.0,0.251,0.2455,0.0,0.0,0.0,0.0,0.0,0.0,0.0,0.0,0.0,0.0,0.0,0.0,0.0,0.0,0.0,0.0,0.0,0.0,0.0,0.0,0.0,0.0,0.0,0.0,0.0,0.0,0.0,0.0,0.0,0.0,0.0,0.0,0.0,0.0,0.0,0.0,0.0,0.0,0.7328,0.751,0.776,0.7865,0.7955,0.8213,0.8506,0.8764,0.9023,0.9306,0.9462,0.9227,0.8969,0.8638,0.8087,0.7647,0.0,0.0,0.0,0.6483,0.624,0.69,0.0,0.779,0.0,0.0,0.0,0.0,0.9892,0.0,0.0,0.0,0.0,0.0,0.0,0.0,0.0,1.1725,1.2297,1.3078,1.3761,1.4297,1.4446,1.4515,1.4515,1.4515,1.4515,1.4515,1.4515,1.4515,1.4515,1.4515,1.4515,1.4515,1.4515,0.0,1.4515,1.4515,1.4515,1.4515,1.4515,1.4515,1.449,1.4487,1.4496,1.4516,0.0,0.0,0.0,0.0,0.0,0.0,0.0,0.2371,0.2574,0.2869,0.2846,0.2788,0.2716,0.2699,0.2696,0.0,0.0,0.0,0.0,0.0,0.0,0.0,0.0,0.0,0.0,0.0,0.0,0.0,0.0,0.0,0.0,0.0,0.0,0.0,0.0,0.0,0.0,0.0,0.0,0.0,0.0,0.0,0.0,0.0,0.0,0.0,0.0,0.0,0.0,0.0,0.7053,0.7644,0.7844,0.7901,0.7955,0.8213,0.8506,0.8764,0.9023,0.9306,0.945,0.9167,0.8903,0.8536,0.7894,0.0,0.0,0.0,0.0,0.5991,0.5991,0.0,0.0,0.0,0.0,0.0,0.0,0.0,0.0,0.0,0.0,0.0,0.0,0.0,0.0,0.0,0.0,1.1787,1.2451,1.3472,1.4169,1.4476,1.4515,1.4515,1.4515,1.4515,1.4515,1.4515,1.4515,1.4515,1.4515,1.4515,1.4515,1.4515,1.4515,0.0,1.4515,1.4515,1.4515,1.4515,1.4515,1.4645,1.4874,1.4898,1.4992,1.5112,0.0,0.0,0.0,0.0,0.0,0.0,0.0,0.2832,0.3002,0.3259,0.3285,0.3206,0.2968,0.2818,0.2733,0.0,0.0,0.0,0.0,0.0,0.0,0.0,0.0,0.0,0.0,0.0,0.0,0.0,0.0,0.0,0.0,0.0,0.0,0.0,0.0,0.0,0.0,0.0,0.0,0.0,0.0,0.0,0.0,0.0,0.0,0.0,0.0,0.0,0.0,0.0,0.6556,0.7309,0.7567,0.7763,0.7955,0.8213,0.8506,0.8764,0.9023,0.9306,0.9438,0.9095,0.886,0.8487,0.771,0.7103,0.0,0.0,0.0,0.5596,0.5857,0.0,0.0,0.0,0.0,0.0,0.0,0.0,0.0,0.0,0.0,0.0,0.0,0.0,0.0,0.0,0.0,0.0,1.2665,1.3851,1.4515,1.4515,1.4515,1.4515,1.4515,1.4515,1.4515,1.4515,1.4515,1.4515,1.4515,1.4515,1.4515,1.4515,1.4515,0.0,0.0,1.4515,1.4515,1.4515,1.4515,1.4793,1.5196,1.5323,1.5544,1.5756,0.0,0.0,0.0,0.0,0.0,0.0,0.0,0.3528,0.3677,0.3882,0.391,0.3706,0.3136,0.2956,0.2832,0.0,0.0,0.0,0.0,0.0,0.0,0.0,0.0,0.0,0.0,0.0,0.0,0.0,0.0,0.0,0.0,0.0,0.0,0.0,0.0,0.0,0.0,0.0,0.0,0.0,0.0,0.0,0.0,0.0,0.0,0.0,0.0,0.0,0.0,0.0,0.0,0.6228,0.675,0.7369,0.7955,0.8213,0.0,0.0,0.9023,0.9306,0.939,0.8872,0.8722,0.8439,0.7449,0.0,0.0,0.0,0.5426,0.5323,0.5584,0.5851,0.0,0.0,0.0,0.0,0.0,0.0,0.0,0.0,0.0,0.0,0.0,0.0,0.0,0.0,0.0,0.0,1.3351,1.41,1.4515,1.4515,1.4515,1.4515,1.4515,1.4515,1.4515,1.4515,1.4515,1.4515,1.4515,1.4515,1.4515,1.4515,1.4515,0.0,0.0,1.4515,1.4515,1.4515,1.4515,1.4793,1.5255,1.5671,1.5836,1.5783,0.0,0.0,0.0,0.0,0.0,0.0,0.3234,0.3386,0.3638,0.4273,0.4369,0.4281,0.4087,0.3686,0.3231,0.275,0.0,0.0,0.0,0.0,0.0,0.0,0.0,0.0,0.0,0.0,0.0,0.0,0.0,0.0,0.0,0.0,0.0,0.0,0.0,0.0,0.0,0.0,0.0,0.0,0.0,0.0,0.0,0.0,0.0,0.0,0.0,0.0,0.0,0.0,0.0,0.0,0.6064,0.6613,0.0,0.0,0.8051,0.8267,0.856,0.8824,0.8939,0.8566,0.8447,0.8235,0.7382,0.0,0.0,0.5711,0.5262,0.5049,0.531,0.5486,0.5824,0.0,0.6745,0.7135,0.0,0.0,0.0,0.0,0.0,0.0,0.0,0.0,0.0,0.0,0.0,0.0,1.2879,1.3541,1.407,1.4485,1.4515,1.4515,1.4515,1.4515,1.4515,1.4515,1.4515,1.4515,1.4515,1.4515,1.4515,1.4515,1.4515,0.0,0.0,1.4515,1.4515,1.4515,1.4515,1.4961,1.5642,1.5845,1.6032,1.617,0.0,0.0,0.0,0.0,0.0,0.2334,0.3224,0.3326,0.3577,0.4406,0.4504,0.4524,0.4569,0.4039,0.3488,0.3,0.2807,0.0,0.0,0.0,0.0,0.0,0.0,0.0,0.0,0.0,0.0,0.0,0.0,0.0,0.0,0.0,0.0,0.0,0.0,0.0,0.0,0.0,0.0,0.0,0.0,0.0,0.0,0.0,0.0,0.0,0.0,0.0,0.0,0.0,0.0,0.0,0.0,0.0,0.0,0.0,0.7677,0.7961,0.8219,0.8512,0.8644,0.8357,0.8291,0.8109,0.0,0.0,0.6258,0.5711,0.5177,0.4891,0.5176,0.5276,0.5583,0.6441,0.6528,0.6883,0.8023,0.0,0.0,0.0,0.0,0.0,0.0,0.0,0.0,0.0,0.0,0.0,1.2481,1.3139,1.3821,1.4485,1.4515,1.4515,1.4515,1.4515,1.4515,1.4515,1.4515,1.4515,1.4515,1.4515,1.4515,1.4515,1.4515,0.0,0.0,1.4515,1.4515,1.4515,1.4515,1.5079,1.5902,1.5902,1.6238,1.6656,0.0,0.0,0.0,0.0,0.0,0.0,0.3351,0.3496,0.3691,0.4239,0.43,0.43,0.43,0.3775,0.345,0.3575,0.3037,0.0,0.0,0.0,0.0,0.0,0.0,0.0,0.0,0.0,0.0,0.0,0.0,0.0,0.0,0.0,0.0,0.0,0.0,0.0,0.0,0.0,0.0,0.0,0.0,0.0,0.0,0.0,0.0,0.0,0.0,0.0,0.0,0.0,0.0,0.0,0.0,0.0,0.0,0.0,0.7532,0.7961,0.8219,0.8512,0.8644,0.8357,0.8291,0.8109,0.0,0.6793,0.6258,0.5711,0.5177,0.4897,0.5233,0.5305,0.5526,0.62,0.6635,0.7089,0.7641,0.0,0.0,0.0,0.0,0.0,0.0,0.0,0.0,0.0,0.0,0.0,1.2451,1.3139,1.3821,1.4485,1.4515,1.4515,1.4515,1.4515,1.4515,1.4515,1.4515,1.4515,1.4515,1.4515,1.4515,0.0,0.0,0.0,0.0,1.4515,1.4515,1.4515,1.4515,1.5079,1.5902,1.5902,1.6485,1.7164,0.0,0.0,0.0,0.0,0.0,0.0,0.0,0.3453,0.3761,0.4298,0.4684,0.4987,0.5175,0.4606,0.4237,0.4272,0.3305,0.0,0.0,0.0,0.0,0.0,0.0,0.0,0.0,0.0,0.4773,0.5172,0.5692,0.0,0.0,0.0,0.0,0.0,0.0,0.0,0.0,0.0,0.0,0.0,0.0,0.0,0.0,0.0,0.0,0.0,0.0,0.0,0.0,0.0,0.0,0.0,0.0,0.0,0.0,0.0,0.0,0.0,0.743,0.7618,0.7661,0.7576,0.7558,0.7394,0.6782,0.638,0.5973,0.5438,0.5055,0.4847,0.4991,0.5069,0.5381,0.6298,0.658,0.0,0.0,0.0,0.0,0.0,0.0,0.0,0.0,0.0,0.0,0.0,0.0,0.0,1.3161,1.3821,1.4297,1.4476,1.4515,1.4515,1.4515,1.4515,1.4515,1.4515,1.4515,1.4515,1.4515,1.4515,1.4515,0.0,0.0,0.0,0.0,1.4515,1.4515,1.4515,1.4515,1.5079,1.5902,1.5902,1.6485,1.7208,0.0,0.0,0.0,0.0,0.0,0.0,0.0,0.3149,0.3461,0.3986,0.4417,0.4834,0.5256,0.4796,0.4495,0.4599,0.3673,0.0,0.0,0.0,0.0,0.0,0.0,0.0,0.0,0.4809,0.5261,0.5785,0.6204,0.6325,0.6149,0.604,0.0,0.0,0.0,0.0,0.0,0.0,0.0,0.0,0.0,0.0,0.0,0.0,0.0,0.0,0.0,0.0,0.0,0.0,0.0,0.0,0.0,0.0,0.0,0.0,0.5795,0.0,0.0,0.7054,0.7079,0.7176,0.7127,0.6945,0.6492,0.6119,0.5724,0.5292,0.4994,0.4822,0.4922,0.5074,0.5443,0.6257,0.6593,0.0,0.0,0.0,0.0,0.0,0.0,0.0,0.0,0.0,0.0,0.0,0.0,0.0,1.348,1.4139,1.4515,1.4515,1.4515,1.4515,1.4515,1.4515,1.4515,1.4515,1.4515,1.4515,1.4515,1.4515,1.4515,0.0,0.0,0.0,0.0,1.4515,1.4515,1.4515,1.4515,1.5079,1.5902,1.5902,1.6485,1.723,0.0,0.0,0.0,0.0,0.0,0.0,0.0,0.2742,0.2938,0.3414,0.3683,0.4068,0.4704,0.4435,0.4329,0.4596,0.0,0.0,0.0,0.0,0.0,0.0,0.0,0.0,0.0,0.5034,0.5485,0.6365,0.6404,0.641,0.641,0.6143,0.5889,0.0,0.0,0.0,0.0,0.0,0.0,0.0,0.0,0.0,0.0,0.0,0.0,0.0,0.0,0.0,0.0,0.0,0.0,0.0,0.0,0.0,0.0,0.0,0.0,0.0,0.0,0.0,0.0,0.0,0.6902,0.6653,0.6365,0.5936,0.0,0.5231,0.4982,0.4866,0.5026,0.5318,0.5681,0.6211,0.67,0.0,0.0,0.0,0.0,0.0,0.0,0.0,0.0,0.0,0.0,0.0,0.0,0.0,1.3571,1.4169,1.4515,1.4515,1.4515,1.4515,1.4515,1.4515,1.4515,1.4515,1.4515,1.4515,1.4515,1.4515,1.4515,0.0,0.0,0.0,0.0,1.4515,1.4515,1.4536,1.4536,1.5108,1.596,1.596,1.6542,1.7257,0.0,0.0,0.0,0.0,0.0,0.0,0.0,0.0,0.0,0.0,0.367,0.4095,0.4448,0.4418,0.4458,0.0,0.0,0.0,0.0,0.0,0.0,0.0,0.0,0.0,0.0,0.5346,0.5664,0.6094,0.6358,0.6483,0.6483,0.6416,0.6132,0.5677,0.5554,0.0,0.0,0.0,0.0,0.0,0.0,0.0,0.0,0.0,0.0,0.0,0.0,0.0,0.0,0.0,0.0,0.0,0.0,0.0,0.0,0.0,0.5167,0.532,0.565,0.0,0.5894,0.5961,0.593,0.5815,0.0,0.5389,0.5219,0.4941,0.0,0.0,0.5583,0.5621,0.5937,0.0,0.0,0.0,0.0,0.0,0.0,0.0,0.0,0.0,0.0,0.0,0.0,0.0,0.0,1.3731,1.4228,1.4417,1.4515,1.4515,1.4515,1.4515,1.4515,1.4515,1.4515,1.4515,1.4515,1.4515,1.4515,1.4515,1.4515,0.0,0.0,0.0,1.4515,1.4515,1.4704,1.504,1.504,1.5613,1.6428,1.6428,1.6948,1.7534,0.0,0.0,0.0,0.0,0.0,0.0,0.0,0.0,0.0,0.0,0.0,0.0,0.0,0.0,0.0,0.0,0.0,0.0,0.0,0.0,0.0,0.0,0.0,0.0,0.5195,0.5487,0.5768,0.6057,0.6417,0.6547,0.6498,0.6498,0.6262,0.583,0.5548,0.0,0.0,0.0,0.0,0.0,0.0,0.0,0.0,0.0,0.0,0.0,0.0,0.4741,0.0,0.513,0.5306,0.533,0.0,0.0,0.0,0.0,0.5166,0.5224,0.5284,0.5598,0.5944,0.6081,0.6012,0.5876,0.5745,0.0,0.0,0.0,0.0,0.0,0.0,0.0,0.0,0.0,0.0,0.0,0.0,0.0,0.0,0.0,0.0,0.0,0.0,0.0,0.0,0.0,0.0,1.413,1.4485,1.4515,1.4515,1.4515,1.4515,1.4515,1.4515,1.4515,1.4515,1.4515,1.4515,1.4515,1.4515,1.4515,1.4515,0.0,0.0,0.0,1.4586,1.4586,1.4872,1.5294,1.5235,1.5787,1.6599,1.674,1.7162,1.7644,0.0,0.0,0.0,0.0,0.0,0.0,0.0,0.0,0.0,0.0,0.0,0.0,0.0,0.0,0.0,0.0,0.0,0.0,0.0,0.0,0.0,0.0,0.0,0.495,0.5212,0.5559,0.5869,0.6137,0.6571,0.6723,0.6588,0.6588,0.6375,0.5932,0.5438,0.0,0.0,0.0,0.0,0.0,0.0,0.0,0.0,0.0,0.0,0.0,0.0,0.0,0.0,0.5025,0.5377,0.5574,0.5614,0.0,0.0,0.0,0.0,0.0,0.5329,0.5874,0.6426,0.6486,0.6411,0.6277,0.6252,0.0,0.0,0.0,0.0,0.0,0.0,0.0,0.0,0.0,0.0,0.0,0.0,0.0,0.0,0.0,0.0,0.0,0.0,0.0,0.0,0.0,0.0,1.4515,1.4515,1.4515,1.4515,1.4515,1.4515,1.4515,1.4515,1.4515,1.4515,1.4515,1.4515,1.4515,1.4515,1.4515,1.4506,1.4536,0.0,0.0,1.4745,1.4863,1.5147,1.5584,1.5546,1.6065,1.6853,1.7067,1.744,1.7786,0.0,0.0,0.0,0.0,0.0,0.0,0.0,0.0,0.0,0.0,0.0,0.0,0.0,0.0,0.0,0.0,0.0,0.0,0.0,0.0,0.0,0.0,0.4912,0.5014,0.5286,0.5674,0.5996,0.6276,0.6905,0.7141,0.7013,0.7013,0.6552,0.5726,0.5418,0.5179,0.4992,0.0,0.0,0.0,0.0,0.0,0.0,0.0,0.0,0.0,0.0,0.0,0.0,0.4695,0.4907,0.4987,0.5271,0.0,0.0,0.0,0.0,0.0,0.5903,0.646,0.6692,0.5879,0.5996,0.6245,0.6015,0.0,0.0,0.0,0.0,0.0,0.0,0.0,0.0,0.0,0.0,0.0,0.0,0.0,0.0,0.0,0.0,0.0,0.0,0.0,0.0,0.0,0.0,1.4515,1.4515,1.4515,1.4515,1.4515,1.4515,1.4515,1.4515,1.4515,1.4515,1.4515,1.4515,1.4515,1.4515,1.4515,1.4556,1.4656,0.0,1.4813,1.5,1.5507,1.595,1.6368,1.6877,1.739,1.7865,1.792,1.8166,1.8377,0.0,0.0,0.0,0.0,0.0,0.0,0.0,0.0,0.0,0.0,0.0,0.0,0.0,0.0,0.0,0.0,0.0,0.0,0.0,0.0,0.0,0.5256,0.5269,0.5326,0.5402,0.5943,0.6363,0.6628,0.7087,0.7351,0.7408,0.7192,0.6628,0.5801,0.5675,0.5331,0.484,0.0,0.0,0.0,0.0,0.0,0.0,0.0,0.0,0.0,0.0,0.0,0.0,0.0,0.4683,0.5055,0.5035,0.0,0.0,0.0,0.0,0.0,0.5645,0.6244,0.6673,0.6217,0.6639,0.7128,0.7019,0.0,0.0,0.0,0.0,0.0,0.0,0.0,0.0,0.0,0.0,0.0,0.0,0.0,0.0,0.0,0.0,0.0,0.0,0.0,0.0,0.0,0.0,0.0,1.4515,1.4515,1.4515,1.4515,1.4515,1.4515,1.4515,1.4515,1.4515,1.4515,1.4515,1.4515,1.4515,1.4586,1.4636,1.4736,0.0,1.5507,1.5623,1.6247,1.6747,1.7168,1.7324,1.7678,1.8111,1.8302,1.8181,1.7896,0.0,0.0,0.0,0.0,0.0,0.0,0.0,0.0,0.0,0.0,0.0,0.0,0.0,0.0,0.0,0.0,0.0,0.0,0.0,0.0,0.4846,0.5316,0.5598,0.5742,0.5736,0.6304,0.6744,0.7034,0.7396,0.7599,0.7689,0.7231,0.6613,0.5912,0.5848,0.5396,0.4728,0.4815,0.0,0.0,0.0,0.0,0.0,0.0,0.0,0.0,0.0,0.0,0.0,0.0,0.0,0.0,0.0,0.0,0.0,0.536,0.5293,0.5327,0.5467,0.6043,0.664,0.678,0.0,0.7859,0.8044,0.0,0.0,0.0,0.0,0.0,0.0,0.0,0.0,0.0,0.0,0.0,0.0,0.0,0.0,0.0,0.0,0.0,0.0,0.0,0.0,0.0,0.0,0.0,1.4515,1.4515,1.4515,1.4515,1.4515,1.4515,1.4515,1.4515,1.4515,1.4515,1.4536,1.4565,1.4565,1.4695,1.4863,1.5059,1.5797,1.6189,1.6407,1.7,1.7473,1.7793,1.7776,1.7938,1.8143,1.841,1.7955,1.7207,0.0,0.0,0.0,0.0,0.0,0.0,0.0,0.0,0.0,0.0,0.0,0.0,0.0,0.0,0.0,0.0,0.0,0.0,0.0,0.0,0.4813,0.4852,0.5691,0.624,0.6422,0.6779,0.7134,0.7457,0.8047,0.8096,0.7682,0.7033,0.6469,0.5986,0.5667,0.5248,0.0,0.0,0.0,0.0,0.0,0.0,0.0,0.0,0.0,0.0,0.0,0.0,0.0,0.0,0.0,0.0,0.0,0.0,0.532,0.5306,0.5293,0.5414,0.5981,0.6358,0.674,0.729,0.7471,0.0,0.8474,0.8415,0.0,0.0,0.0,0.0,0.0,0.0,0.0,0.0,0.0,0.0,0.0,0.0,0.0,0.0,0.0,0.0,0.0,0.0,0.0,0.0,0.0,0.0,1.4515,1.4515,1.4515,1.4515,1.4515,1.4515,1.4515,1.4515,1.4515,1.4515,1.4636,1.4686,1.4686,1.4872,1.5342,1.5999,1.6085,1.6492,1.7174,1.7754,1.8038,1.8131,1.8682,1.8608,1.8214,1.8202,1.7567,1.6655,0.0,0.0,0.0,0.0,0.0,0.0,0.0,0.0,0.0,0.0,0.0,0.0,0.0,0.0,0.0,0.0,0.0,0.0,0.0,0.0,0.4542,0.509,0.5447,0.5856,0.63,0.6767,0.7168,0.7513,0.7889,0.7871,0.7445,0.7069,0.6619,0.6109,0.5782,0.0,0.0,0.0,0.0,0.0,0.0,0.0,0.0,0.0,0.0,0.0,0.0,0.0,0.0,0.0,0.4089,0.4409,0.0,0.501,0.5526,0.5102,0.5291,0.5617,0.5634,0.6358,0.7106,0.7172,0.7996,0.0,0.0,0.0,0.0,0.0,0.0,0.0,0.0,0.0,0.0,0.0,0.0,0.0,0.0,0.0,0.0,0.0,0.0,0.0,0.0,0.0,0.0,0.0,0.0,0.0,0.0,1.4565,1.4595,1.4803,1.4704,1.4675,1.4803,1.4803,1.4803,1.4803,1.4745,1.4775,1.4872,1.5059,1.5488,1.6142,1.6578,1.6955,1.7303,1.7897,1.7956,1.7698,1.7912,1.7893,1.7712,1.7712,1.7219,1.6607,0.0,0.0,0.0,0.0,0.0,0.0,0.0,0.0,0.0,0.0,0.0,0.0,0.0,0.0,0.0,0.0,0.0,0.0,0.0,0.3945,0.4267,0.4872,0.5146,0.5487,0.5907,0.654,0.7034,0.735,0.7635,0.7629,0.735,0.7025,0.6673,0.631,0.5885,0.0,0.0,0.0,0.0,0.0,0.0,0.0,0.0,0.0,0.0,0.0,0.0,0.0,0.0,0.0,0.3935,0.0,0.0,0.0,0.0,0.0,0.5601,0.607,0.5734,0.6591,0.7542,0.0,0.0,0.0,0.0,0.0,0.0,0.0,0.0,0.0,0.0,0.0,0.0,0.0,0.0,0.0,0.0,0.0,0.0,0.0,0.0,0.0,0.0,0.0,0.0,0.0,0.0,0.0,0.0,1.4606,1.4704,1.498,1.4711,1.4646,1.4772,1.4648,1.4601,1.4659,1.4657,1.4799,1.5059,1.54,1.5774,1.6217,1.6928,1.7273,1.7373,1.7765,1.7736,1.7387,1.7387,1.7291,1.7135,1.7135,1.6811,1.6355,0.0,0.0,0.0,0.0,0.0,0.0,0.0,0.0,0.0,0.0,0.0,0.0,0.0,0.0,0.0,0.0,0.0,0.0,0.0,0.3819,0.3992,0.3992,0.4838,0.5286,0.5293,0.6151,0.672,0.7,0.7337,0.75,0.7486,0.6874,0.66,0.6553,0.0,0.0,0.0,0.0,0.0,0.0,0.0,0.0,0.0,0.0,0.0,0.0,0.0,0.0,0.0,0.0,0.4004,0.4153,0.0,0.0,0.0,0.5708,0.6322,0.6842,0.6501,0.7142,0.8001,0.0,0.0,0.0,0.0,0.0,0.0,0.0,0.0,0.0,0.0,0.0,0.0,0.0,0.0,0.0,0.0,0.0,0.0,0.0,0.0,0.0,0.0,0.0,0.0,0.0,0.0,0.0,0.0,1.4697,1.4765,1.499,1.4525,1.4308,1.4308,1.3911,1.3774,1.3917,1.4377,1.4811,1.5205,1.595,1.6332,1.6438,1.7047,1.7352,1.7375,1.74,1.7375,1.7375,1.7375,1.7063,1.6595,1.6595,1.6271,1.5792,0.0,0.0,0.0,0.0,0.0,0.0,0.0,0.0,0.0,0.0,0.0,0.0,0.0,0.0,0.0,0.0,0.0,0.0,0.0,0.3586,0.3754,0.3985,0.4429,0.4763,0.4948,0.5424,0.603,0.672,0.6827,0.6767,0.6579,0.6404,0.6191,0.5965,0.0,0.0,0.0,0.0,0.0,0.0,0.0,0.0,0.0,0.0,0.0,0.0,0.0,0.0,0.0,0.0,0.0,0.0,0.0,0.0,0.0,0.5898,0.6486,0.7181,0.6834,0.7749,0.0,0.0,0.0,0.0,0.0,0.0,0.0,0.0,0.0,0.0,0.0,0.0,0.0,0.0,0.0,0.0,0.0,0.0,0.0,0.0,0.0,0.0,0.0,0.0,0.0,0.0,0.0,0.0,0.0,1.4223,1.4117,1.4357,1.4149,1.4055,1.4163,1.4048,1.4007,1.4051,1.4177,1.4468,1.4962,1.5894,1.6332,1.6438,1.7047,1.7117,1.6811,1.6439,1.6283,1.6283,1.6283,1.6187,1.6032,1.6032,1.5946,1.5792,0.0,0.0,0.0,0.0,0.0,0.0,0.0,0.0,0.0,0.0,0.0,0.0,0.0,0.0,0.0,0.0,0.0,0.0,0.0,0.0,0.365,0.3978,0.4147,0.4422,0.4786,0.513,0.5501,0.5892,0.6012,0.6057,0.6003,0.6135,0.6137,0.6059,0.0,0.5999,0.0,0.0,0.0,0.0,0.5084,0.4822,0.4529,0.0,0.0,0.0,0.0,0.0,0.0,0.0,0.0,0.0,0.478,0.0,0.0,0.6182,0.685,0.7598,0.7763,0.0,0.0,0.0,0.0,0.0,0.0,0.0,0.0,0.0,0.0,0.0,0.0,0.0,0.0,0.0,0.0,0.0,0.0,0.0,0.0,0.0,0.0,0.0,0.0,0.0,0.0,0.0,0.0,0.0,0.0,1.3989,1.3873,1.4077,1.3859,1.3772,1.386,1.3695,1.3607,1.3643,1.3782,1.4103,1.46,1.5621,1.6117,1.6144,1.6531,1.6551,1.6271,1.5924,1.5792,1.5792,1.5792,1.5792,1.5792,1.5792,1.5792,1.5792,0.0,0.0,0.0,0.0,0.0,0.0,0.0,0.0,0.0,0.0,0.0,0.0,0.0,0.0,0.0,0.0,0.0,0.0,0.0,0.0,0.3669,0.3961,0.4053,0.4332,0.4881,0.5138,0.5102,0.477,0.5126,0.5404,0.5621,0.601,0.6324,0.6526,0.0,0.6405,0.0,0.0,0.0,0.5293,0.5266,0.5092,0.4803,0.4523,0.0,0.0,0.0,0.0,0.0,0.0,0.0,0.0,0.4935,0.516,0.5394,0.6473,0.726,0.8015,0.8935,0.0,0.0,0.0,0.0,0.0,0.0,0.0,0.0,0.0,0.0,0.0,0.0,0.0,0.0,0.0,0.0,0.0,0.0,0.0,0.0,0.0,0.0,0.0,0.0,0.0,0.0,0.0,0.0,0.0,0.0,1.3821,1.3854,1.3997,1.3652,1.3447,1.3447,1.3066,1.2905,1.2905,1.3271,1.3716,1.4256,1.5315,1.5795,1.5784,1.5783,1.5792,1.5792,1.5792,1.5792,1.5792,1.5792,1.5792,1.5792,1.5792,1.5792,1.5792,0.0,0.0,0.0,0.0,0.0,0.0,0.0,0.0,0.0,0.0,0.0,0.0,0.0,0.0,0.0,0.0,0.0,0.0,0.0,0.0,0.3766,0.3848,0.4393,0.4981,0.5574,0.5191,0.4846,0.4563,0.5057,0.5197,0.0,0.0,0.0,0.5912,0.0,0.6104,0.0,0.0,0.5108,0.5273,0.5008,0.4992,0.5076,0.4764,0.4627,0.0,0.0,0.0,0.0,0.0,0.0,0.0,0.5138,0.5544,0.5913,0.6471,0.7191,0.8001,0.0,0.969,0.0,0.0,0.0,0.0,0.0,0.0,0.0,0.0,0.0,0.0,0.0,0.0,0.0,0.0,0.0,0.0,0.0,0.0,0.0,0.0,0.0,0.0,0.0,0.0,0.0,0.0,0.0,0.0,1.3591,1.328,1.3129,1.3154,1.3066,1.3042,1.3042,1.2954,1.2905,0.0,1.2993,1.3476,1.4314,1.5339,1.6029,1.6373,1.5975,1.5792,1.5792,1.5792,1.5792,1.5792,1.5792,1.5792,1.5792,1.5792,1.5792,1.5792,0.0,0.0,0.0,0.0,0.0,0.0,0.0,0.0,0.0,0.0,0.0,0.0,0.0,0.0,0.0,0.0,0.0,0.0,0.0,0.0,0.3986,0.3986,0.4639,0.4953,0.4849,0.4699,0.4495,0.4252,0.4665,0.0,0.0,0.0,0.0,0.6139,0.0,0.6137,0.0,0.0,0.5057,0.5028,0.4735,0.4766,0.4969,0.4524,0.4466,0.4564,0.4303,0.0,0.0,0.0,0.0,0.0,0.0,0.0,0.5538,0.6142,0.6744,0.7497,0.0,0.0,0.0,0.0,0.0,0.0,0.0,0.0,0.0,0.0,0.0,0.0,0.0,0.0,0.0,0.0,0.0,0.0,0.0,0.0,0.0,0.0,0.0,0.0,0.0,0.0,0.0,0.0,0.0,1.3203,1.3203,1.2998,1.2905,1.2905,1.2905,1.2905,1.2905,1.2905,1.2905,1.2905,1.3138,1.3729,1.472,1.5448,1.5951,1.6211,1.5912,1.5792,1.5792,1.5792,1.5792,1.5792,1.5792,1.5792,1.5792,1.5792,1.5792,1.5792,0.0,0.0,0.0,0.0,0.0,0.0,0.0,0.0,0.0,0.0,0.0,0.0,0.0,0.0,0.0,0.0,0.0,0.0,0.0,0.4258,0.4303,0.441,0.4854,0.4809,0.4193,0.435,0.4389,0.4295,0.0,0.0,0.0,0.0,0.0,0.6725,0.0,0.0,0.0,0.0,0.5017,0.4781,0.4489,0.4536,0.4726,0.431,0.436,0.4601,0.4384,0.4522,0.4802,0.4802,0.0,0.0,0.0,0.0,0.4948,0.5686,0.6233,0.6913,0.0,0.0,0.0,0.0,0.0,0.0,0.0,0.0,0.0,0.0,0.0,0.0,0.0,0.0,0.0,0.0,0.0,0.0,0.0,0.0,0.0,0.0,0.0,0.0,0.0,0.0,0.0,0.0,0.0,1.2905,1.2905,1.2905,1.2905,1.2905,1.2905,1.2905,1.2905,1.2968,1.3017,1.3017,1.3597,1.4292,1.5108,1.5592,1.5792,1.5792,1.5792,1.5792,1.5792,1.5792,1.5792,1.5792,1.5792,1.5792,1.5792,1.5792,1.5792,1.5792,0.0,0.0,0.0,0.0,0.0,0.0,0.0,0.0,0.0,0.0,0.0,0.3883,0.4084,0.4135,0.0,0.0,0.0,0.0,0.4455,0.0,0.0,0.5218,0.5151,0.5292,0.5696,0.5238,0.5149,0.5474,0.0,0.0,0.0,0.0,0.0,0.718,0.0,0.0,0.0,0.0,0.0,0.4775,0.4443,0.4443,0.4632,0.4742,0.4778,0.4765,0.4731,0.4753,0.4802,0.4802,0.4802,0.0,0.0,0.0,0.0,0.0,0.6018,0.673,0.0,0.0,0.0,0.0,0.0,0.0,0.0,0.0,0.0,0.0,0.0,0.0,0.0,0.0,0.0,0.0,0.0,0.0,0.0,0.0,0.0,0.0,0.0,0.0,0.0,0.0,0.0,0.0,1.2905,1.2905,1.2905,1.2905,1.2905,1.2905,1.2905,1.2905,1.2905,1.3296,1.3501,1.3525,1.4455,1.4971,1.5108,1.5592,1.5792,1.5792,1.5792,1.5792,1.5792,1.5792,1.5792,1.5792,1.5792,1.5792,1.5792,1.5792,1.5792,1.5792,0.0,0.0,0.0,0.0,0.0,0.0,0.0,0.0,0.0,0.0,0.0,0.4201,0.4197,0.4301,0.0,0.0,0.0,0.0,0.4664,0.4674,0.0,0.0,0.4983,0.501,0.5158,0.4902,0.4865,0.0,0.0,0.0,0.0,0.6884,0.7161,0.0,0.0,0.0,0.0,0.0,0.0,0.4705,0.4216,0.4666,0.553,0.4795,0.4978,0.5551,0.4874,0.4704,0.0,0.0,0.0,0.0,0.0,0.0,0.0,0.0,0.0,0.0,0.0,0.0,0.0,0.0,0.0,0.0,0.0,0.0,0.0,0.0,0.0,0.0,0.0,0.0,0.0,0.0,0.0,0.0,0.0,0.0,0.0,0.0,0.0,0.0,0.0,0.0,0.0,0.0,1.2905,1.2905,1.2905,1.2905,1.2905,1.2905,1.3162,1.3296,1.3296,1.3752,1.4152,1.4455,1.4903,1.5244,1.5491,1.5703,1.5792,1.5792,1.5792,1.5792,1.5792,1.5792,1.5792,1.5792,1.5792,1.5792,1.5792,1.5792,1.5792,1.5814,0.0,0.0,0.0,0.0,0.0,0.0,0.0,0.0,0.0,0.0,0.0,0.0,0.4291,0.0,0.0,0.0,0.0,0.0,0.4852,0.0,0.0,0.0,0.0,0.4783,0.4635,0.4625,0.4694,0.0,0.0,0.0,0.804,0.7397,0.7901,0.0,0.7717,0.706,0.0,0.0,0.0,0.0,0.0,0.5362,0.6444,0.5604,0.5943,0.6703,0.5594,0.0,0.0,0.0,0.0,0.0,0.0,0.0,0.0,0.0,0.0,0.0,0.0,0.0,0.0,0.0,0.0,0.0,0.0,0.0,0.0,0.0,0.0,0.0,0.0,0.0,0.0,0.0,0.0,0.0,0.0,0.0,0.0,0.0,0.0,0.0,0.0,0.0,0.0,0.0,1.2905,1.2905,1.2905,1.3017,1.3089,1.3089,1.3525,1.3776,1.3776,1.4258,1.4766,1.5289,1.5289,1.5446,1.5792,1.5836,1.5859,1.5859,1.5859,1.5859,1.5859,1.5881,1.5903,1.5903,1.5859,1.5859,1.5859,1.5859,1.5859,1.5869,0.0,0.0,0.0,0.0,0.0,0.0,0.0,0.0,0.0,0.0,0.0,0.0,0.0,0.0,0.0,0.0,0.0,0.0,0.0,0.0,0.0,0.0,0.0,0.0,0.0,0.497,0.0,0.0,0.0,0.0,0.8181,0.7636,0.8738,1.109,0.9089,0.7911,0.7322,0.0,0.0,0.0,0.0,0.0,0.697,0.7906,0.8334,0.8269,0.0,0.0,0.0,0.0,0.0,0.0,0.0,0.0,0.0,0.0,0.0,0.0,0.0,0.0,0.0,0.0,0.0,0.0,0.0,0.0,0.0,0.0,0.0,0.0,0.0,0.0,0.0,0.0,0.0,0.0,0.0,0.0,0.0,0.0,0.0,0.0,0.0,0.0,0.0,0.0,1.2905,1.2905,1.2905,1.332,1.3573,1.3573,1.4025,1.4258,1.4258,1.48,1.5289,1.577,1.577,1.577,1.5792,1.5935,1.5988,1.5988,1.5988,1.5988,1.6001,1.6122,1.6178,1.6178,1.6044,1.5988,1.5988,1.5988,1.5988,1.6022,0.0,0.0,0.0,0.0,0.0,0.0,0.0,0.0,0.0,0.0,0.0,0.0,0.0,0.4892,0.4941,0.4961,0.0,0.0,0.0,0.0,0.0,0.0,0.0,0.0,0.0,0.0,0.0,0.0,0.0,0.5875,0.7683,0.7363,0.8072,0.9579,0.8329,0.821,0.8806,0.68,0.0,0.0,0.0,0.0,0.0,0.8721,0.9196,0.9762,0.0,0.0,0.0,0.0,0.0,0.0,0.0,0.5612,0.5584,0.5031,0.0,0.0,0.0,0.0,0.0,0.0,0.0,0.0,0.0,0.0,0.0,0.0,0.0,0.0,0.0,0.0,0.0,0.0,0.0,0.0,0.0,0.0,0.0,0.0,0.0,0.0,0.0,0.0,0.0,0.0,0.0,1.2905,1.2905,1.3344,1.3597,1.3597,1.4385,1.496,1.5255,1.5446,1.5637,1.5792,1.5792,1.5859,1.5935,1.5979,1.6044,1.6144,1.6219,1.621,1.6144,1.6178,1.62,1.62,1.6144,1.6122,1.6122,1.6122,1.6122,1.6144,0.0,0.0,0.0,0.0,0.0,0.0,0.0,0.0,0.0,0.5039,0.0,0.0,0.0,0.0,0.5381,0.5248,0.5106,0.0,0.0,0.0,0.0,0.0,0.0,0.0,0.0,0.0,0.0,0.0,0.0,0.0,0.0,0.7017,0.7642,0.8855,0.7717,0.809,0.0,0.0,0.0,0.8175,0.0,0.0,1.0088,0.0,1.0531,0.0,0.0,0.0,0.0,0.0,0.0,0.0,0.0,0.6259,0.5871,0.5169,0.0,0.0,0.0,0.0,0.0,0.0,0.0,0.0,0.0,0.0,0.0,0.0,0.0,0.0,0.0,0.0,0.0,0.0,0.0,0.0,0.0,0.0,0.0,0.0,0.0,0.0,0.0,0.0,0.0,0.0,0.0,0.0,1.3128,1.3763,1.4176,1.4328,1.4983,1.5468,1.5792,1.5792,1.5814,1.5869,1.5869,1.5935,1.6066,1.611,1.6175,1.6275,1.6392,1.6383,1.6275,1.6297,1.6297,1.6297,1.6275,1.6275,1.6275,1.6275,1.6275,1.6275,0.0,0.0,0.0,0.0,0.0,0.0,0.0,0.0,0.5117,0.5117,0.0,0.0,0.0,0.0,0.0,0.5769,0.5378,0.5137,0.5117,0.5108,0.0,0.0,0.0,0.0,0.0,0.0,0.0,0.0,0.0,0.0,0.0,0.0,0.7522,0.915,0.7395,0.7569,0.9144,0.0,0.9226,0.975,0.0,1.0501,1.0669,0.0,0.0,0.0,1.1484,1.1227,0.0,0.0,0.0,0.0,0.0,0.7001,0.555,0.5231,0.0,0.0,0.0,0.0,0.0,0.0,0.0,0.0,0.0,0.0,0.0,0.0,0.0,0.0,0.0,0.0,0.0,0.0,0.0,0.0,0.0,0.0,0.0,0.0,0.0,0.0,0.0,0.0,0.0,0.0,1.3334,1.3621,1.3621,1.457,1.5311,1.5792,1.5792,1.5792,1.5814,1.5814,1.5869,1.6022,1.6022,1.6066,1.6222,1.634,1.6392,1.6414,1.6479,1.6457,1.6414,1.6479,1.65,1.65,1.6436,1.6392,1.6392,1.6392,1.6392,1.6414,0.0,0.0,0.0,0.0,0.0,0.0,0.5146,0.539,0.5605,0.0,0.0,0.0,0.6154,0.6603,0.6839,0.6723,0.6294,0.5918,0.5615,0.5283,0.5098,0.5098,0.5098,0.5098,0.5098,0.0,0.0,0.0,0.0,0.0,0.0,0.0,0.0,0.0,0.7144,0.7481,0.83,0.7664,0.0,0.0,0.9733,1.0496,0.0,0.0,0.0,0.0,0.0,1.2221,1.1872,0.0,1.0604,0.9651,0.0,0.0,0.0,0.0,0.0,0.0,0.6362,0.0,0.0,0.0,0.0,0.0,0.0,0.0,0.0,0.0,0.0,0.0,0.0,0.0,0.0,0.0,0.0,0.0,0.0,0.0,0.0,0.0,0.0,0.0,0.0,0.0,0.0,0.0,1.3525,1.3752,1.4095,1.4731,1.5311,1.5792,1.5792,1.5859,1.5935,1.5935,1.6001,1.6144,1.6144,1.621,1.6362,1.6371,1.6436,1.6479,1.65,1.65,1.6479,1.65,1.65,1.65,1.6479,1.6479,1.6479,1.6479,1.6479,1.6479,0.0,0.0,0.0,0.0,0.0,0.6252,0.5975,0.6162,0.634,0.0,0.0,0.0,0.7172,0.7627,0.7754,0.7379,0.6765,0.623,0.5832,0.5361,0.5098,0.5098,0.5098,0.5098,0.5098,0.5098,0.5098,0.0,0.5098,0.5223,0.5444,0.5487,0.5847,0.644,0.6312,0.6752,0.7547,0.0,0.0,0.0,1.0037,0.0,0.0,1.2204,1.2575,0.0,0.0,0.0,1.2461,1.222,1.1438,0.0,0.0,0.0,0.0,0.0,0.0,0.0,0.0,0.0,0.0,0.0,0.0,0.0,0.0,0.9652,0.0,0.0,0.0,0.0,0.0,0.0,0.0,0.0,0.0,0.0,0.0,0.0,0.0,0.0,0.0,0.0,0.0,1.3478,1.3597,1.3871,1.4106,1.4432,1.4903,1.521,1.5513,1.5792,1.5859,1.5913,1.5988,1.6066,1.6166,1.6275,1.6275,1.634,1.6436,1.6436,1.6457,1.65,1.65,1.65,1.65,1.65,1.65,1.65,1.65,1.65,1.65,1.65,1.65,1.65,0.0,0.0,0.6309,0.5988,0.6621,0.7168,0.7168,0.7207,0.7236,0.0,0.7324,0.7705,0.8581,0.8955,0.8821,0.8061,0.7145,0.6426,0.5968,0.5458,0.5146,0.5098,0.5146,0.5146,0.5098,0.5146,0.5146,0.5098,0.5098,0.5098,0.5098,0.5098,0.5322,0.5704,0.5283,0.5786,0.6916,0.0,0.0,0.9348,1.0588,1.1213,0.0,0.0,1.2735,0.0,1.2759,1.2808,1.2895,1.2856,1.1992,0.0,0.0,0.0,0.0,0.0,0.8252,0.0,0.0,0.0,0.0,0.0,0.0,0.0,1.0095,1.0231,0.0,0.0,0.0,0.0,0.0,0.0,0.0,0.0,0.0,0.0,0.0,0.0,0.0,0.0,0.0,0.0,1.4305,1.4305,1.4317,1.4374,1.4892,1.5356,1.5814,1.5814,1.5836,1.5836,1.5957,1.6044,1.6032,1.6166,1.6297,1.6414,1.6414,1.6436,1.65,1.65,1.65,1.65,1.65,1.65,1.65,1.65,1.65,1.65,1.65,1.65,1.65,1.65,1.6543,1.6586,0.0,0.6277,0.6504,0.6787,0.7252,0.7579,0.7579,0.79,0.814,0.814,0.8721,0.9445,1.0322,1.0186,0.998,0.9805,0.8708,0.768,0.6895,0.6105,0.5498,0.5117,0.5469,0.5488,0.5108,0.5469,0.5479,0.5098,0.5098,0.5098,0.5098,0.5098,0.5146,0.5234,0.5137,0.5633,0.6557,0.0,0.0,0.9457,0.9734,0.0,1.2027,1.2182,1.2487,1.2905,1.2881,1.2881,1.2856,0.0,1.1943,1.1291,0.0,0.0,0.0,0.0,0.0,1.043,0.0,0.0,0.0,0.0,0.0,0.0,0.0,0.8307,0.0,0.0,0.0,0.0,0.0,0.0,0.0,0.0,0.0,0.0,0.0,0.0,0.0,0.0,0.0,0.0,1.4305,1.4305,1.449,1.4915,1.5379,1.5736,1.5957,1.5957,1.6001,1.6134,1.6144,1.621,1.6328,1.6362,1.6392,1.6479,1.6479,1.65,1.65,1.65,1.65,1.65,1.65,1.65,1.65,1.65,1.65,1.65,1.65,1.65,1.65,1.65,1.6735,1.7052,0.0,0.6745,0.7125,0.7359,0.7924,0.849,0.8936,0.9004,0.916,0.959,1.0195,1.0674,1.0889,1.0939,0.0,1.0342,0.9138,0.8121,0.7437,0.6399,0.5694,0.5459,0.5459,0.5459,0.5449,0.5459,0.5459,0.5449,0.5215,0.5098,0.5098,0.5098,0.5341,0.574,0.5536,0.0,0.0,0.0,0.8087,0.9315,1.0118,0.0,1.2177,1.2414,1.2662,1.2905,1.2905,1.2905,1.2837,1.2359,1.208,0.0,0.0,1.0898,1.1123,0.0,1.0868,1.1453,0.0,0.0,0.0,0.9912,0.0,0.0,0.0,0.0,0.9284,0.0,0.0,0.0,0.0,0.0,0.0,0.0,0.0,0.0,0.0,0.0,0.0,0.0,0.0,0.0,1.504,1.504,1.5164,1.5424,1.5736,1.5935,1.5988,1.6066,1.6144,1.62,1.6253,1.634,1.6392,1.6436,1.6479,1.65,1.65,1.65,1.65,1.65,1.65,1.65,1.65,1.65,1.65,1.65,1.65,1.65,1.65,1.665,1.6863,1.6863,1.7123,1.7496,0.0,0.0,0.7725,0.7827,0.847,0.9268,1.0058,0.9932,1.0049,1.0918,1.1438,0.0,0.0,0.0,0.0,0.0,0.0,0.8555,0.0,0.0,0.6135,0.6047,0.5683,0.5624,0.591,0.5546,0.5458,0.5665,0.5283,0.5098,0.5098,0.5098,0.5526,0.6279,0.0,0.0,0.0,0.0,0.0,0.9609,0.0,1.153,1.1921,1.2525,1.2778,1.2773,1.2876,1.2905,1.2856,1.2447,0.0,1.2194,1.1394,1.1709,0.0,0.0,0.0,0.0,0.0,0.0,0.0,0.0,0.0,1.0646,0.0,0.0,0.0,1.1265,0.0,0.0,0.0,0.0,0.0,0.0,0.0,0.0,0.0,0.0,0.0,0.0,0.0,0.0,0.0,1.5574,1.5598,1.5812,1.5741,1.5791,1.6064,1.6188,1.6231,1.6253,1.6362,1.6414,1.6414,1.6479,1.65,1.65,1.65,1.65,1.65,1.65,1.65,1.65,1.65,1.65,1.65,1.65,1.65,1.65,1.65,1.6799,1.7199,1.7199,1.7516,1.7928,0.7559,0.7627,0.7837,0.8248,0.8691,0.9143,0.962,0.999,1.0537,0.0,0.0,0.0,0.0,0.0,0.0,0.0,0.0,0.0,0.9408,0.0,0.0,0.6973,0.6904,0.6709,0.6348,0.6289,0.5907,0.5185,0.5127,0.5098,0.5098,0.5098,0.538,0.588,0.6191,0.0,0.0,0.0,0.9422,0.0,1.1055,1.0995,0.0,1.196,1.2281,1.233,1.2744,1.2905,1.2895,0.0,1.2812,1.2725,0.0,1.2412,1.2715,0.0,0.0,0.0,0.0,0.0,0.0,0.0,1.1443,0.0,0.0,0.0,1.0055,0.9469,0.0,0.0,0.0,0.0,0.0,0.0,0.0,0.0,0.0,0.0,0.0,0.0,0.0,0.0,0.0,1.4706,1.4876,1.5906,1.5113,1.5094,1.6299,1.6383,1.6392,1.6457,1.6479,1.65,1.65,1.65,1.65,1.65,1.65,1.65,1.65,1.65,1.65,1.65,1.65,1.65,1.65,1.65,1.65,1.65,1.65,1.6799,1.7199,1.7199,1.772,1.8422,0.7695,0.7695,0.0,0.8316,0.8541,0.8955,0.9863,1.0811,1.1521,0.0,0.0,0.0,0.0,0.0,0.0,0.0,0.0,1.0753,0.0,0.0,0.0,0.7876,0.7363,0.7119,0.7154,0.6436,0.5986,0.5847,0.5351,0.5098,0.5108,0.538,0.6006,0.692,0.7353,0.0,0.9491,0.0,0.0,0.0,0.0,0.0,0.0,1.2178,1.2607,1.2627,1.2837,1.2905,1.2866,0.0,1.2676,0.0,0.0,0.0,0.0,0.0,0.0,0.0,0.0,0.0,0.0,0.0,0.0,0.0,1.0731,0.0,0.9923,0.0,0.0,0.0,0.0,0.0,0.0,0.0,0.0,0.0,0.0,0.0,0.0,0.0,0.0,0.0,0.0,0.0,0.0,0.0,1.447,1.4636,1.5806,1.594,1.6153,1.6488,1.65,1.65,1.65,1.65,1.65,1.65,1.65,1.65,1.65,1.65,1.65,1.65,1.65,1.65,1.6522,1.6799,1.6905,1.6926,1.7152,1.7359,1.7578,1.7848,1.8324,1.8841,0.7886,0.0,0.0,0.0,0.8404,0.9001,1.0273,1.1357,1.2067,1.2194,0.0,0.0,1.3467,1.3232,0.0,0.0,1.2669,1.1844,0.0,0.0,0.9465,0.9151,0.816,0.0,0.0,0.6937,0.6348,0.6394,0.5759,0.5458,0.5468,0.0,0.6523,0.7574,0.0,0.9217,1.0293,0.0,0.0,1.0997,1.0753,1.0957,1.1543,1.2383,1.2798,1.2905,1.2905,1.2968,1.304,1.2688,1.2892,0.0,1.3353,0.0,0.0,0.0,0.0,0.0,1.3358,0.0,0.0,0.0,0.0,0.0,0.0,0.0,0.0,0.0,0.0,0.0,0.0,0.0,0.0,0.0,0.0,0.0,0.0,0.0,0.0,0.0,0.0,0.0,0.0,0.0,0.0,0.0,0.0,1.4014,1.5276,1.5577,1.5881,1.6283,1.6412,1.65,1.65,1.65,1.65,1.65,1.65,1.65,1.65,1.65,1.65,1.6522,1.665,1.6693,1.6723,1.7186,1.7352,1.7413,1.7828,1.7988,1.8048,1.8383,1.8745,1.9101,0.8386,0.8053,0.0,0.0,0.0,0.9414,1.0693,1.1301,1.176,0.0,0.0,0.0,0.0,0.0,0.0,0.0,0.0,1.3387,1.2846,0.0,1.1094,1.1024,0.9674,0.9006,0.0,0.0,0.7242,0.6394,0.6377,0.6355,0.0,0.0,0.0,0.0,0.8428,0.9473,1.0332,1.0703,1.1621,1.2749,1.191,1.2064,1.2798,0.0,1.2486,1.2905,1.2905,0.0,0.0,1.3552,1.3873,0.0,0.0,0.0,0.0,0.0,0.0,0.0,0.0,0.0,0.0,1.3171,0.0,0.0,0.0,0.0,1.1013,0.0,0.0,0.0,0.0,0.0,0.0,0.0,0.0,0.0,0.0,0.0,0.0,0.0,0.0,0.0,0.0,0.0,0.0,0.0,0.0,0.0,1.4833,1.5424,1.5706,1.5718,1.6233,1.65,1.65,1.65,1.65,1.65,1.65,1.65,1.65,1.65,1.65,1.6522,1.6989,1.7178,1.722,1.7618,1.7767,1.7828,1.8305,1.8519,1.8572,1.8519,1.8745,1.9101,0.0,0.0,0.0,0.0,0.0,0.9111,1.0654,1.1511,0.0,0.0,0.0,0.0,0.0,1.5291,1.5348,0.0,0.0,1.4636,1.3686,1.2807,0.0,0.0,0.0,1.0322,0.0,0.0,0.8412,0.8125,0.0,0.0,0.0,0.0,0.0,0.0,0.0,1.0166,0.0,0.0,0.0,0.0,0.0,1.2853,1.3348,0.0,0.0,1.2968,1.3597,1.3525,0.0,1.3847,1.4014,1.4084,1.4755,1.4744,1.4572,1.4994,1.4835,0.0,0.0,0.0,1.4901,1.4138,0.0,0.0,0.0,0.0,0.0,0.0,0.0,0.0,0.0,0.0,0.0,0.0,0.0,0.0,0.0,0.0,0.0,0.0,0.0,0.0,0.0,0.0,0.0,0.0,1.1986,0.0,0.0,1.489,1.5336,1.568,1.6233,1.65,1.65,1.65,1.65,1.65,1.65,1.6671,1.6955,1.6955,1.7102,1.7359,1.7537,1.7659,1.776,1.8167,1.8383,1.85,1.8917,1.9101,1.9101,1.8936,1.9064,1.9302,0.9526,0.0,0.0,0.0,0.0,0.0,0.0,0.0,0.0,0.0,1.454,0.0,1.6168,0.0,1.6377,0.0,1.6317,1.5785,1.4485,1.4046,0.0,1.3091,1.2221,0.0,0.0,1.0577,0.9761,0.0,0.0,0.8041,0.0,0.0,0.0,0.0,0.0,0.0,1.1235,0.0,1.2709,0.0,0.0,1.3741,0.0,0.0,1.4107,1.3292,0.0,1.4269,1.3808,1.4665,1.4785,1.4698,1.5344,1.5389,1.5242,1.5634,1.55,1.5208,1.5299,1.5534,0.0,1.4981,1.4485,0.0,1.3431,0.0,0.0,0.0,0.0,0.0,0.0,0.0,0.0,0.0,0.0,0.0,0.0,0.0,0.0,0.0,0.0,0.0,0.0,0.0,1.0335,1.1082,0.0,0.0,0.0,0.0,1.506,1.5412,1.6132,1.65,1.65,1.65,1.65,1.65,1.65,1.6757,1.7199,1.7199,1.7413,1.7808,1.7988,1.8127,1.8246,1.8707,1.8936,1.9045,1.9302,1.9431,1.9465,1.9265,1.9302,1.9413,0.0,0.0,0.0,0.0,0.9954,0.0,0.0,0.0,1.4129,0.0,1.5401,1.6223,1.6648,1.6698,1.687,1.7305,1.747,0.0,1.5329,1.5459,0.0,0.0,1.3693,1.3341,1.2983,1.2258,0.0,0.0,0.0,0.0,0.0,0.0,0.0,0.0,0.9893,0.0,1.1754,1.3035,1.3624,1.3778,1.431,1.475,1.5231,1.6478,1.5618,1.3926,1.5099,1.5356,1.5246,1.5916,1.6098,1.6025,1.6022,1.6185,1.6392,1.6392,1.6457,1.6479,1.6414,1.6392,1.6246,1.5603,0.0,0.0,0.0,0.0,1.4296,0.0,0.0,0.0,0.0,0.0,0.0,0.0,0.0,0.0,0.0,0.0,0.0,0.0,0.0,0.0,0.0,0.0,0.9479,1.0531,1.0669,0.0,0.0,0.0,1.4808,1.4896,1.5919,1.6475,1.65,1.6522,1.6543,1.6543,1.6552,1.6808,1.7261,1.7282,1.7496,1.7888,1.8422,1.8649,1.8688,1.9195,1.9413,1.9413,1.9413,1.9487,1.9593,1.945,1.9413,1.9431,1.1072,1.1186,1.1429,0.0,1.1712,1.1778,0.0,0.0,0.0,0.0,1.6297,1.7234,1.7946,1.8167,1.8131,1.7907,1.7971,0.0,0.0,0.0,0.0,1.638,1.6253,1.5998,1.5545,1.3909,0.0,1.3073,0.0,0.0,1.0091,0.0,0.0,0.0,0.0,0.0,1.1407,1.2699,1.4151,1.5646,1.6174,1.6486,0.0,0.0,1.7002,1.6306,1.6955,1.669,1.6127,1.6609,1.6556,1.6293,1.6286,1.6349,1.6414,1.6457,1.6457,1.6436,1.6479,1.6479,1.642,1.6209,1.5777,1.534,0.0,0.0,0.0,0.0,0.0,0.0,0.0,0.0,0.0,0.0,0.0,0.0,0.0,0.0,0.0,0.0,0.0,0.0,0.0,0.0,0.9629,0.9529,0.0,0.0,0.0,0.0,0.0,1.4865,1.5542,1.6107,1.65,1.6863,1.7031,1.7031,1.7318,1.7707,1.8167,1.8226,1.8481,1.8917,1.9101,1.9246,1.9358,1.9501,1.9578,1.9617,1.9617,1.9636,1.9672,1.9636,1.9596,1.9556,1.1819,0.0,0.0,1.3104,0.0,0.0,1.3478,0.0,0.0,1.5822,1.6829,0.0,1.811,1.8606,1.8928,1.8985,1.9007,0.0,1.8079,0.0,0.0,1.7145,1.7368,1.7314,1.6899,1.5495,0.0,1.3988,0.0,0.0,1.0225,0.0,0.0,0.0,0.0,1.1051,0.0,1.34,1.508,1.6609,1.7212,0.0,0.0,1.8374,1.8424,1.8248,1.8573,1.797,1.7095,1.7616,1.7468,1.7105,1.7111,1.6975,1.6904,1.7165,1.7042,1.6854,1.6876,1.6898,1.6814,1.652,1.6219,1.5973,1.5902,1.5944,1.5994,0.0,0.0,0.0,0.0,0.0,0.0,0.0,0.0,0.0,0.0,0.0,0.0,0.0,0.0,0.0,0.0,0.0,0.0,0.0,0.0,0.0,0.0,0.0,0.0,1.4513,1.5299,1.606,1.6808,1.7073,1.7303,1.7475,1.776,1.8108,1.8553,1.8649,1.8917,1.9358,1.9465,1.9538,1.9593,1.9629,1.9669,1.9708,1.9708,1.9708,1.9708,1.9708,1.9687,1.965,0.0,0.0,0.0,0.0,0.0,0.0,0.0,1.5269,0.0,1.6263,0.0,1.7874,1.7874,1.8609,1.933,1.9911,0.0,1.9704,1.875,1.9377,1.9086,1.7619,1.8149,1.8284,1.7842,1.6998,0.0,0.0,0.0,0.0,1.006,0.0,0.0,0.0,0.0,0.0,0.0,1.4835,1.6321,1.7142,1.786,1.8372,1.8738,1.9384,1.963,1.963,1.9759,1.9046,1.8154,1.8648,1.851,1.8124,1.8049,1.7795,1.7612,1.8066,1.7815,1.741,1.741,1.7348,1.7149,1.6626,1.65,1.65,1.65,1.65,1.65,1.65,1.65,1.6475,0.0,0.0,0.0,0.0,0.0,0.0,0.0,0.0,0.0,0.0,0.0,0.0,0.0,0.0,0.0,0.0,0.0,0.0,0.0,0.0,0.0,1.416,1.5156,1.6148,1.7102,0.0,1.7537,1.7828,1.8068,1.8364,1.8707,1.8841,1.9101,1.9431,1.9556,1.9611,1.9629,1.9687,1.9708,1.9708,1.9708,1.9708,1.9708,1.9708,1.9708,1.9708,0.0,0.0,0.0,0.0,0.0,1.6487,1.709,1.7223,1.7255,1.7277,1.8214,1.8837,1.8837,1.9005,1.9142,1.9264,1.9781,0.0,0.0,0.0,0.0,2.0582,2.1183,2.1087,2.0136,1.8336,1.6955,0.0,1.3405,1.1678,1.0875,0.0,0.0,0.0,0.0,0.0,1.3898,1.6603,0.0,1.8064,1.9057,1.9505,1.9592,1.9721,1.9759,1.9773,1.9798,1.966,1.9396,1.9083,1.8908,1.8758,1.8294,1.8118,1.8078,1.8179,1.7815,1.741,1.741,1.7036,1.6626,1.6525,1.65,1.65,1.65,1.65,1.65,1.65,1.65,1.635,1.5919,0.0,0.0,0.0,0.0,0.0,0.0,0.0,0.0,0.0,0.0,0.0,0.0,0.0,0.0,0.0,0.0,0.0,0.0,0.0,0.0,0.0,1.5254,0.0,0.0,0.0,1.8226,1.7968,1.8765,1.9176,1.9265,1.9395,1.9501,1.9574,1.965,1.9672,1.969,1.9708,1.9708,1.9708,1.9708,1.9708,1.9708,1.9708,1.9708,1.9708,0.0,0.0,0.0,0.0,0.0,0.0,0.0,1.8794,0.0,1.8388,1.8763,1.9108,1.9108,1.9896,2.0414,2.05,2.119,2.1463,2.1155,2.1729,2.1873,2.1314,2.1599,0.0,2.1104,1.9543,1.8204,1.7121,1.4552,1.2587,0.0,0.0,0.0,0.0,0.0,1.3221,0.0,0.0,0.0,1.8669,1.9484,1.9798,1.9798,1.9798,1.9798,1.9798,1.9798,1.9798,1.9761,1.951,1.9409,1.9359,1.912,1.8844,1.8657,1.8957,1.8656,1.8242,1.8242,1.7804,1.7325,1.7036,1.6735,1.65,1.65,1.65,1.65,1.65,1.65,1.6337,1.5793,1.5261,0.0,0.0,0.0,0.0,0.0,0.0,0.0,0.0,0.0,0.0,0.0,0.0,0.0,0.0,0.0,0.0,0.0,0.0,0.0,0.0,0.0,0.0,0.0,0.0,0.0,1.8726,1.9246,1.9501,1.952,1.9596,1.965,1.965,1.969,1.9708,1.9708,1.9708,1.9708,1.9708,1.9708,1.9708,1.9708,1.9708,1.9708,1.9708,0.0,1.6767,0.0,0.0,1.8081,0.0,1.9251,2.0131,2.0389,1.9479,1.9399,1.9456,1.9624,2.0816,2.1651,2.1828,2.2533,2.2734,2.2137,2.2237,2.2116,2.1692,2.1668,2.1673,2.1681,2.0564,1.9258,0.0,0.0,0.0,0.0,0.0,0.0,0.0,0.0,0.0,0.0,0.0,1.8277,1.9045,1.9597,1.9798,1.9798,1.9798,1.9798,1.9798,1.9798,1.9798,1.9798,1.9798,1.9798,1.9798,1.9798,1.9522,1.9246,1.9685,1.9409,1.9008,1.9008,1.8607,1.8078,1.7513,1.7036,1.6651,1.6525,1.65,1.65,1.65,1.65,1.6337,1.5793,1.5449,0.0,0.0,0.0,0.0,0.0,0.0,0.0,0.0,0.0,0.0,0.0,0.0,0.0,0.0,0.0,0.0,0.9945,1.0347,1.1523,0.0,0.0,1.6191,1.7264,0.0,1.9082,1.9306,1.9523,1.9629,1.9629,1.9687,1.9708,1.9708,1.9708,1.9708,1.9708,1.9708,1.9708,1.9708,1.9708,1.9708,1.9708,1.9708,1.9708,1.9708,0.0,0.0,0.0,0.0,0.0,0.0,2.025,2.1083,2.1342,2.0385,2.0296,2.0579,2.1303,2.1529,2.1674,2.1881,2.2586,2.2734,2.2137,2.2689,2.298,2.293,2.293,2.271,2.2246,2.1182,1.9798,0.0,0.0,1.4989,0.0,0.0,0.0,0.0,0.0,0.0,0.0,1.8184,1.8896,1.9045,1.9597,1.9798,1.9798,1.9798,1.9798,1.9798,1.9798,1.9798,1.9798,1.9798,1.9798,1.9798,1.9798,1.9773,1.9736,1.9786,1.9409,1.9008,1.9008,1.8607,1.8078,1.7513,1.736,1.7162,1.6613,1.65,1.65,1.65,1.65,1.6337,1.5793,1.607,1.6032,0.0,0.0,0.0,0.0,0.0,0.0,0.0,0.0,0.0,0.0,0.0,0.0,0.0,0.0,0.0,1.0308,1.0161,1.1172,1.362,0.0,1.5703,1.5885,1.8313,1.9325,1.8949,1.9457,1.969,1.969,1.9708,1.9708,1.9708,1.9708,1.9708,1.9708,1.9708,1.9708,1.9708,1.9708,1.9708,1.9708,1.9708,1.9708,1.9729,0.0,0.0,0.0,0.0,0.0,0.0,0.0,2.2644,2.3036,2.2675,2.2255,2.2095,2.2422,2.3262,2.3711,2.3469,2.4135,2.4171,2.3287,2.3486,2.3471,2.312,2.3108,2.2995,2.2782,2.2046,2.1004,0.0,0.0,1.6459,1.506,1.4814,0.0,0.0,0.0,1.789,1.8555,1.9572,2.02,2.0526,2.0727,2.0815,2.0815,2.0815,2.0815,2.0815,2.0815,2.0602,2.0352,2.0352,2.0087,1.9798,1.9798,1.9798,1.9798,1.9798,1.966,1.9497,1.9497,1.9083,1.8619,1.8406,1.7877,1.7348,1.7087,1.6773,1.65,1.65,1.65,1.6425,1.6233,1.6095,1.6015,0.0,0.0,0.0,0.0,0.0,0.0,0.0,0.0,0.0,0.0,0.0,0.0,0.0,0.0,0.0,0.0,1.0496,0.0,1.3224,0.0,1.6424,1.6246,1.8511,1.9563,1.9387,1.9603,1.9708,1.9708,1.9708,1.9708,1.9708,1.9708,1.9708,1.9708,1.9708,1.9708,1.9708,1.9708,1.9708,1.9708,1.9708,1.9836,2.0015,2.0943,0.0,2.0379,0.0,2.1443,2.1654,2.2536,2.3302,2.3768,2.3768,2.3706,2.3692,2.3692,2.4659,2.5165,2.484,2.5298,2.5209,2.4305,2.4243,2.4054,2.3622,2.3446,0.0,2.3358,2.2686,2.1845,2.093,1.9598,0.0,1.6898,0.0,0.0,0.0,1.8681,1.9346,2.0087,2.0691,2.1157,2.1493,2.1493,2.1493,2.1493,2.1493,2.1493,2.1493,2.1493,2.127,2.093,2.093,2.0666,2.0238,1.9911,1.9798,1.9798,1.9798,1.9798,1.9798,1.9798,1.9509,1.9196,1.9045,1.8317,1.7576,1.7436,1.6936,1.65,1.65,1.65,1.6522,1.6543,1.6342,1.6296,1.6635,0.0,0.0,0.0,0.0,0.0,0.0,0.0,1.3276,0.0,0.0,0.0,0.0,0.0,0.0,0.0,0.0,0.0,0.0,0.0,0.0,0.0,1.8723,1.9708,1.9708,1.9708,1.9708,1.9708,1.9708,1.9708,1.9708,1.9708,1.9708,1.9708,1.9708,1.9708,1.9708,1.9726,1.9726,1.9744,1.9854,2.0067,2.0311,2.2294,2.247,2.2459,2.248,2.247,2.2315,2.1869,2.2515,2.3001,2.3001,2.4335,2.5276,2.5276,2.5276,2.5375,2.5569,2.5586,2.5372,2.4813,2.4775,2.4775,0.0,0.0,2.3991,2.3991,2.2887,2.2033,2.1481,0.0,0.0,1.9748,0.0,1.9761,1.9798,2.0402,2.0666,2.0717,2.127,2.1481,2.1493,2.1493,2.1493,2.1493,2.1493,2.1493,2.1493,2.1493,2.1509,2.1481,2.1481,2.1509,2.1267,2.0162,1.9798,1.9798,1.9798,1.9798,1.9798,1.9798,1.9798,1.9673,1.9133,1.8581,1.8053,1.7524,1.6936,1.65,1.65,1.65,1.6543,1.6675,1.7005,1.7148,1.6763,0.0,0.0,0.0,0.0,0.0,0.0,1.437,1.2938,1.3276,0.0,0.0,0.0,0.0,0.0,0.0,0.0,0.0,1.5079,1.5972,0.0,1.7301,1.8891,1.9708,1.9708,1.9708,1.9708,1.9708,1.9708,1.9708,1.9708,1.9708,1.9708,1.9708,1.9708,1.9708,1.9708,1.9762,1.9797,1.9851,2.0239,2.0446,2.0581,2.3695,2.3867,2.4063,2.4648,2.5165,2.5439,2.5315,2.5951,2.6492,2.6492,2.6588,2.6652,2.6652,2.6317,2.6136,0.0,2.6223,2.5984,0.0,2.5347,2.5197,2.4813,2.4625,2.4556,2.4556,2.4205,2.3521,2.2581,0.0,0.0,0.0,2.0415,2.0616,2.0978,2.1531,2.1782,2.1832,2.2343,2.2581,2.2581,2.2581,2.2581,2.2581,2.2581,2.2581,2.2581,2.2581,2.2372,2.2046,2.2046,2.1794,2.143,2.1066,2.0717,2.0339,1.9911,1.9798,1.9798,1.9798,1.9798,1.9761,1.9597,1.9133,1.8594,1.8066,1.72,1.6595,1.6972,1.7055,1.718,1.7578,1.776,1.7833,1.7787,1.8321,0.0,0.0,0.0,0.0,0.0,0.0,1.4212,0.0,1.3379,0.0,0.0,0.0,0.0,0.0,0.0,0.0,0.0,1.6901,0.0,1.7583,1.8996,1.9708,1.9708,1.9708,1.9708,1.9708,1.9708,1.9708,1.9708,1.9708,1.9708,1.9708,1.9744,1.9762,1.978,1.9884,1.9937,1.9973,2.0344,2.0631,2.0894,2.5343,2.5496,2.5599,2.6007,2.6426,2.67,2.6498,2.7162,2.7668,2.7668,2.7614,2.7595,2.7595,2.7281,0.0,2.6524,2.6499,2.6336,2.5971,2.5925,2.5774,2.5448,2.5222,2.5109,2.5109,2.4888,0.0,2.3735,2.3183,2.2598,2.1936,2.1722,2.1782,2.2121,2.2443,2.2594,2.2606,2.2957,2.3108,2.3108,2.3108,2.3108,2.3108,2.3108,2.3108,2.3108,2.3108,2.2882,2.2594,2.2594,2.2397,2.2071,2.1857,2.1556,2.1157,2.0363,2.0125,2.0075,1.9861,1.9798,1.9798,1.9798,1.9384,1.8807,1.81,1.7428,1.699,1.7107,1.7263,1.7476,1.7881,1.8204,1.8452,1.8577,1.894,1.9002,1.8408,0.0,0.0,0.0,0.0,0.0,0.0,1.5195,0.0,0.0,0.0,0.0,0.0,0.0,0.0,1.5859,1.7715,0.0,1.8446,1.9271,1.9708,1.9708,1.9708,1.9708,1.9708,1.9708,1.9708,1.9708,1.9708,1.9708,1.9708,1.9762,1.9797,1.9815,1.9973,2.0098,2.0272,2.063,2.0991,2.1338,2.7099,2.7191,2.7082,0.0,2.6751,0.0,2.614,2.6657,2.7097,2.7097,2.7706,2.816,2.816,2.8134,2.7695,2.67,0.0,0.0,0.0,2.6499,2.6499,2.6499,2.5971,2.5649,2.5649,2.5184,2.4888,2.4838,2.433,2.4054,2.4042,2.3471,2.3221,2.3221,2.3221,2.3221,2.3221,2.3221,2.3221,2.3221,2.3221,2.3221,2.3208,2.3183,2.3158,2.3158,2.312,2.3108,2.3108,2.3108,2.3108,2.3007,2.2506,2.2372,2.2146,2.1069,2.0729,2.0578,2.0012,1.9836,1.9798,1.9798,1.9409,1.8792,1.7883,1.7715,1.7634,1.7213,1.737,1.7659,1.7808,1.8452,1.9001,1.9105,1.9472,1.9468,1.8792,0.0,0.0,0.0,0.0,0.0,0.0,1.7239,1.7728,0.0,0.0,0.0,0.0,0.0,1.5202,1.7699,1.8416,1.9076,1.9693,1.9708,1.9708,1.9708,1.9708,1.9708,1.9708,1.9708,1.9708,1.9708,1.9708,1.9708,1.9726,1.9815,1.9833,1.9833,2.0083,2.0361,2.0663,2.1087,2.1479,2.1842,0.0,0.0,2.8347,2.8919,2.9024,2.8975,2.8852,2.8981,2.9097,2.9097,2.8887,2.87,2.87,2.836,2.7996,2.7733,2.7331,2.6952,2.6524,2.6499,2.6499,2.6499,2.6361,2.6285,2.6285,2.6172,2.585,2.541,2.4883,2.4619,2.4619,2.4449,2.4399,2.4399,2.4399,2.4399,2.4399,2.4399,2.4399,2.4399,2.4399,2.4399,2.4349,2.3954,2.3791,2.374,2.3258,2.3108,2.3108,2.3108,2.3108,2.3083,2.2945,2.2907,2.2694,2.1619,2.1018,2.0666,2.0528,2.0228,1.9952,1.9952,1.9635,1.9347,1.9525,1.8865,1.8428,1.905,1.8849,1.8703,1.9147,1.9369,1.953,1.9548,1.9654,1.9468,1.8792,1.8568,0.0,0.0,1.7499,1.7442,1.7362,1.8039,1.8042,0.0,0.0,0.0,0.0,1.6921,1.7295,1.8433,1.9106,1.9543,1.9708,1.9708,1.9708,1.9708,1.9708,1.9708,1.9708,1.9708,1.9726,1.978,1.978,1.983,1.9955,2.0273,2.0273,2.0083,2.0747,2.091,2.0828,2.1433,2.1721,2.1842,2.891,2.9079,2.9248,2.9714,2.9792,2.9792,2.9792,2.9792,2.9792,2.9792,2.9515,2.9327,2.9327,2.9051,2.8775,2.8499,2.7971,2.7419,2.6901,2.6876,2.6763,2.6499,2.6499,2.6499,2.6499,2.6499,2.6336,2.6021,2.5435,2.5172,2.5172,2.4901,2.4788,2.4788,2.4788,2.4788,2.4788,2.4788,2.4788,2.4788,2.4788,2.4788,2.4763,2.4494,2.4431,2.4444,2.4017,2.3759,2.3593,2.3606,2.3442,2.3241,2.3318,2.3318,2.3191,2.2626,2.2027,2.1456,2.1006,2.069,2.0501,2.0462,2.0325,2.0292,2.0541,2.0142,1.9722,1.9685,1.9559,1.9439,1.9424,1.9581,1.9708,1.9708,1.9708,1.9468,1.8792,1.8702,0.0,1.8192,1.8162,1.8267,1.8565,1.8942,1.8852,1.8132,1.8401,0.0,1.8087,1.8433,1.8642,1.8702,1.9346,1.9708,1.9708,1.9726,1.978,1.9848,1.9848,1.9848,1.9848,1.9848,1.9866,1.9884,1.9884,2.001,2.0239,2.0496,2.0581,2.0614,2.1103,2.1276,2.1308,2.1661,2.1901,2.2049,2.9753,2.9792,2.9792,2.983,2.983,2.9792,2.983,2.983,2.9792,2.9792,2.9792,2.9792,2.983,2.983,2.9591,2.9139,2.8624,2.8084,2.7444,2.7406,2.7241,2.6763,2.6738,2.67,2.6612,2.6537,2.6499,2.6499,2.5996,2.5724,2.5724,2.5272,2.5071,2.5071,2.5071,2.5071,2.5071,2.5071,2.5071,2.5104,2.5104,2.5091,2.5124,2.5036,2.514,2.5243,2.4974,2.4653,2.4366,2.4284,2.3941,2.3564,2.3595,2.3645,2.3734,2.3763,2.3428,2.2809,2.1766,2.1379,2.1251,2.1189,2.1213,2.1271,2.1354,2.1375,2.1117,2.0109,2.0056,2.0036,1.9443,1.9531,1.9708,1.9708,1.9708,1.9513,1.8927,0.0,1.8852,1.8852,1.8852,1.9076,1.9648,1.9708,1.9708,1.9708,1.9708,1.9708,1.9708,1.9708,1.9453,1.8867,1.9408,1.9708,1.9708,1.978,1.9884,2.0005,2.0005,2.0005,2.0005,2.0005,2.0005,2.0023,2.0061,2.0256,2.0548,2.073,2.0926,2.1149,2.1369,2.1584,2.1812,2.1857,2.2049,2.2296,2.9663,2.9792,2.9869,3.0011,2.9895,2.9869,3.0049,2.9895,2.9792,2.9792,2.9792,2.9869,3.0049,2.9895,2.9831,2.9923,2.9681,2.9089,2.8047,2.7971,2.7946,2.7858,2.7846,2.7632,2.7203,2.6738,2.6499,2.6499,2.6411,2.6361,2.6361,2.6285,2.6248,2.6248,2.6248,2.6248,2.6248,2.6248,2.6303,2.6405,2.6405,2.6506,2.6603,2.6164,2.6017,2.5953,2.5422,2.5179,2.5058,2.4615,2.441,2.4243,2.3739,2.3956,2.4379,2.4509,2.4812,2.486,2.3633,2.2671,2.2005,2.1951,2.166,2.1599,2.242,2.2213,2.1888,2.2135,2.1332,2.0582,2.0478,2.0042,1.9708,1.9708,1.9708,1.9663,1.9573,0.0,1.9525,1.9525,1.9525,1.9588,1.9693,1.9708,1.9708,1.9708,1.9708,1.9708,1.9708,1.9708,1.9648,1.9558,1.9648,1.9726,1.978,1.9902,1.9988,2.0005,2.0005,2.0005,2.0005,2.0005,2.0025,2.0098,2.0378,2.0613,2.0795,2.1386,2.1478,2.1323,2.1915,2.2005,2.1842,2.2123,2.2268,2.2296,3.0024,3.0075,3.0075,3.0228,3.0241,3.0241,3.0267,3.019,3.0075,2.9972,3.0049,3.0113,3.0113,3.0113,3.0152,3.0254,3.0075,2.9783,2.9364,2.8824,2.8411,2.8122,2.8109,2.7984,2.7733,2.7216,2.6974,2.7091,2.6775,2.6658,2.6773,2.6773,2.6773,2.6773,2.6773,2.6773,2.6773,2.6773,2.6807,2.6863,2.6863,2.6909,2.6964,2.6729,2.6693,2.6755,2.6352,2.609,2.5916,2.601,2.5876,2.5597,2.5396,2.5512,2.5685,2.5383,2.5286,2.5156,2.4542,2.3551,2.2756,2.3013,2.263,2.2411,2.3113,2.3032,2.2801,2.2721,2.2224,2.156,2.0823,2.0453,2.0124,1.9768,1.9708,0.0,0.0,1.9708,1.9708,1.9708,1.9708,1.9708,1.9708,1.9708,1.9708,1.9708,1.9708,1.9708,1.9708,1.9708,1.9708,1.9708,1.9744,1.9797,1.9902,1.9993,2.0096,2.0166,2.034,2.0426,2.0441,2.0629,2.073,2.0747,2.091,2.1119,2.1355,2.1661,2.1827,2.1871,2.218,2.2209,2.2094,2.2237,2.2296,2.2296,3.0406,3.033,3.0292,3.0444,3.0495,3.0533,3.0482,3.0444,3.033,3.019,3.0292,3.0368,3.0228,3.033,3.0406,3.0457,3.0305,3.0228,3.0406,2.9694,2.9076,2.8659,2.8508,2.8445,2.8445,2.7902,2.7695,2.785,2.7265,2.7067,2.7216,2.7088,2.699,2.699,2.699,2.699,2.699,2.699,2.7024,2.7079,2.7079,2.7079,2.7113,2.7113,2.7214,2.7335,2.718,2.7004,2.6934,2.7332,2.7294,2.7078,2.7043,2.7117,2.7116,2.6437,2.5948,2.5552,2.5254,2.4376,2.3602,2.397,2.3483,2.3024,2.3486,2.3595,2.346,2.3002,2.2808,2.2388,2.135,2.0897,2.0524,2.0022,0.0,0.0,0.0,1.9708,1.9708,1.9708,1.9708,1.9708,1.9708,1.9708,1.9726,1.9726,1.9744,1.9762,1.9762,1.9744,1.9726,1.9726,1.9797,1.9902,2.0025,2.0098,2.0202,2.0304,2.0645,2.0794,2.0811,2.115,2.1308,2.1291,2.1385,2.1554,2.1812,2.1886,2.2063,2.2296,2.2296,2.2296,2.2296,2.2296,2.2296,2.2296,3.0406,3.0406,3.0444,3.066,3.0533,3.0482,3.066,3.0533,3.0406,3.0368,3.0406,3.0457,3.0622,3.0482,3.0482,3.066,3.0482,3.0368,3.0406,3.033,3.0279,3.024,2.9703,2.9397,2.9397,2.8884,2.859,2.8638,2.8075,2.7828,2.7815,2.7255,2.699,2.699,2.699,2.699,2.699,2.699,2.7113,2.7268,2.7268,2.7335,2.7469,2.7469,2.7469,2.7503,2.7469,2.7848,2.8268,2.7841,2.8057,2.8464,2.7906,2.8111,2.8434,2.7768,2.7501,2.7149,2.597,2.5206,2.4737,2.4594,2.3724,2.3024,2.3486,2.3595,2.3595,2.3535,2.3092,2.2673,2.2568,2.1545,2.0673,2.0628,0.0,0.0,1.9708,1.9708,1.9708,1.9708,1.9708,1.9708,1.9708,1.9762,1.978,1.978,1.9902,1.9988,1.9988,1.9866,1.978,1.978,1.9919,2.0025,2.0098,2.022,2.0287,2.0304,2.0645,2.0794,2.0811,2.115,2.1308,2.1323,2.1631,2.1766,2.1827,2.2137,2.2282,2.2296,2.2296,2.2296,2.2296,2.2296,2.2296,2.2296,3.0748,3.0748,3.0798,3.0874,3.0836,3.0798,3.0874,3.0836,3.071,3.0609,3.0685,3.0761,3.0698,3.0761,3.0798,3.0874,3.0685,3.0647,3.0748,3.0647,3.0533,3.0406,3.0163,3.0048,3.0048,2.9497,2.9252,2.9385,2.8853,2.8653,2.8772,2.8516,2.8412,2.8412,2.8412,2.8412,2.8386,2.8023,2.7923,2.7965,2.7579,2.7469,2.7556,2.7973,2.8137,2.8157,2.8583,2.8889,2.9146,2.9343,2.9622,2.9792,2.955,2.963,2.962,2.8557,2.8241,2.8028,2.7123,2.6436,2.5847,2.5359,2.4573,2.3896,2.3656,2.3595,2.3595,2.3595,2.3415,2.3152,2.2763,2.2283,2.1665,2.0838,0.0,2.0168,1.9768,1.9744,1.9762,1.9762,1.9848,1.9848,1.9762,1.9866,1.9884,1.9797,1.9919,2.0005,2.0005,1.9937,1.9937,1.9977,2.0045,2.008,2.01,2.022,2.0304,2.0304,2.086,2.1103,2.1119,2.1661,2.1915,2.193,2.2049,2.2123,2.2123,2.2254,2.2296,2.2296,2.2296,2.2296,2.2296,2.2296,2.2296,2.2296,3.0986,3.0986,3.0986,3.0986,3.0986,3.0986,3.0986,3.0986,3.0949,3.0811,3.0911,3.0949,3.0811,3.0911,3.0986,3.0986,3.0874,3.0849,3.0986,3.0874,3.0723,3.0596,3.0596,3.0596,3.0596,3.0184,3.0052,3.0201,2.9629,2.9428,2.9549,2.9366,2.931,2.931,2.931,2.931,2.9284,2.8878,2.8695,2.8669,2.8229,2.8208,2.8438,2.8702,2.8915,2.9164,2.9418,2.9628,2.9889,3.0329,3.0644,3.0808,3.0814,3.0672,3.0298,2.922,2.8757,2.8442,2.7779,2.727,2.6761,2.6078,2.5247,2.4485,2.4007,2.3759,2.3595,2.3595,2.3595,2.3475,2.3062,2.2823,2.2403,2.1509,2.118,2.082,2.0164,2.0131,2.0074,1.9827,1.9919,1.9955,1.9866,1.9973,1.999,1.9904,2.0025,2.0078,2.0025,2.0061,2.0133,2.0256,2.0291,2.0376,2.0479,2.0461,2.0458,2.0475,2.1135,2.1462,2.1478,2.2034,2.2296,2.2296,2.2296,2.2296,2.2296,2.2296,2.2296,2.2296,2.2296,2.2296,2.2296,2.2296,2.2296,2.2296,3.0986,3.0986,3.0986,3.0986,3.0986,3.0986,3.0986,3.0986,3.0986,3.0986,3.0986,3.0986,3.0986,3.0986,3.0986,3.0986,3.0986,3.0986,3.0986,3.0986,3.0986,3.0986,3.0986,3.0986,3.0986,3.0986,3.0986,3.0986,3.0388,3.0113,3.0087,2.9562,2.9323,2.9323,2.9323,2.9323,2.9323,2.9323,2.9323,2.9323,2.9323,2.9763,3.0344,2.9692,2.9876,3.0411,2.976,2.995,3.0524,3.0524,3.097,3.1511,3.1511,3.1032,3.0387,2.9786,2.9131,2.8457,2.7794,2.76,2.7435,2.6776,2.5615,2.4619,2.4619,2.4081,2.361,2.361,2.3595,2.3595,2.3595,2.3122,2.2729,2.2782,2.2244,2.1611,2.0997,2.0967,2.0712,1.9906,1.9919,2.0005,2.0005,2.0063,2.01,2.01,2.022,2.0252,2.01,2.022,2.0392,2.0597,2.0729,2.0958,2.1308,2.0974,2.0811,2.0811,2.1479,2.1812,2.1796,2.2152,2.2296,2.2296,2.2296,2.2296,2.2296,2.2296,2.2296,2.2296,2.2296,2.2296,2.2296,2.2296,2.2296,2.2296,3.0986,3.0986,3.0986,3.0986,3.0986,3.0986,3.0986,3.0986,3.0986,3.0986,3.0986,3.0986,3.0986,3.0986,3.0986,3.0986,3.0986,3.0986,3.0986,3.0986,3.0986,3.0986,3.0986,3.0986,3.0986,3.0986,3.0986,3.0986,3.0817,3.0725,3.0725,3.0555,3.0477,3.0477,3.0477,3.0477,3.0487,3.0583,3.0631,3.064,3.0795,3.1001,3.1193,3.1456,3.1707,3.189,3.167,3.1737,3.1827,3.1367,3.1322,3.1511,3.1511,3.1361,3.1062,3.0417,2.9789,2.9172,2.8472,2.7959,2.7435,2.6776,2.6303,2.5884,2.5397,2.4769,2.4291,2.4291,2.3939,2.3595,2.3595,2.3546,2.3324,2.2877,2.2712,2.2409,2.1758,2.1318,2.0975,2.0743,2.0421,2.0166,2.008,2.0168,2.0202,2.01,2.022,2.0287,2.0252,2.0494,2.0678,2.0729,2.1023,2.1198,2.1308,2.1198,2.115,2.115,2.1601,2.1812,2.1796,2.2152,2.2296,2.2296,2.2296,2.2296,2.2296,2.2296,2.2296,2.2296,2.2296,2.2296,2.2296,2.2296,2.2296,2.2296,3.0986,3.0986,3.0986,3.0986,3.0986,3.0986,3.0986,3.0986,3.0986,3.0986,3.0986,3.0986,3.0986,3.0986,3.0986,3.0986,3.0986,3.0986,3.0986,3.0986,3.0986,3.0986,3.0986,3.0986,3.0986,3.0986,3.0986,3.0986,3.0986,3.0986,3.0986,3.0986,3.0986,3.0986,3.0986,3.0986,3.1035,3.1397,3.1544,3.1588,3.2019,3.2353,3.2625,3.2807,3.3042,3.3254,3.3004,3.2736,3.2452,3.2034,3.172,3.1511,3.1511,3.1511,3.1376,3.0717,3.0238,2.9744,2.8846,2.8293,2.7839,2.7165,2.6806,2.6482,2.6093,2.5495,2.4918,2.4649,2.4276,2.3924,2.3719,2.3739,2.3704,2.3394,2.3431,2.3244,2.2574,2.2179,2.1869,2.1568,2.1049,2.067,2.0584,2.0406,2.027,2.0185,2.0252,2.0304,2.0304,2.0611,2.0844,2.099,2.1323,2.1554,2.1691,2.1691,2.1631,2.1493,2.1842,2.2005,2.2005,2.2209,2.2296,2.2296,2.2296,2.2296,2.2296,2.2296,2.2296,2.2296,2.2296,2.2296,2.2296,2.2296,2.2296,2.2296,3.0986,3.0986,3.0986,3.0986,3.0986,3.0986,3.0986,3.0986,3.0986,3.0986,3.0986,3.0986,3.0986,3.0986,3.0986,3.0986,3.0986,3.0986,3.0986,3.0986,3.0986,3.0986,3.0986,3.0986,3.0986,3.0986,3.0986,3.0986,3.0986,3.1011,3.1086,3.1086,3.1123,3.1198,3.1198,3.1198,3.1222,3.1978,3.229,3.2362,3.3108,3.3817,3.4355,3.3816,3.4003,3.4518,3.3829,3.32,3.2677,3.2557,3.2049,3.1511,3.1511,3.1511,3.1376,3.0776,3.0552,3.0253,2.9086,2.8682,2.8442,2.7854,2.7195,2.6701,2.6701,2.6168,2.5525,2.4903,2.4679,2.4455,2.3971,2.3863,2.3903,2.4145,2.4223,2.4009,2.3381,2.3288,2.3051,2.239,2.1756,2.1381,2.1381,2.078,2.0366,2.0304,2.0304,2.0304,2.0339,2.0662,2.099,2.1323,2.1676,2.1991,2.2296,2.2296,2.2152,2.1857,2.2152,2.2296,2.2296,2.2296,2.2296,2.2296,2.2296,2.2296,2.2296,2.2296,2.2296,2.2296,2.2296,2.2296,2.2296,2.2296,2.2296,2.2296,3.0986,3.0986,3.0986,3.0986,3.0986,3.0986,3.0986,3.0986,3.0986,3.0986,3.0986,3.0986,3.0986,3.0986,3.0986,3.0986,3.0986,3.0986,3.0986,3.0986,3.0986,3.0986,3.0986,3.0986,3.0986,3.0986,3.0986,3.0986,3.0986,3.1296,3.1882,3.1882,3.216,3.2733,3.2733,3.2733,3.2769,3.3512,3.3822,3.3891,3.4673,3.51,3.5231,3.5097,3.515,3.519,3.4502,3.4204,3.3919,3.2856,3.2049,3.1511,3.1511,3.1511,3.1466,3.1331,3.0898,3.0447,3.0163,2.9355,2.8588,2.8553,2.8037,2.7515,2.7415,2.6954,2.6468,2.6222,2.54,2.4724,2.4603,2.4223,2.4003,2.4166,2.4234,2.423,2.4076,2.362,2.324,2.3082,2.2486,2.2089,2.2089,2.1473,2.0875,2.035,2.0304,2.0424,2.0678,2.1023,2.1339,2.1676,2.202,2.224,2.2296,2.2296,2.2268,2.2194,2.2268,2.2296,2.2296,2.2296,2.2296,2.2296,2.2296,2.2296,2.2296,2.2296,2.2296,2.2296,2.2296,2.2296,2.2296,2.2296,2.2296,2.231,3.0986,3.0986,3.0986,3.0986,3.0986,3.0986,3.0986,3.0986,3.0986,3.0986,3.0986,3.0986,3.0986,3.0986,3.0986,3.0986,3.0986,3.0986,3.0986,3.0986,3.0986,3.0986,3.0986,3.0986,3.0986,3.0986,3.0986,3.0986,3.1371,3.17,3.211,3.247,3.2826,3.3178,3.3178,3.3178,3.3262,3.4007,3.4312,3.438,3.518,3.5504,3.5504,3.5504,3.5504,3.5459,3.51,3.4788,3.4309,3.2961,3.2258,3.1914,3.16,3.1511,3.1511,3.1511,3.1256,3.0898,3.0597,3.0083,2.9504,2.8936,2.8565,2.8258,2.7891,2.7584,2.7261,2.688,2.6294,2.5682,2.5098,2.4754,2.449,2.4275,2.4276,2.4302,2.4302,2.401,2.3779,2.3779,2.3179,2.264,2.2336,2.2167,2.183,2.1291,2.1242,2.1264,2.1282,2.1938,2.2149,2.1814,2.2473,2.2665,2.2296,2.2296,2.2296,2.2296,2.2296,2.2296,2.2296,2.2296,2.2296,2.2296,2.2296,2.2296,2.2296,2.2296,2.2296,2.2296,2.2296,2.2296,2.2296,2.2296,2.2324,2.2366,3.0986,3.0986,3.0986,3.0986,3.0986,3.0986,3.0986,3.0986,3.0986,3.0986,3.0986,3.0986,3.0986,3.0986,3.0986,3.0986,3.0986,3.0986,3.0986,3.0986,3.0986,3.0986,3.0986,3.0986,3.0986,3.1123,3.1123,3.0986,3.1736,3.2146,3.229,3.3038,3.3457,3.3575,3.3575,3.3575,3.3644,3.4259,3.4495,3.4562,3.5246,3.5504,3.5504,3.5504,3.5504,3.5504,3.5504,3.5055,3.4339,3.3215,3.2781,3.2557,3.1884,3.1675,3.1645,3.154,3.1511,3.1376,3.0808,3.0724,3.0543,2.9456,2.9107,2.888,2.8358,2.8145,2.7877,2.7285,2.7096,2.6732,2.5725,2.535,2.5035,2.4558,2.4379,2.4302,2.4302,2.4302,2.4302,2.4302,2.387,2.3332,2.273,2.2986,2.2977,2.2534,2.2515,2.2413,2.2183,2.3022,2.3113,2.2285,2.3005,2.3105,2.2482,2.2347,2.2296,2.2296,2.2296,2.2296,2.2296,2.2296,2.2296,2.2296,2.2296,2.2296,2.2296,2.2296,2.2296,2.2296,2.2296,2.2296,2.2296,2.231,2.2366,2.2419,3.0986,3.0986,3.0986,3.0986,3.0986,3.0986,3.0986,3.0986,3.0986,3.0986,3.0986,3.0986,3.0986,3.0986,3.0986,3.0986,3.0986,3.0986,3.0986,3.0986,3.0986,3.0986,3.0986,3.0986,3.0986,3.164,3.164,3.0986,3.1736,3.2434,3.3073,3.3802,3.4509,3.518,3.518,3.518,3.518,3.5294,3.5359,3.5359,3.5472,3.5504,3.5504,3.5504,3.5504,3.5504,3.5504,3.5055,3.4474,3.4294,3.3829,3.3245,3.2587,3.2348,3.2243,3.1675,3.1511,3.1481,3.1391,3.1084,3.0769,3.0713,2.992,2.9164,2.9189,2.8664,2.8122,2.7908,2.7494,2.7116,2.6971,2.5992,2.5188,2.5173,2.4687,2.4302,2.4302,2.4302,2.4302,2.4302,2.4521,2.4569,2.4225,2.4251,2.401,2.3378,2.333,2.3435,2.3687,2.3836,2.3981,2.4142,2.3665,2.3342,2.3241,2.2632,2.2296,2.2296,2.2296,2.2296,2.2296,2.2296,2.2296,2.2296,2.2296,2.2296,2.2296,2.2296,2.2296,2.2296,2.2296,2.2296,2.231,2.2366,2.2432,2.2501,3.0986,3.0986,3.0986,3.0986,3.0986,3.0986,3.0986,3.0986,3.0986,3.0986,3.0986,3.0986,3.0986,3.0986,3.0986,3.0986,3.0986,3.0986,3.0986,3.0986,3.1198,3.1603,3.1603,3.1823,3.2209,3.2555,3.2541,3.2245,3.2967,3.3512,3.3837,3.4624,3.5166,3.5504,3.5504,3.5504,3.5504,3.5504,3.5504,3.5504,3.5504,3.5504,3.5504,3.5504,3.5504,3.5504,3.5504,3.531,3.4996,3.4638,3.4309,3.3858,3.2841,3.2556,3.2496,3.185,3.167,3.1683,3.1769,3.1628,3.1422,3.1153,3.0479,2.9797,2.9479,2.8839,2.8299,2.8241,2.8045,2.7755,2.7387,2.6834,2.6174,2.5419,2.5232,2.4989,2.4369,2.4679,2.4981,2.4981,2.5137,2.5201,2.5065,2.527,2.5175,2.4668,2.4618,2.4597,2.4563,2.4961,2.498,2.4525,2.4577,2.4425,2.4017,2.3274,2.2919,2.2919,2.2499,2.2296,2.2296,2.2296,2.2296,2.2296,2.2296,2.2324,2.2366,2.2366,2.2394,2.2405,2.238,2.2366,2.2349,2.2432,2.2501,2.2569]}]]